GFSCGP_925_spd_003.txt.gz
Wind_Speed
6 9 5 2 1 2 2 2 2 3 2 4 3 5 9 10 10 9 7 5 6 5 4 2 1 7 11 12 12 13 11 8 8 7 10 11 12 17 20 22 22 22 22 24
6 4 1 4 3 2 2 3 1 3 1 1 5 8 6 10 6 6 8 8 7 6 5 4 5 7 10 11 11 8 3 5 9 11 12 12 14 15 18 19 24 26 27 28
5 1 2 2 4 4 1 2 2 3 6 2 3 3 9 4 5 7 8 6 6 7 7 5 5 6 5 4 4 6 7 9 11 12 12 13 13 14 14 21 25 28 28 25
5 3 3 3 3 2 2 2 3 3 1 1 4 3 6 8 5 5 4 4 5 5 4 7 8 9 8 6 7 12 17 16 17 16 16 17 12 13 16 19 21 29 30 29
0 3 4 5 2 1 2 2 1 1 3 2 6 1 3 5 6 6 7 5 6 8 8 9 11 11 15 18 18 16 15 17 19 19 20 17 15 14 17 21 27 31 32 29
2 2 3 2 2 1 4 2 3 2 2 1 1 2 2 4 5 5 3 10 10 9 7 8 11 12 13 15 15 14 13 15 18 19 17 16 17 20 23 31 34 33 32 31
5 3 5 3 4 3 8 3 1 2 3 1 2 1 2 6 6 5 6 8 9 9 10 9 10 10 12 15 16 16 16 16 18 17 17 21 24 28 31 33 29 28 26 22
4 1 4 5 2 2 4 3 2 1 2 4 3 1 2 4 6 6 7 6 7 8 6 5 4 4 7 10 13 15 15 14 18 20 19 19 23 28 29 26 29 28 23 15
3 2 3 4 3 2 2 5 1 5 1 2 3 1 6 4 9 8 6 6 7 7 5 2 3 3 5 10 15 21 23 21 18 19 17 18 22 26 27 30 29 23 15 5
1 2 2 3 1 6 4 4 1 3 3 3 4 4 3 3 4 2 3 3 5 6 9 10 12 11 8 13 15 13 11 13 15 15 15 20 24 24 25 25 21 13 2 3
1 1 2 1 4 1 2 2 5 3 1 1 3 5 4 4 3 2 6 4 2 6 8 9 14 14 11 9 12 13 12 15 16 14 20 23 22 21 20 14 10 5 6 6
2 2 1 2 1 1 1 3 3 2 2 1 1 8 3 6 2 3 5 5 4 6 8 11 14 12 8 8 13 14 13 14 13 19 20 17 15 16 12 7 6 7 7 6
1 2 2 2 2 2 1 2 4 4 2 7 3 6 1 4 9 9 6 4 7 11 11 11 12 10 9 13 14 13 14 12 17 18 15 14 14 14 9 7 8 11 11 10
4 2 4 4 3 2 5 4 5 5 4 6 13 19 21 18 14 11 8 6 10 12 11 8 8 9 11 11 11 13 12 14 15 12 9 10 10 10 10 10 11 13 13 14
2 3 3 4 8 6 10 12 11 12 12 7 13 14 19 14 12 8 6 11 13 14 11 10 9 11 11 13 13 12 12 13 11 9 9 9 7 8 12 12 14 15 15 16
2 2 1 3 5 5 9 12 12 12 12 12 17 19 14 8 3 5 11 13 13 11 8 7 7 9 11 12 12 14 13 8 7 3 5 7 8 10 13 14 15 15 15 16
0 3 1 3 5 9 6 3 4 3 5 4 5 7 6 6 6 14 15 13 8 5 5 8 8 11 12 14 14 13 10 6 4 3 7 10 11 12 12 13 16 17 15 15
4 3 1 2 5 1 2 2 6 7 12 7 7 5 5 10 15 12 8 6 6 6 9 11 14 14 15 12 16 13 4 5 6 6 9 11 11 11 13 15 14 14 14 15
2 4 2 2 3 7 10 6 3 5 6 2 2 7 13 16 13 4 4 5 3 5 17 16 17 17 12 15 13 6 7 7 7 9 11 11 10 11 12 12 14 14 14 14
4 3 2 2 3 5 5 1 2 3 6 3 8 17 21 13 11 8 5 8 13 18 17 19 22 15 13 12 8 10 12 9 11 10 11 11 11 11 11 12 14 12 13 12
1 1 5 5 5 8 8 5 2 1 3 4 10 14 11 7 2 4 6 13 17 20 22 23 19 14 13 11 9 8 7 6 11 14 12 12 11 11 12 13 12 13 14 12
3 3 4 2 4 7 2 2 2 3 2 6 8 9 6 3 6 7 10 12 18 20 24 23 16 15 13 11 10 6 9 11 11 13 12 10 10 12 13 13 13 13 14 14
4 6 2 7 6 3 1 1 3 1 2 2 3 2 2 2 7 10 11 14 18 20 22 21 17 16 11 9 8 9 13 12 13 10 10 9 11 13 13 13 14 14 13 14
3 4 4 1 5 8 4 2 3 2 4 3 3 2 5 8 11 12 12 13 17 22 22 22 19 17 13 9 10 12 14 14 11 10 9 9 10 12 14 12 12 12 13 14
5 3 4 5 14 6 2 1 5 3 4 4 5 6 8 9 12 12 11 15 18 21 23 22 20 18 14 12 15 14 13 11 9 10 9 9 9 11 12 10 9 10 9 10
5 7 3 6 3 2 3 4 3 6 3 1 4 8 13 13 11 13 16 18 17 20 23 22 22 17 16 15 12 11 10 8 9 10 8 8 9 9 8 10 11 9 10 11

GFSCGP_925_spd_006.txt.gz
Wind_Speed
5 4 6 7 6 3 1 1 2 3 4 7 3 2 8 9 9 8 6 6 8 10 8 4 1 2 4 5 7 6 6 4 2 1 4 5 7 7 6 7 11 13 13 15
4 8 4 4 3 1 1 2 2 2 1 5 2 5 8 10 11 10 11 11 10 10 10 11 11 11 8 9 8 6 6 6 5 4 4 4 7 7 8 10 14 14 18 18
5 6 2 1 6 4 2 2 4 4 4 3 4 7 6 6 10 11 12 12 12 12 12 11 13 13 11 10 8 9 11 12 11 9 7 6 6 9 10 15 16 19 21 20
8 3 2 2 5 7 1 2 8 7 6 4 3 4 5 4 8 9 9 10 10 10 9 9 8 9 9 11 13 13 11 10 9 10 8 9 9 10 12 13 15 20 19 20
4 5 5 5 4 6 5 8 5 4 6 4 2 6 8 2 7 6 8 9 10 9 9 9 10 12 13 12 11 10 8 9 8 7 9 10 11 11 12 17 20 21 21 20
6 2 4 5 3 2 6 3 1 1 2 4 2 5 7 2 4 7 9 9 9 8 7 9 10 10 11 10 9 7 7 8 10 10 10 10 12 15 18 21 24 23 26 24
3 5 2 6 3 4 8 2 2 2 4 1 1 6 7 5 7 7 6 8 8 8 7 5 5 5 6 6 6 6 8 9 12 12 9 9 12 17 20 23 25 28 26 24
3 4 8 9 5 5 6 6 3 2 2 4 3 2 6 7 6 6 7 6 6 7 7 5 3 4 4 5 7 7 7 9 10 8 11 13 15 18 21 23 25 26 24 20
2 3 3 6 5 4 3 4 1 3 1 3 1 3 7 7 6 5 5 3 4 3 3 5 6 6 6 6 6 7 9 12 14 13 13 14 16 20 20 22 21 21 18 14
2 2 1 1 3 7 4 3 1 2 3 4 3 7 7 9 5 2 3 3 2 1 4 7 11 9 8 10 10 11 12 13 12 12 11 13 16 16 16 17 18 17 13 11
4 3 2 3 2 2 3 2 2 1 2 3 4 5 5 2 3 4 8 9 6 6 8 10 14 14 13 10 9 11 11 10 10 10 13 15 15 13 14 15 14 12 12 10
4 1 2 1 2 3 2 1 1 2 2 2 4 6 4 1 1 4 12 7 5 7 11 12 13 11 9 7 9 10 10 11 9 12 14 15 13 13 14 14 13 12 12 10
1 0 2 3 4 3 5 3 2 1 1 8 4 4 3 3 10 10 9 8 5 10 13 13 14 11 9 10 10 10 10 10 12 13 12 12 13 15 14 14 15 14 13 13
1 2 4 5 6 4 6 7 7 8 5 8 13 18 16 13 14 12 6 5 10 14 13 11 11 10 8 8 9 9 9 9 13 12 13 14 15 12 12 11 11 11 14 16
2 3 4 8 11 13 12 14 12 15 15 11 15 15 15 14 13 10 5 12 16 14 11 10 10 12 14 13 11 10 11 13 11 10 13 9 8 9 12 14 14 15 16 17
2 1 4 4 8 10 12 15 15 13 13 13 15 16 6 8 7 6 13 15 14 10 9 10 12 16 12 12 14 11 15 13 8 11 7 7 10 12 12 13 15 17 17 16
1 1 1 4 9 13 6 4 4 3 4 8 10 8 7 7 10 14 16 14 8 9 9 11 13 16 15 18 13 16 17 10 9 10 7 9 11 12 13 15 16 16 17 17
3 2 1 3 5 3 3 5 9 13 13 8 9 3 6 10 16 18 6 6 6 8 13 13 15 19 21 18 17 17 14 11 11 11 11 10 11 11 14 15 15 16 17 18
2 3 2 2 4 15 12 3 2 2 11 4 3 8 14 18 16 6 4 3 10 11 15 19 21 24 24 19 18 16 15 14 13 14 12 12 10 12 13 14 15 17 18 18
4 4 2 2 4 4 3 4 4 4 8 4 10 16 17 18 12 5 14 10 14 17 17 20 23 24 22 17 17 16 16 16 15 12 12 11 11 11 13 14 16 17 18 18
2 2 4 6 6 8 6 5 1 3 3 12 7 6 8 6 4 10 9 12 14 17 18 21 22 23 22 21 19 17 16 13 11 10 12 13 11 11 13 15 17 19 20 18
3 2 4 3 4 6 2 2 2 5 6 2 4 4 7 7 7 9 11 13 17 18 20 23 24 25 25 23 19 18 14 12 11 13 14 12 10 11 13 16 19 20 20 17
4 5 4 7 6 5 8 7 4 1 4 6 1 4 6 6 9 11 12 14 17 20 22 24 24 26 26 24 20 18 16 13 13 14 13 11 10 11 14 17 19 19 16 14
5 6 4 6 11 12 10 5 3 2 1 2 4 2 4 9 10 13 14 17 19 22 23 23 24 25 26 26 19 15 15 14 15 15 13 11 11 12 15 16 15 15 14 12
8 7 11 12 15 12 4 3 3 3 4 5 4 6 7 9 13 15 15 18 20 21 21 22 23 25 27 25 17 13 13 12 14 13 11 10 10 11 13 13 11 11 10 9
9 12 5 4 3 7 1 3 5 5 5 2 5 7 10 14 14 18 18 21 21 22 22 23 25 26 26 21 17 13 8 11 10 10 8 8 9 9 10 11 13 8 8 9

GFSCGP_925_spd_012.txt.gz
Wind_Speed
8 8 6 12 9 7 9 8 7 13 6 3 10 8 9 7 3 2 2 4 6 15 22 24 19 13 12 9 21 22 16 8 5 2 0 8 11 11 8 9 7 10 9 14
5 4 8 5 7 5 5 5 4 5 6 5 7 11 11 6 6 7 8 8 13 14 15 18 20 21 23 19 17 17 14 11 11 8 8 7 7 5 7 7 15 14 16 20
13 11 5 4 4 8 4 6 9 8 6 8 9 7 13 10 8 10 14 13 13 13 12 12 16 17 16 16 15 15 14 12 10 11 8 8 8 8 11 15 15 15 19 21
8 4 3 1 5 8 4 6 5 8 7 8 13 3 13 14 11 12 13 11 11 10 11 12 16 14 15 15 14 11 9 9 8 6 3 4 5 7 10 11 18 23 16 13
6 4 4 3 7 6 6 4 6 8 9 10 10 6 13 16 13 12 11 11 10 10 10 10 11 13 13 10 8 6 3 3 2 3 4 6 10 13 16 13 12 16 15 20
8 3 7 6 3 2 6 9 9 8 9 3 12 2 5 3 12 11 10 9 9 7 8 9 9 13 12 7 4 3 5 6 4 3 6 11 10 10 15 16 15 17 19 19
7 6 5 6 9 5 8 8 4 2 3 2 6 2 10 11 10 13 10 11 9 7 7 6 7 8 5 3 3 6 12 17 15 10 5 10 12 13 14 16 16 19 19 18
7 6 5 6 7 7 5 6 2 4 5 3 4 3 8 14 10 11 10 7 8 7 5 4 2 1 4 7 10 11 8 14 17 15 11 9 11 12 12 13 15 15 16 17
4 7 6 6 6 8 6 6 3 1 2 1 5 16 13 11 9 9 7 1 3 1 2 2 4 4 6 8 10 10 10 10 12 17 14 10 10 11 12 13 13 16 14 15
4 4 4 3 3 4 5 2 2 3 2 3 8 6 7 5 4 4 3 6 7 8 9 6 10 14 13 16 16 14 13 11 12 14 14 12 13 11 11 13 15 10 17 22
6 3 4 5 6 8 1 2 2 3 0 2 3 2 6 6 6 7 6 6 8 7 8 10 16 19 19 18 16 12 11 13 16 13 12 12 12 13 12 13 13 15 18 19
4 2 1 8 6 3 2 4 3 0 2 1 1 6 3 4 6 10 7 7 7 10 11 12 14 17 16 16 15 15 16 14 11 12 14 16 15 13 16 16 17 17 16 16
4 1 3 8 5 5 1 3 2 4 2 4 3 4 5 7 12 9 9 9 10 8 9 11 12 13 18 19 16 16 18 13 11 12 15 15 12 13 14 18 12 15 17 18
3 1 1 2 6 8 8 11 10 10 4 6 7 14 14 3 4 3 6 8 8 9 9 9 11 16 17 18 18 17 15 16 15 19 15 13 8 8 11 10 14 16 17 19
3 1 5 7 9 8 10 12 12 13 12 9 10 15 10 10 7 13 12 12 12 10 11 12 11 15 16 17 18 18 19 18 18 17 25 18 15 11 4 9 12 16 17 17
4 2 3 3 5 11 14 15 14 14 14 11 11 14 8 9 12 12 10 11 11 12 13 13 15 17 15 17 20 21 23 20 12 17 23 21 20 9 9 7 10 15 17 15
2 1 2 2 11 10 2 3 7 8 8 9 6 9 11 10 11 12 8 10 11 11 13 14 13 15 16 18 23 23 24 22 21 25 15 12 11 9 13 12 8 14 15 18
4 2 2 2 5 3 4 13 11 9 7 8 9 8 7 10 13 11 10 9 10 11 11 13 15 16 16 21 22 23 26 29 31 28 20 14 11 12 13 10 8 10 15 18
3 4 2 1 3 9 9 4 6 5 11 10 7 10 11 13 11 4 8 9 8 9 14 15 19 18 22 20 23 27 28 30 29 36 17 19 12 9 11 11 9 11 17 20
4 5 1 2 2 3 2 7 5 8 7 9 8 9 10 12 5 6 14 13 13 17 18 20 21 22 22 22 26 25 26 27 28 26 21 16 16 14 9 7 11 14 18 14
3 2 4 4 4 6 9 4 4 3 2 7 5 8 9 7 6 9 9 11 17 18 21 23 21 21 20 24 24 23 24 25 24 23 20 16 11 11 6 8 12 16 12 13
7 6 4 3 3 6 1 1 2 6 9 5 6 5 3 3 9 9 10 12 17 19 22 23 23 20 23 23 23 21 22 24 22 20 20 21 16 12 11 13 14 13 14 11
4 6 4 9 5 7 3 4 2 1 3 3 3 4 5 8 8 9 10 12 17 21 22 24 21 23 25 22 21 20 22 20 19 18 18 17 15 14 13 13 15 14 10 11
4 7 3 3 8 10 7 2 6 6 4 3 2 5 8 6 8 10 10 13 16 19 22 21 25 23 22 24 22 21 21 20 17 18 18 16 16 15 13 13 15 12 12 9
5 4 6 8 12 10 6 10 9 5 1 3 8 4 5 7 9 11 11 15 17 20 19 24 22 21 23 24 22 21 19 14 15 16 16 17 14 15 14 13 9 7 8 9
5 9 7 8 6 1 5 8 3 2 2 5 3 5 8 11 10 16 14 19 19 21 23 22 23 23 23 23 22 18 11 10 12 14 15 15 15 14 11 10 12 14 15 12

GFSCGP_925_spd_015.txt.gz
Wind_Speed
5 5 4 3 2 3 4 5 10 4 5 2 3 3 6 7 8 11 12 17 17 19 21 32 34 36 34 32 31 24 20 18 14 10 9 11 10 9 13 12 10 9 10 12
3 4 3 4 2 3 4 6 5 4 4 3 2 1 7 10 7 10 16 15 15 15 16 24 32 34 34 28 23 21 20 19 17 16 16 12 10 8 6 9 10 13 14 17
7 2 3 3 8 9 7 5 5 4 6 4 2 2 8 7 14 18 13 11 12 14 14 15 23 27 27 26 22 19 17 13 16 12 7 6 8 9 13 16 17 17 13 12
6 1 4 5 7 6 4 5 5 5 4 3 5 1 4 10 13 15 14 13 12 13 12 15 20 22 20 19 16 15 11 9 6 5 9 8 8 10 13 12 10 9 10 14
3 6 8 8 4 5 2 0 3 3 4 3 6 4 3 12 12 10 9 11 10 10 11 10 19 18 13 11 9 7 5 4 6 3 3 1 3 4 6 8 7 11 16 20
4 5 4 4 4 2 5 4 5 3 2 2 7 4 2 4 12 6 8 9 8 9 9 14 21 17 13 8 5 3 3 11 7 3 1 2 4 7 7 7 10 15 18 17
5 4 3 3 3 1 4 6 3 4 4 3 6 6 2 4 9 12 12 9 9 8 8 7 12 15 14 10 5 1 3 5 7 6 5 5 6 6 8 10 13 16 14 15
5 3 6 7 5 2 5 4 4 1 1 4 5 4 0 10 12 12 10 9 9 8 7 7 9 6 6 6 7 7 5 7 10 9 9 9 8 7 7 9 12 11 7 9
4 3 3 6 3 3 5 5 1 5 1 3 2 5 5 8 8 7 7 7 5 3 5 8 17 18 17 18 15 12 11 10 11 9 6 7 8 7 7 10 6 4 9 18
5 4 3 3 2 5 5 2 5 4 1 2 2 4 3 3 5 3 5 7 8 10 12 10 17 20 19 19 13 13 11 11 12 6 8 8 8 10 9 4 3 8 13 18
5 4 3 2 5 4 4 3 4 2 4 4 1 3 3 6 5 4 8 7 9 8 7 6 13 16 17 18 13 13 15 16 9 7 10 11 12 3 1 5 6 9 14 17
3 4 3 3 2 2 1 3 4 4 3 1 4 5 5 10 10 9 9 7 6 8 8 10 15 18 19 20 19 21 20 16 6 11 11 13 15 10 11 6 9 10 10 10
3 2 3 4 4 5 1 3 5 6 3 4 4 5 4 5 7 4 6 6 7 8 9 10 17 18 18 17 20 21 19 13 18 16 17 14 8 13 15 13 6 2 5 7
3 3 5 5 3 0 2 5 4 6 3 4 6 6 11 5 3 7 7 7 8 9 9 7 10 15 15 12 15 18 20 21 24 10 20 23 19 17 10 3 7 7 10 11
3 3 4 4 5 4 4 6 7 4 5 5 7 6 5 10 7 6 6 7 9 9 8 6 6 12 16 13 16 18 23 23 17 24 23 26 21 9 11 12 8 19 14 10
3 1 2 2 7 7 4 7 7 7 6 4 4 4 10 7 7 7 8 10 9 6 6 7 10 14 14 13 16 21 20 24 25 26 30 19 7 9 9 10 12 22 8 5
3 4 3 2 5 5 4 3 5 3 3 2 2 1 7 9 10 8 8 8 5 5 6 6 10 17 15 13 16 20 20 23 25 29 24 18 18 15 15 14 15 9 5 10
4 3 3 2 4 2 4 3 4 5 4 6 10 10 9 7 7 8 6 4 4 4 5 9 16 14 15 13 17 19 19 22 24 18 22 19 18 14 13 6 18 3 10 15
4 4 3 3 1 6 5 2 3 4 3 7 8 6 6 5 6 4 5 3 1 5 10 10 13 12 13 16 19 19 20 21 17 16 16 18 16 13 12 17 4 7 14 6
7 6 4 2 4 6 5 4 5 2 3 3 7 5 4 3 2 3 4 4 5 10 11 14 15 17 16 19 22 21 21 16 13 14 15 17 17 14 15 11 9 10 7 2
3 3 4 4 3 7 8 4 3 3 6 5 6 5 3 2 4 4 7 2 9 9 13 15 18 13 18 25 28 22 13 12 13 14 15 15 15 14 13 12 11 8 4 6
7 6 4 3 3 7 6 4 7 5 3 6 6 5 5 2 5 6 3 6 9 10 13 15 14 19 23 22 18 15 15 14 15 15 14 17 18 15 14 12 10 6 6 7
2 7 6 9 6 7 6 7 5 5 5 4 4 4 3 4 4 1 4 5 8 9 13 10 17 20 20 17 15 12 11 15 15 15 17 17 17 17 14 12 9 7 8 11
3 6 3 4 6 6 5 5 5 6 7 7 6 5 4 4 2 4 3 6 11 14 14 18 19 16 16 17 14 13 15 13 13 13 14 16 14 15 12 11 8 9 12 12
5 2 1 3 3 4 5 7 8 8 7 6 4 4 3 3 3 3 5 8 11 14 17 18 19 20 17 16 18 19 19 16 10 13 13 13 15 16 13 7 7 11 12 12
3 5 3 5 4 4 5 6 6 7 8 6 3 5 4 7 6 9 6 10 15 15 19 20 21 22 16 17 22 23 15 10 10 10 12 12 13 11 9 8 9 12 14 13

GFSCGP_925_spd_018.txt.gz
Wind_Speed
6 5 3 4 5 5 4 2 6 3 2 4 5 3 5 8 11 15 15 16 17 15 18 29 33 32 31 26 22 17 13 16 10 14 14 15 16 17 15 13 12 9 9 10
6 2 3 4 6 6 4 8 4 5 6 4 7 7 6 7 7 16 18 16 15 15 16 23 32 32 28 27 23 19 20 21 19 17 17 13 11 10 12 8 5 6 8 10
6 4 1 5 7 8 5 6 3 4 2 4 11 6 7 7 11 11 10 12 13 15 15 14 23 28 24 21 19 17 16 15 12 9 7 6 4 2 4 8 8 8 7 9
5 6 6 5 5 1 2 3 3 3 3 4 3 4 2 4 10 11 10 11 12 13 11 14 20 22 21 19 17 15 11 9 6 2 3 4 2 1 0 1 3 5 8 12
2 4 7 5 0 1 3 1 1 1 3 3 3 6 4 6 9 10 7 9 9 9 12 9 17 19 16 14 11 8 5 3 2 1 2 3 4 6 7 3 1 4 10 12
5 2 3 1 3 1 2 1 6 4 3 3 4 5 5 4 6 5 5 7 8 8 7 11 14 15 13 9 7 6 8 6 2 3 3 3 6 8 5 3 8 11 9 9
5 4 5 4 4 6 7 5 3 4 4 4 5 5 1 3 8 13 11 8 7 8 8 7 10 10 8 3 3 4 7 12 8 6 6 5 3 2 3 6 10 11 6 3
4 3 4 6 2 1 4 4 4 4 2 3 5 3 4 5 12 9 8 8 7 6 6 6 11 12 15 15 16 13 13 13 11 7 5 4 3 5 6 5 3 6 3 1
4 1 2 1 2 2 3 4 4 6 3 3 1 3 3 8 6 8 6 6 6 10 9 11 19 18 17 16 15 13 11 9 7 4 3 5 5 5 8 9 10 9 7 6
3 4 1 2 4 6 6 2 4 4 2 1 3 2 4 4 6 7 9 10 8 8 8 7 16 18 17 15 13 10 8 9 5 2 5 7 8 9 13 13 12 9 9 8
2 4 4 3 3 0 5 3 5 4 3 4 2 5 4 7 7 11 8 7 6 7 7 7 14 17 14 10 11 12 12 12 5 6 12 13 14 16 13 10 9 10 8 8
2 5 3 1 3 1 2 3 4 4 2 2 4 4 4 10 9 12 9 8 8 8 8 8 9 10 10 12 13 14 13 12 10 16 13 12 16 11 9 8 11 16 15 8
3 2 3 6 6 5 4 2 5 6 3 4 5 5 7 4 7 6 10 8 8 6 6 6 11 14 14 9 9 12 14 17 17 15 15 22 25 20 19 19 15 7 4 9
2 3 5 6 4 3 1 2 4 5 3 3 6 5 5 6 10 7 8 8 7 5 5 5 9 8 8 7 7 10 14 14 15 15 17 20 21 18 18 11 9 17 17 18
3 3 2 3 4 2 0 2 2 5 4 5 6 7 3 7 8 7 9 7 6 5 5 5 4 7 10 7 8 10 12 14 13 15 15 14 14 17 16 18 20 19 17 18
3 0 2 1 4 6 3 4 4 4 3 3 4 4 3 4 6 6 6 6 5 4 3 3 5 8 11 7 8 10 11 12 12 11 10 13 17 18 17 17 19 18 18 5
3 4 3 3 4 5 5 5 3 1 3 3 5 6 6 5 6 5 5 5 4 1 3 5 6 7 5 7 8 9 10 11 9 6 6 12 19 19 16 15 14 14 9 5
4 4 3 2 3 1 4 3 4 7 3 8 9 6 6 6 5 5 4 5 4 5 5 5 6 7 5 7 10 12 12 9 2 5 12 16 18 17 17 15 14 4 4 12
4 5 3 3 3 5 2 5 5 5 5 7 9 7 6 7 5 2 5 4 4 3 3 5 6 4 4 8 14 16 14 5 6 11 12 14 15 16 15 13 11 10 13 4
6 6 4 2 4 6 5 3 6 5 4 8 7 7 6 7 3 4 5 5 2 4 6 6 4 3 9 16 15 10 8 7 9 10 11 12 13 13 14 11 10 11 3 4
3 3 4 2 2 8 7 4 4 5 7 7 8 7 7 5 4 3 2 2 1 6 6 5 5 9 14 13 7 7 5 5 7 12 11 11 13 14 14 12 10 2 6 5
7 6 4 3 2 8 7 5 7 6 4 7 6 7 6 6 5 4 3 1 7 6 7 7 11 13 13 10 8 3 5 8 11 12 10 10 12 12 9 5 5 8 4 3
2 7 6 10 7 5 7 7 5 7 6 7 8 6 7 5 4 4 3 6 7 7 7 9 11 11 11 11 6 7 12 12 9 8 8 11 8 9 7 4 4 5 3 5
4 5 2 3 6 9 7 0 5 4 5 7 5 6 6 5 5 5 5 5 6 6 8 10 11 12 16 8 8 12 15 15 10 9 10 8 9 9 8 2 4 4 5 7
5 4 5 4 5 2 3 1 6 7 8 7 8 8 6 8 6 6 4 5 4 5 8 11 13 14 18 14 16 17 18 16 11 9 8 8 6 7 4 3 3 6 7 7
4 7 4 6 6 5 5 8 8 8 7 9 7 6 7 12 6 7 6 4 3 6 12 14 15 19 17 18 23 18 15 11 11 13 10 7 6 4 1 1 4 7 7 8

GFSCGP_925_spd_021.txt.gz
Wind_Speed
4 6 3 4 2 3 2 2 3 2 2 6 6 8 9 8 12 11 9 10 11 11 12 19 24 26 25 23 17 10 7 6 9 15 20 20 19 15 11 5 3 3 6 8
7 3 0 8 6 6 6 6 1 2 7 8 9 11 10 10 5 9 13 11 10 9 11 19 25 29 25 19 13 8 9 11 14 15 13 10 9 6 3 2 2 3 3 4
5 2 5 7 7 7 4 3 3 4 5 7 7 7 8 6 9 10 8 7 7 10 10 8 17 26 24 22 20 18 17 14 10 9 9 9 9 8 5 5 4 3 5 9
6 6 5 6 5 3 3 1 2 3 4 4 3 2 3 3 6 5 6 6 7 7 8 7 14 22 23 20 17 14 11 9 7 5 4 5 7 9 6 7 4 4 5 8
2 3 5 6 1 2 3 2 2 1 3 4 3 5 3 5 3 3 4 6 8 10 9 8 13 20 18 16 12 8 6 4 2 3 4 5 4 3 7 6 4 3 8 17
3 2 3 2 1 1 2 4 6 4 3 2 1 5 4 6 7 5 4 5 6 6 6 9 16 16 13 10 8 9 8 6 4 4 3 2 3 5 2 2 8 13 16 19
5 4 5 3 2 3 5 5 2 3 3 4 5 3 5 8 11 7 9 8 6 2 3 4 8 9 13 10 9 8 7 9 7 5 5 4 2 2 7 10 14 18 18 14
4 3 4 5 2 2 3 4 4 5 3 3 5 2 4 3 10 10 5 7 6 6 6 6 11 19 20 16 13 10 9 6 4 4 5 5 6 7 10 13 15 17 16 13
4 1 3 1 2 3 1 4 3 6 3 3 2 2 5 4 7 7 9 8 8 7 7 8 15 18 17 13 10 8 6 4 2 1 2 5 8 11 13 14 17 17 14 10
5 4 1 3 3 4 5 4 3 4 2 1 2 3 4 7 11 6 6 10 7 7 7 7 14 15 12 9 5 5 5 6 6 4 8 12 12 13 16 19 18 17 12 10
3 3 4 2 3 1 4 2 6 5 3 4 1 5 5 9 8 8 7 9 9 8 7 5 11 11 8 6 5 4 4 8 5 6 10 12 14 17 19 18 16 11 11 13
2 5 3 1 5 3 1 3 4 4 2 1 3 5 3 7 8 11 10 9 7 7 6 7 8 6 4 3 3 4 6 6 5 5 6 9 13 17 17 14 12 14 19 17
2 2 3 6 6 5 3 3 5 5 3 4 4 5 2 5 6 3 9 8 7 7 5 3 4 4 3 2 2 6 6 6 6 7 10 14 16 16 14 15 18 21 22 18
4 3 5 6 4 3 3 2 4 5 3 3 6 3 5 4 7 7 7 7 7 6 5 4 3 2 1 3 5 5 5 6 7 10 13 13 12 14 15 15 17 21 20 19
4 3 2 3 4 2 1 3 5 6 5 5 5 7 5 10 9 8 7 6 6 5 3 2 1 2 7 4 5 3 5 6 8 9 10 9 10 13 15 19 20 21 18 17
4 1 1 1 4 5 3 5 7 6 4 7 5 5 3 5 5 6 8 7 5 4 3 3 2 5 3 6 3 2 6 8 8 9 8 8 11 15 17 18 17 16 15 11
3 4 3 3 4 4 6 8 8 5 4 6 6 8 7 5 8 8 7 7 6 5 5 3 4 2 6 5 1 5 10 11 11 8 8 10 13 16 18 17 16 13 14 5
5 4 2 2 3 2 6 3 4 6 4 3 2 7 10 6 4 5 6 6 7 6 4 3 4 7 8 3 5 9 11 12 10 6 9 11 14 18 19 17 15 11 2 8
3 5 3 4 3 5 4 5 7 7 7 7 6 5 4 4 3 3 6 5 6 6 6 8 6 7 4 4 10 10 9 5 4 7 10 15 17 17 18 16 13 10 9 10
5 6 4 2 4 6 6 3 5 4 5 8 8 8 8 7 3 5 8 6 9 7 10 8 5 3 4 9 7 3 3 5 7 9 14 16 13 16 16 14 11 10 9 6
2 3 5 2 4 8 6 4 3 5 7 7 10 10 9 8 5 3 6 5 7 10 7 5 3 3 6 4 3 5 5 8 10 14 14 13 12 15 14 11 9 7 5 5
7 6 4 3 1 8 7 3 8 6 2 9 9 9 13 7 6 5 7 7 10 9 7 3 3 5 5 8 7 7 9 13 16 15 13 11 13 9 7 5 1 5 5 2
3 7 5 9 6 4 6 4 5 6 6 7 8 5 8 7 6 6 5 7 8 9 4 2 3 4 7 10 7 9 13 15 18 17 13 11 8 7 5 5 5 5 3 2
4 4 2 2 5 8 8 5 3 6 5 5 6 7 7 7 6 6 6 7 8 5 3 1 4 7 10 13 10 12 17 17 19 17 12 9 9 8 7 6 5 4 2 4
4 5 5 5 7 5 7 7 5 5 6 7 9 7 11 9 7 6 6 7 6 4 0 5 7 9 13 12 13 17 19 14 13 10 12 12 9 6 4 3 5 5 5 6
5 7 4 7 8 5 5 5 7 9 10 10 9 6 5 9 7 9 8 8 6 1 4 7 9 14 14 14 19 18 16 11 12 14 17 15 10 10 7 7 7 6 7 7

GFSCGP_925_spd_024.txt.gz
Wind_Speed
5 7 3 3 3 4 5 3 2 2 2 8 5 6 8 8 9 7 6 7 7 7 7 12 18 21 26 26 24 15 14 8 18 21 21 16 13 9 3 4 4 1 0 3
6 4 3 3 3 6 6 5 3 2 6 7 7 10 8 9 4 4 6 7 7 6 6 13 22 25 25 22 16 15 14 17 16 16 11 5 8 7 7 5 3 1 2 4
6 2 2 4 4 8 4 5 1 3 3 6 5 5 6 5 6 6 6 4 4 8 9 6 16 20 21 21 19 19 20 21 16 9 9 9 6 5 6 5 3 2 3 6
5 3 4 5 6 4 3 1 3 5 3 3 3 3 3 2 3 3 3 3 5 6 5 5 10 20 19 18 18 17 15 13 11 8 3 4 3 6 5 5 2 3 7 9
2 3 5 7 1 3 2 5 5 4 5 4 4 5 3 6 3 4 5 5 3 4 6 7 9 14 13 11 12 12 10 7 4 2 2 2 2 2 2 1 4 6 11 14
2 2 3 1 4 4 3 5 8 5 3 2 0 4 4 6 7 6 4 5 4 2 2 2 12 10 9 8 9 8 7 6 2 1 2 3 3 3 1 4 7 10 14 16
6 4 5 3 4 4 6 6 3 3 3 4 3 3 6 7 6 9 10 7 6 5 4 5 11 12 7 10 11 11 9 10 7 6 5 6 5 4 6 9 12 15 16 19
4 4 4 5 2 4 3 5 4 5 3 3 3 3 4 4 8 9 5 7 6 7 6 5 8 11 16 15 13 12 10 6 4 4 4 6 6 8 9 13 15 17 19 18
4 1 3 2 2 2 2 3 3 6 2 2 2 3 4 5 6 8 8 7 7 6 5 6 13 14 16 15 11 8 5 3 2 2 4 6 8 10 14 16 19 21 20 15
5 4 3 3 2 6 2 5 3 3 2 3 3 4 4 5 8 8 8 8 7 6 7 6 13 14 13 10 9 7 6 3 0 3 4 8 9 10 13 16 17 19 17 15
3 4 4 1 4 2 2 2 6 5 3 4 1 5 5 13 13 14 8 8 10 10 8 6 11 9 7 8 7 7 5 3 1 3 5 6 9 12 14 14 14 14 15 18
1 5 2 2 2 2 1 3 4 4 3 1 3 6 3 7 8 8 9 10 6 6 7 7 8 6 5 5 7 4 1 0 1 3 5 8 11 10 9 10 12 14 19 23
4 1 3 6 5 3 2 3 4 5 3 4 4 5 1 3 7 6 11 7 7 6 5 4 4 4 3 2 3 3 3 2 2 4 7 8 6 8 10 12 17 22 22 20
6 3 5 7 4 2 4 4 4 5 3 4 6 5 4 4 7 6 7 8 8 7 6 4 4 5 2 4 5 6 4 1 3 7 7 5 6 9 13 16 21 22 21 19
3 4 2 2 3 1 2 4 6 7 5 6 5 7 7 9 10 8 8 8 7 7 6 5 4 5 2 5 7 5 1 3 7 10 10 7 7 12 17 21 23 21 20 17
3 2 2 1 4 5 4 6 7 5 4 7 4 10 7 2 7 7 10 9 7 6 6 6 6 4 6 10 8 3 4 8 10 12 9 8 11 16 19 20 21 21 17 14
3 5 3 3 4 5 6 9 10 5 5 7 6 9 5 4 7 9 9 9 8 7 7 7 6 7 8 8 4 4 8 11 12 11 8 9 14 17 19 19 19 18 15 7
5 4 3 2 3 2 6 2 3 7 4 7 2 4 6 4 2 5 6 8 8 7 6 6 7 6 8 6 4 8 11 12 11 7 9 12 15 17 17 18 18 16 10 8
3 5 3 4 3 6 4 5 7 8 8 9 7 4 4 4 4 3 7 6 7 6 9 7 6 7 7 5 7 10 9 7 6 10 11 13 15 16 18 19 18 13 11 10
5 6 4 3 3 6 7 3 3 4 5 7 8 7 8 6 3 7 10 8 10 11 9 10 7 7 4 5 8 6 7 9 11 10 13 14 15 16 17 19 17 14 13 8
3 3 4 3 3 8 7 3 2 5 7 5 9 7 8 6 7 3 7 6 11 10 11 9 8 4 3 3 5 9 10 11 11 13 17 16 15 15 17 15 13 10 6 6
7 6 4 3 2 7 6 4 7 6 2 6 8 8 13 6 6 5 6 7 12 14 12 9 5 1 0 5 8 10 10 10 13 16 19 19 13 15 13 13 10 6 6 5
2 6 4 9 6 4 6 5 3 2 3 5 7 7 11 8 6 7 6 7 9 12 11 5 2 1 4 7 8 9 10 13 18 17 19 15 12 13 13 12 10 9 7 5
4 4 2 2 4 7 9 7 6 5 7 3 4 6 10 11 9 7 8 8 11 9 6 2 1 4 7 9 8 8 13 16 16 13 15 13 13 13 12 11 10 9 7 7
4 5 4 5 9 6 9 8 9 5 4 5 4 6 8 9 8 7 6 6 11 8 4 2 4 5 9 9 10 13 15 16 14 12 13 14 17 16 11 9 8 9 9 10
5 7 4 6 9 4 7 4 2 6 7 6 7 6 6 11 10 13 8 10 9 5 2 4 4 7 10 11 14 16 16 13 13 15 16 17 20 16 12 12 12 11 11 11

GFSCGP_925_spd_030.txt.gz
Wind_Speed
5 6 7 10 5 2 6 8 11 8 4 7 6 6 4 4 9 11 11 11 11 10 8 8 9 13 16 17 20 21 22 22 16 10 10 9 8 9 9 4 5 5 5 5
6 6 4 4 5 5 6 8 7 5 4 4 9 7 6 5 8 9 11 11 11 9 9 10 11 13 15 18 18 19 19 13 9 10 10 8 9 7 6 6 6 5 4 3
13 6 4 6 8 9 4 5 11 8 8 2 10 7 8 5 6 6 7 6 7 8 9 10 13 15 16 17 16 17 14 13 12 11 10 8 8 7 6 4 3 3 3 2
4 2 4 7 7 2 6 1 7 14 12 7 9 7 9 6 6 7 8 9 9 10 11 13 16 17 18 17 15 15 15 15 12 10 7 6 3 4 2 3 3 2 1 2
3 4 5 5 4 2 4 5 6 5 5 5 10 8 8 8 9 11 11 12 13 13 13 14 17 17 15 14 15 16 15 13 11 6 5 5 4 6 6 4 2 3 4 7
3 2 3 4 6 2 11 8 6 4 3 7 3 6 5 9 12 15 15 14 14 13 14 16 16 15 15 13 13 14 15 11 9 8 8 8 8 5 2 1 5 7 10 12
6 3 4 2 9 6 6 9 3 4 4 6 2 6 12 1 2 15 19 16 15 15 15 15 16 16 14 12 12 12 13 13 12 11 9 7 5 3 1 4 7 11 13 15
9 5 4 1 3 3 6 5 4 4 4 2 3 6 1 1 3 11 17 17 17 17 15 15 17 15 14 14 13 13 13 13 10 9 8 7 3 1 3 5 8 10 13 15
6 4 4 3 2 4 6 5 3 2 1 3 5 4 8 2 7 11 17 17 18 18 16 15 16 14 14 13 13 11 10 9 9 8 5 3 0 1 2 4 7 9 10 12
4 4 3 5 3 7 3 8 3 3 3 4 3 5 2 6 10 13 18 19 18 17 16 13 15 14 14 13 12 9 9 9 8 6 3 2 3 1 2 4 7 8 11 14
5 3 5 3 5 5 4 4 1 0 2 2 3 1 3 2 8 14 18 19 18 17 15 13 14 15 15 13 12 11 10 9 8 6 5 5 3 1 3 5 7 9 13 17
2 2 4 5 3 2 2 4 7 4 4 1 2 3 3 1 3 10 14 16 16 16 14 13 17 18 16 15 13 12 10 10 9 7 7 4 2 4 5 6 8 11 16 18
6 4 4 5 4 5 7 8 5 4 1 6 3 2 3 3 5 8 12 15 13 14 14 14 18 18 17 15 14 12 11 10 9 9 6 4 5 7 7 8 10 14 17 17
3 3 6 8 1 1 6 11 11 10 4 4 9 9 7 7 7 7 11 14 16 16 16 16 16 18 17 16 15 14 12 12 10 7 5 6 8 8 8 9 12 15 16 15
3 6 4 1 1 3 4 7 13 16 13 7 8 11 9 5 8 8 9 12 15 16 17 17 16 17 17 17 16 14 11 11 8 5 6 8 8 8 8 10 14 15 14 14
2 3 2 3 2 2 7 9 11 15 15 15 18 19 15 9 7 7 10 13 16 17 17 17 16 18 18 17 15 13 13 10 5 5 8 8 8 8 9 12 14 13 14 13
4 5 4 2 2 3 7 15 17 12 12 14 14 16 3 5 8 8 10 13 15 16 17 17 16 18 17 15 14 14 12 7 6 8 8 7 7 9 11 13 13 13 13 12
5 5 1 1 2 3 1 1 3 13 16 15 18 13 8 4 2 4 7 11 14 15 16 15 17 15 14 12 13 11 8 7 7 7 7 7 9 11 12 12 13 14 13 12
1 4 3 2 4 6 11 3 3 4 6 5 12 12 5 4 4 10 9 10 11 13 15 17 14 15 13 13 11 8 6 6 6 8 9 10 11 13 13 13 13 14 11 13
4 3 1 3 3 4 3 3 1 2 5 6 4 5 8 7 4 5 5 8 8 12 15 13 14 15 15 13 8 4 7 7 9 10 10 10 12 14 15 14 13 12 11 12
2 1 3 3 4 6 1 2 3 3 3 7 5 5 9 7 5 2 2 8 12 14 15 17 17 17 15 8 8 8 6 8 9 8 10 12 14 15 15 14 14 12 12 10
5 6 3 3 3 4 6 6 3 4 4 6 6 5 9 6 5 3 3 10 13 17 18 16 17 14 5 9 7 5 6 5 6 8 12 14 14 14 13 12 14 13 12 11
3 3 1 6 1 3 7 6 4 5 7 8 7 6 8 10 7 5 6 10 13 16 17 13 13 11 12 6 3 4 4 4 8 11 13 13 12 12 12 13 15 16 12 11
4 4 3 1 1 6 7 8 10 9 11 12 11 10 10 12 7 7 10 11 15 16 15 14 9 8 5 4 3 5 4 7 9 12 13 13 12 13 14 14 16 16 13 12
2 7 4 4 10 6 5 3 5 9 9 9 8 7 9 8 6 9 11 12 14 13 8 6 7 4 3 2 4 5 6 8 11 12 11 11 11 13 14 15 16 14 14 13
2 2 2 3 7 5 7 10 10 10 10 11 9 5 5 1 7 10 10 12 12 9 7 4 1 2 3 4 6 7 8 8 10 11 10 10 13 13 15 16 15 14 15 16

GFSCGP_925_spd_033.txt.gz
Wind_Speed
11 9 11 13 6 6 8 8 9 13 4 8 10 9 8 11 13 14 14 14 14 14 13 11 12 12 15 18 18 19 20 18 16 9 7 7 7 8 6 6 5 5 5 4
6 10 6 8 9 10 9 11 7 5 8 7 9 8 8 10 13 16 15 15 15 15 12 13 13 15 16 17 18 19 17 16 13 8 10 9 10 9 7 6 7 6 5 3
6 17 6 5 9 10 7 4 7 10 11 13 9 13 13 10 10 10 15 16 15 16 14 12 15 16 16 16 18 19 17 17 13 13 12 11 9 7 7 7 5 5 3 2
5 4 8 6 12 7 8 1 5 5 14 13 17 11 16 15 13 13 13 13 13 12 12 14 16 15 17 17 17 17 19 17 14 14 13 12 11 8 6 4 4 4 3 3
2 12 10 8 2 5 9 4 7 10 14 11 18 9 14 17 15 16 16 15 14 12 14 15 18 21 21 21 20 17 15 16 15 12 10 8 5 2 3 3 3 4 6 7
12 2 4 7 3 2 6 5 7 8 11 8 15 12 6 15 14 15 14 14 14 15 15 16 19 20 18 16 16 17 17 15 13 11 8 6 7 4 4 4 5 6 7 10
10 8 4 4 7 4 7 8 7 6 5 9 3 5 11 1 2 10 15 15 15 15 16 16 17 19 19 17 16 17 16 14 12 11 10 9 8 5 4 4 5 6 9 10
12 8 10 6 6 5 9 11 7 7 7 8 7 7 2 9 3 4 15 15 15 15 15 16 18 18 18 17 17 17 15 14 13 12 10 8 6 4 2 3 5 6 8 10
10 5 6 1 3 6 4 8 5 4 1 5 10 10 9 5 5 8 15 16 16 17 16 17 19 18 17 18 17 17 17 16 14 12 10 8 5 3 4 4 4 6 7 9
2 2 3 5 4 5 8 2 4 5 3 6 3 6 6 5 6 8 14 16 16 17 17 16 18 18 18 17 16 16 16 15 14 13 10 6 4 6 5 5 5 6 7 10
5 7 7 4 10 11 7 9 6 4 3 3 4 3 7 3 5 9 12 15 16 17 17 15 17 19 18 18 18 18 17 17 15 12 8 6 6 7 7 6 5 6 8 12
3 4 5 13 5 5 9 8 9 5 5 3 3 4 5 4 2 8 10 13 15 17 17 16 19 19 19 19 20 20 18 17 14 10 8 7 9 8 8 7 7 8 11 13
6 7 8 7 7 8 8 9 8 4 1 8 3 3 6 6 4 5 9 12 15 17 18 15 17 18 20 20 20 19 18 16 13 9 9 9 10 9 9 9 9 10 13 15
1 11 9 9 6 3 8 11 11 11 6 8 10 12 7 9 7 7 7 10 15 16 16 15 14 18 20 21 21 19 18 15 11 10 8 12 8 9 10 10 10 12 14 15
4 9 13 14 5 6 8 8 11 16 15 13 12 13 10 9 6 7 7 9 12 13 14 15 15 16 21 20 20 19 17 12 11 10 12 10 9 9 10 10 11 13 14 14
5 5 3 6 8 7 10 11 13 14 16 17 17 17 15 10 9 6 9 8 11 13 14 15 16 18 20 20 20 19 14 13 12 12 11 9 9 10 10 11 12 14 14 15
5 4 4 5 3 5 6 15 17 17 17 12 15 15 9 8 6 8 7 6 9 10 12 15 15 18 18 19 19 16 16 13 11 11 9 9 9 9 10 12 14 14 15 15
5 6 1 0 2 1 2 2 4 6 12 14 13 14 12 7 7 6 5 7 7 9 11 12 14 17 17 17 15 16 13 9 11 9 8 8 9 10 11 13 15 15 15 16
4 5 2 2 6 9 11 5 1 2 4 9 8 10 11 6 5 13 8 3 6 7 8 11 15 16 15 14 15 14 12 10 7 8 8 8 10 12 13 15 16 16 16 16
4 1 4 3 3 4 4 4 1 2 5 7 9 10 10 3 5 2 4 2 4 6 8 11 13 12 14 15 14 13 9 6 6 7 9 10 11 12 15 16 17 16 16 17
3 1 5 5 3 6 5 3 2 5 3 8 10 9 8 7 4 7 8 4 7 7 9 9 10 12 14 11 6 2 2 4 6 7 9 11 12 14 15 16 16 15 16 15
6 7 3 3 2 5 6 6 2 5 7 8 9 9 8 10 9 7 8 7 5 4 6 9 10 11 10 7 5 1 6 2 3 7 10 12 14 15 15 15 15 16 17 15
4 4 1 6 1 5 4 4 4 5 7 8 10 10 10 10 12 12 7 6 1 4 8 8 13 10 7 4 1 3 2 3 5 8 11 14 15 14 14 16 17 17 16 14
3 2 2 1 3 1 3 3 3 7 8 11 11 11 11 12 11 10 2 1 3 8 13 12 10 7 3 1 3 5 4 5 8 10 13 13 14 14 15 16 19 14 12 15
3 6 4 5 8 4 1 7 9 10 9 10 11 10 9 11 9 4 5 8 14 15 14 12 8 3 5 5 5 5 6 8 11 12 12 12 13 14 16 18 17 13 13 14
2 1 3 3 5 4 7 11 9 8 10 10 10 10 12 11 11 16 13 18 16 14 10 9 5 3 5 6 7 8 8 9 10 11 11 11 12 15 17 17 17 15 15 17

GFSCGP_925_spd_036.txt.gz
Wind_Speed
13 8 11 3 4 12 8 12 11 10 7 11 15 16 16 13 14 13 12 12 12 13 13 13 10 14 17 28 25 24 21 16 18 12 8 5 7 10 10 9 9 7 6 6
9 8 4 7 12 8 10 13 5 7 5 6 11 10 15 14 15 15 13 14 14 13 12 14 14 14 17 26 25 26 24 19 16 14 9 10 12 11 10 11 9 9 8 6
8 8 0 9 8 12 14 5 6 11 7 7 11 10 13 12 14 15 15 16 15 17 16 13 13 13 13 22 27 26 22 16 18 16 15 15 14 13 13 11 10 10 8 5
4 11 9 8 12 14 8 12 9 13 8 8 7 7 5 11 12 14 15 13 14 16 15 15 15 17 18 20 23 23 21 20 22 19 17 18 16 15 16 15 16 13 9 5
10 13 15 6 6 15 3 12 13 8 8 3 9 8 18 10 14 17 13 13 15 16 16 16 17 18 15 19 19 21 24 26 20 17 17 17 10 14 10 10 10 7 5 7
12 6 11 2 10 13 10 9 10 9 6 3 19 13 7 13 17 14 15 14 12 9 9 10 17 18 20 22 26 27 24 20 17 14 9 12 10 11 12 9 8 4 3 3
11 19 12 13 12 7 9 9 2 8 6 5 11 5 7 19 18 23 23 13 11 8 10 11 14 21 24 24 20 20 18 18 17 14 10 9 10 8 7 5 2 2 4 4
9 3 6 11 11 6 18 10 2 1 2 11 3 5 4 11 7 7 14 11 11 11 10 11 13 16 18 17 17 20 19 19 17 14 13 12 12 9 7 7 3 3 5 5
3 7 13 9 3 3 7 2 4 9 6 3 6 16 8 7 7 7 13 12 13 12 13 13 16 19 19 18 18 19 20 19 19 17 15 13 11 9 8 4 5 3 4 5
5 7 18 12 5 5 5 7 3 2 2 5 7 8 8 6 7 5 12 13 12 12 13 13 16 18 21 20 21 19 18 20 21 19 15 12 11 8 6 5 5 5 5 5
11 17 10 6 8 8 5 6 5 6 4 1 4 4 6 8 6 5 6 14 13 14 13 13 15 20 19 20 19 18 18 18 20 18 16 14 10 12 9 10 8 6 6 7
10 4 3 9 3 5 7 10 11 3 5 2 1 5 5 5 5 5 6 8 13 13 14 14 16 19 18 18 17 17 17 16 18 18 17 15 12 10 14 7 8 7 6 8
1 3 5 10 6 8 8 11 10 6 3 4 3 3 5 4 1 3 4 6 8 11 13 13 15 17 19 18 19 18 18 17 18 18 14 10 14 11 9 10 6 7 7 8
4 4 9 7 10 4 13 11 10 10 3 4 8 11 7 9 8 6 7 3 5 10 11 12 11 15 20 19 19 19 20 17 16 13 12 14 5 16 4 6 6 6 8 9
2 8 11 14 16 2 10 9 7 11 11 11 10 13 11 10 9 7 4 3 6 8 11 10 8 7 16 17 18 19 20 18 16 12 7 7 11 5 7 6 7 8 9 11
5 5 4 8 10 10 12 14 13 14 13 13 14 13 10 6 7 8 8 6 5 5 6 4 4 6 11 16 18 18 16 18 14 9 10 8 12 1 6 6 7 10 12 13
7 3 2 2 6 7 5 10 16 15 14 10 11 9 7 12 9 7 3 6 1 6 6 3 6 7 10 13 19 16 16 16 11 11 12 5 5 8 6 6 9 11 13 12
5 5 2 1 2 1 7 4 5 5 7 9 8 11 13 12 11 7 6 4 5 0 3 5 4 7 9 8 14 13 15 12 10 2 3 7 6 6 7 8 12 13 15 13
3 4 2 3 4 7 10 1 2 2 5 11 10 10 10 9 8 10 1 8 7 8 7 7 6 1 5 9 15 14 12 11 5 7 3 8 4 7 12 12 12 13 14 14
2 3 3 3 2 4 2 5 3 2 2 8 9 8 9 10 4 6 10 6 5 7 7 8 3 4 13 16 13 15 10 9 12 12 13 13 8 11 13 16 15 14 14 14
2 0 4 3 1 6 6 5 1 2 3 4 5 7 8 7 5 4 7 9 11 9 18 20 21 23 25 22 17 20 19 16 10 5 9 15 14 14 15 18 13 13 15 17
6 6 3 2 2 5 6 5 2 4 5 8 7 7 6 6 8 10 7 5 9 15 17 17 28 27 25 23 20 17 14 8 8 14 10 12 14 15 15 17 16 16 18 19
3 4 3 7 3 5 3 4 5 6 4 5 7 8 9 9 9 10 7 9 10 17 25 24 22 21 19 17 15 11 5 5 5 8 11 13 15 15 15 16 16 14 18 17
4 4 2 2 2 5 5 3 10 10 8 8 8 9 10 10 9 7 10 12 19 22 21 19 19 17 15 12 9 3 3 7 8 11 13 14 14 14 15 17 17 18 18 10
2 7 5 5 3 3 14 13 10 7 10 10 10 15 13 9 16 19 16 17 21 20 19 17 14 10 5 4 4 7 8 8 10 13 13 14 14 15 15 16 17 16 16 13
4 1 3 1 8 3 11 10 10 11 12 11 13 16 18 19 17 21 15 18 16 13 10 7 5 2 3 5 8 9 10 11 12 13 14 14 14 15 16 17 18 15 18 20

GFSCGP_925_spd_039.txt.gz
Wind_Speed
6 3 0 4 3 4 1 6 11 5 8 7 11 6 10 10 7 9 9 9 9 13 15 27 32 35 39 38 37 35 34 29 28 24 19 16 16 14 15 13 15 12 11 11
6 7 7 9 7 5 7 14 7 8 4 6 9 8 10 11 8 12 12 11 11 8 9 14 24 28 35 39 35 38 37 33 28 22 16 13 15 14 16 14 13 11 9 10
4 7 10 6 6 12 14 5 14 6 3 2 5 4 5 8 6 7 11 14 16 16 12 8 12 26 31 35 36 36 33 27 25 20 17 16 15 16 17 15 15 12 12 10
5 4 8 8 9 11 8 4 5 9 2 3 3 2 2 5 10 8 10 13 15 14 14 13 15 21 27 28 36 35 30 23 23 24 24 25 23 23 22 18 18 17 14 10
7 2 5 4 11 3 7 6 5 5 4 4 2 4 7 3 3 4 7 9 12 15 16 15 16 23 30 31 33 30 25 22 23 22 27 25 25 23 23 20 21 17 13 8
5 4 6 5 8 4 8 3 4 6 3 2 6 5 4 9 17 6 11 6 9 9 17 15 20 25 28 30 29 26 26 23 23 22 26 24 21 23 26 25 20 16 10 9
4 8 4 3 6 10 4 4 3 5 5 5 9 3 13 13 8 13 18 14 7 9 13 14 15 19 26 26 27 25 25 24 23 21 21 19 26 23 22 22 19 18 14 10
6 7 2 3 10 3 4 5 4 5 2 4 10 4 4 13 7 10 10 5 5 9 9 15 17 20 23 24 23 26 26 29 26 21 18 17 18 20 19 18 15 11 7 4
3 1 3 9 6 2 1 3 5 6 4 4 5 4 5 8 5 6 5 5 8 8 8 9 12 22 25 24 25 26 30 30 26 22 19 18 17 16 15 11 7 7 5 5
4 3 3 12 10 9 4 3 4 3 4 4 3 3 4 4 6 9 10 9 8 8 8 8 12 21 24 21 19 18 20 26 24 22 22 21 18 15 9 9 7 4 5 5
6 4 5 5 6 10 1 2 3 3 4 4 0 4 1 6 8 9 9 12 12 10 9 9 12 25 28 25 21 19 14 23 25 25 23 19 16 10 11 7 6 6 7 7
8 5 4 18 17 9 5 5 2 4 4 2 5 5 2 5 7 8 8 11 11 13 12 11 16 24 28 31 29 28 21 20 27 25 21 19 15 13 6 7 7 8 13 9
3 2 3 3 3 4 3 4 4 3 3 4 5 5 4 5 2 6 7 8 9 10 10 11 13 19 24 28 33 31 23 25 25 23 22 18 14 9 8 4 13 13 11 8
4 1 6 6 6 2 5 5 5 5 4 3 5 5 12 7 7 6 7 5 8 10 14 13 13 17 26 26 26 31 28 23 26 26 22 15 11 9 2 4 3 12 6 5
4 4 1 5 5 3 4 5 6 4 6 7 8 7 13 3 6 6 4 2 2 5 4 7 11 7 20 25 25 27 26 25 29 24 16 15 9 8 1 10 12 6 10 11
1 2 3 2 6 7 3 5 8 6 5 1 4 6 4 4 6 7 7 7 7 8 8 8 8 9 15 22 27 27 28 28 27 24 20 14 5 2 3 4 12 8 9 12
6 4 3 2 4 6 6 6 6 6 4 3 4 4 8 10 9 6 6 8 6 6 7 7 5 10 19 26 28 24 27 30 24 19 13 9 13 3 10 7 6 7 14 18
6 5 3 3 3 1 9 1 5 6 6 8 9 7 7 6 9 12 9 9 9 9 9 8 8 4 10 20 24 29 29 24 22 20 14 9 10 9 7 11 14 16 18 17
4 5 2 4 4 5 6 2 2 4 4 6 8 8 7 7 6 8 9 7 7 7 7 12 20 24 25 26 27 28 28 24 21 20 19 16 13 14 15 14 15 19 22 23
7 5 5 2 4 6 6 3 4 3 2 4 8 8 8 8 5 3 5 7 12 25 26 27 27 30 30 27 33 35 28 27 26 20 15 13 11 9 10 17 17 21 15 16
3 3 5 2 2 7 5 5 0 6 5 4 7 6 7 4 4 4 5 12 26 25 26 29 33 30 26 28 32 28 26 25 18 13 8 3 6 12 13 17 13 15 18 20
6 6 3 4 3 5 6 3 6 6 3 7 6 5 6 6 9 9 14 16 21 23 26 26 28 26 24 25 27 22 20 13 8 1 6 7 9 11 13 16 17 18 19 21
2 6 6 7 6 6 4 9 6 9 7 5 7 8 8 8 10 16 15 16 20 22 23 23 23 21 20 20 17 14 5 4 1 4 8 12 13 12 15 16 17 18 19 22
2 4 3 5 3 5 12 10 9 11 13 14 12 8 12 15 14 14 13 13 17 19 19 19 18 15 11 9 10 9 5 3 6 10 13 13 14 15 18 19 17 18 20 15
5 4 5 3 10 14 10 7 11 12 16 16 16 14 13 16 13 12 11 12 14 13 13 13 14 13 11 8 6 5 5 8 13 13 14 15 18 18 19 19 20 19 19 17
1 4 4 4 4 10 6 10 13 16 14 12 15 14 14 15 11 12 9 11 13 14 14 14 10 7 6 6 9 11 11 13 13 13 19 20 20 20 22 23 24 19 18 23

GFSCGP_925_spd_042.txt.gz
Wind_Speed
3 5 3 4 4 4 4 1 4 7 8 6 9 7 9 9 9 9 10 10 14 17 22 31 33 35 37 37 39 35 35 34 32 29 25 20 17 12 11 12 14 15 15 13
3 2 6 5 7 5 3 7 10 9 5 7 6 7 6 9 11 17 15 13 14 12 15 22 28 30 34 35 38 37 36 35 33 30 28 20 15 12 10 13 16 15 14 13
6 6 1 3 5 4 6 3 8 8 2 1 6 6 4 5 5 7 12 18 16 19 20 16 24 30 31 30 39 41 39 37 33 29 23 13 11 10 14 16 17 19 19 18
4 3 4 4 3 4 5 10 16 6 5 2 3 4 4 5 8 11 9 10 14 14 16 17 24 27 31 34 40 42 40 37 32 26 21 20 23 22 24 27 24 22 20 17
7 3 3 1 6 1 7 1 6 3 3 3 3 4 6 5 6 10 12 15 15 17 19 18 24 36 37 38 41 40 38 35 28 29 26 29 29 29 27 27 26 23 19 15
4 1 4 7 5 2 4 4 6 4 2 1 1 2 4 5 16 14 6 12 11 12 14 15 18 25 27 32 38 40 35 33 30 35 28 34 32 31 27 29 28 24 19 15
2 4 2 1 5 4 3 5 3 5 4 5 5 4 8 6 8 9 10 9 11 11 10 9 12 21 25 32 35 35 37 33 30 31 28 34 34 32 32 32 29 24 18 16
6 2 3 3 3 3 2 5 5 4 2 4 3 4 5 8 8 7 1 7 8 10 13 13 15 21 27 29 29 30 35 29 25 27 26 35 31 30 27 28 24 21 18 12
4 4 4 3 3 2 2 3 4 6 3 3 4 5 5 5 6 4 6 6 7 8 10 14 15 21 24 26 31 33 28 26 24 24 24 25 25 23 22 21 18 18 14 13
7 2 3 4 3 6 6 3 2 3 3 3 4 4 4 1 3 2 4 7 7 7 8 7 11 20 24 30 29 28 27 27 27 28 27 24 24 24 21 17 16 12 11 9
5 4 4 3 7 9 1 2 1 4 4 4 1 5 5 8 8 8 8 8 10 10 12 12 12 22 29 28 25 24 26 29 32 29 25 27 27 24 19 16 12 12 6 2
7 5 4 8 6 5 1 4 5 4 4 1 4 5 4 8 8 8 9 7 7 10 12 13 18 25 28 32 31 31 33 36 34 33 33 32 28 22 18 13 13 6 5 7
7 1 2 6 6 2 5 5 4 4 3 6 5 5 3 3 4 8 10 10 10 9 8 9 10 18 26 29 35 35 35 36 36 35 32 27 23 21 17 17 13 5 7 12
8 5 7 7 7 4 3 2 1 5 3 4 6 5 7 7 7 6 6 7 8 9 11 11 10 15 22 25 25 23 29 32 33 33 32 29 25 22 20 15 11 7 8 11
4 5 5 5 4 2 3 5 3 5 4 5 9 8 8 3 3 4 7 3 4 3 3 5 4 4 14 15 16 22 27 31 35 34 32 27 21 17 13 10 9 6 4 6
2 3 2 2 3 2 2 4 4 5 3 5 5 2 6 5 5 8 6 8 8 6 5 4 6 10 16 22 25 24 27 27 26 25 21 22 19 14 11 9 7 5 1 3
6 5 3 4 3 3 5 7 7 5 3 5 5 5 2 7 7 5 6 8 8 7 7 5 4 8 17 22 27 24 23 26 27 26 22 19 17 17 12 8 7 7 6 15
6 5 3 3 3 2 7 4 5 9 5 7 8 5 6 9 5 8 6 6 7 7 8 9 11 15 13 17 22 27 29 29 28 26 23 19 18 16 13 9 1 9 14 18
5 5 3 4 3 4 5 5 6 6 1 1 7 5 6 6 6 7 7 10 8 10 11 15 19 22 27 26 28 32 30 29 27 24 23 21 20 14 3 10 16 16 16 19
7 4 4 3 4 7 7 3 5 5 2 5 7 5 4 4 3 0 6 9 11 17 16 19 22 28 30 26 30 32 26 26 24 22 17 10 6 10 11 11 13 15 16 14
3 3 5 2 3 7 7 6 3 6 6 6 7 7 5 4 3 10 10 13 17 18 20 23 27 27 25 27 30 27 23 20 14 9 10 12 7 8 9 10 12 15 17 17
7 6 3 3 3 6 6 4 7 6 4 7 6 6 9 10 13 13 12 12 14 17 20 21 24 23 24 22 21 18 12 5 3 3 2 2 5 9 12 11 14 15 16 17
1 7 6 8 5 3 3 5 5 7 8 4 8 6 13 12 11 11 11 11 13 16 17 18 19 17 16 13 12 11 9 6 3 2 5 9 10 10 12 12 15 18 18 18
2 4 4 5 5 5 7 8 7 7 10 7 7 9 13 15 12 13 11 9 11 12 12 13 17 17 15 13 11 9 5 4 7 10 12 12 13 14 18 18 19 19 20 22
5 7 6 4 1 9 8 6 11 13 12 14 12 12 13 15 12 10 8 10 13 14 15 17 16 13 11 10 10 11 11 11 12 13 15 16 17 21 21 22 23 24 26 24
4 7 5 5 11 5 4 4 8 13 11 11 15 12 12 14 12 15 10 14 15 13 15 14 14 14 13 14 14 14 14 15 15 17 20 24 27 27 27 28 32 31 30 29

GFSCGP_925_spd_045.txt.gz
Wind_Speed
3 4 2 5 3 5 4 3 5 6 4 6 7 5 7 8 8 8 8 9 12 15 19 23 26 26 25 26 27 33 34 34 35 32 31 27 24 20 17 15 15 17 18 17
4 2 7 5 4 3 3 1 3 6 5 6 3 8 3 7 6 13 12 9 12 13 12 20 25 26 30 33 32 35 36 36 36 36 33 27 25 21 17 16 16 18 18 19
5 4 2 4 2 2 1 1 5 3 6 2 4 5 5 5 4 6 9 12 11 16 17 17 24 30 30 33 40 41 39 40 39 36 30 20 22 15 16 17 20 21 19 18
4 3 2 3 3 3 1 3 6 5 2 4 4 4 5 6 11 13 15 14 15 16 17 17 22 26 32 41 43 44 44 42 41 37 34 28 27 18 18 22 23 20 18 16
7 7 4 3 5 4 5 1 4 2 5 2 0 2 7 2 7 12 17 16 16 17 18 19 24 34 36 31 35 34 35 39 40 37 33 26 23 20 17 21 22 20 18 16
4 1 4 5 4 6 3 2 6 4 3 2 3 4 5 4 11 12 5 14 16 16 16 14 22 20 24 30 32 34 37 40 38 35 33 29 25 24 20 21 21 20 19 15
2 3 2 3 3 2 4 5 3 4 3 5 1 1 8 6 8 8 12 16 14 15 12 11 13 19 23 29 32 34 34 34 38 36 35 33 30 29 23 24 26 24 22 18
5 5 6 3 3 5 2 5 4 3 2 4 2 4 5 5 8 3 8 7 6 11 14 13 16 24 26 28 31 31 30 29 35 37 33 32 29 29 28 26 29 30 26 23
5 5 1 2 2 5 2 2 3 6 2 3 3 6 9 7 5 6 4 5 8 10 14 16 15 21 23 27 32 35 31 32 34 36 30 31 30 28 28 25 25 23 23 19
7 1 3 2 2 3 5 4 1 3 1 2 4 4 5 6 5 2 4 6 6 5 7 8 12 19 23 26 32 30 34 35 34 29 30 31 29 27 22 21 26 27 22 15
5 5 4 2 5 7 2 2 3 4 4 4 1 5 6 7 5 5 3 6 8 9 9 11 12 21 25 26 29 33 33 33 30 31 30 27 30 29 28 30 32 31 24 22
7 6 5 9 3 1 3 5 5 4 4 1 4 6 3 6 7 5 8 7 7 6 11 10 13 19 24 29 31 35 34 33 33 34 30 32 31 31 34 32 28 26 24 23
8 1 2 7 4 2 4 4 4 4 3 6 5 6 3 4 4 7 9 7 8 7 4 3 5 12 20 25 27 29 31 31 33 32 33 32 32 33 31 28 25 24 17 11
7 4 8 9 9 4 3 4 4 5 3 4 6 6 5 7 6 7 8 7 6 6 6 5 4 7 15 17 18 21 21 26 30 31 30 28 28 26 23 23 25 16 12 9
6 4 4 4 4 3 4 4 7 6 6 6 8 7 5 5 5 6 6 4 4 4 7 7 6 6 8 8 12 16 21 24 27 27 25 25 24 21 18 18 12 8 11 9
3 4 3 2 3 4 4 6 6 6 3 6 5 5 3 4 4 7 8 7 7 6 6 1 6 6 12 15 16 18 21 23 25 25 23 22 19 19 17 16 17 14 12 6
5 6 4 4 2 2 5 8 8 6 5 6 6 8 3 3 6 5 6 7 7 7 8 8 7 6 5 8 14 19 22 22 22 23 22 23 22 23 20 16 11 7 8 13
7 6 3 3 3 3 7 3 4 5 2 4 5 6 4 6 5 6 6 5 7 7 8 8 10 14 15 16 19 23 24 25 26 25 26 25 25 22 13 7 11 10 12 13
3 5 3 5 4 5 3 3 7 6 2 3 7 8 7 6 5 7 9 9 8 7 9 12 15 18 23 24 26 30 29 29 29 25 25 21 12 7 6 5 8 11 13 15
6 6 5 3 5 7 8 4 5 6 2 5 5 7 9 3 3 3 5 7 8 13 13 15 18 22 26 23 27 33 29 31 27 20 12 6 10 11 6 6 8 12 13 14
3 3 6 3 3 7 7 5 5 6 7 8 7 7 6 4 2 7 8 9 13 14 17 21 24 24 24 26 29 29 25 19 11 5 5 7 4 4 6 8 11 13 15 17
7 7 4 3 3 6 5 4 8 6 3 7 6 5 6 10 10 10 9 8 11 13 17 19 21 21 18 18 21 18 16 8 7 5 4 4 5 8 10 11 13 15 17 20
3 7 6 8 6 3 3 4 1 4 9 5 7 6 13 13 8 10 9 8 10 13 17 18 20 21 21 18 17 17 12 8 7 6 7 9 9 11 12 14 17 20 20 23
2 3 4 4 1 1 3 3 3 4 5 7 8 14 11 15 12 12 10 8 11 14 16 18 19 17 18 16 16 12 8 7 8 9 11 14 16 18 20 22 21 23 24 27
5 7 7 3 2 3 5 3 5 9 10 14 11 9 14 16 12 12 10 9 13 15 15 17 17 17 15 15 16 13 13 10 11 11 14 16 18 20 24 25 24 25 28 28
5 7 6 5 12 5 5 7 7 10 9 10 16 12 10 15 14 16 9 14 16 15 17 18 19 19 15 16 17 17 17 16 16 18 20 22 25 27 26 27 30 25 28 32

GFSCGP_925_spd_048.txt.gz
Wind_Speed
3 4 3 7 5 3 2 3 5 3 5 4 6 6 8 6 5 8 10 10 11 13 17 20 23 26 26 26 29 28 25 24 26 27 25 24 25 24 20 17 16 16 18 20
4 4 6 3 3 3 2 3 4 4 3 3 4 4 4 9 10 10 14 13 14 10 8 16 22 25 29 30 32 29 29 29 29 29 30 27 28 23 20 17 16 17 18 20
5 4 5 3 3 2 2 3 2 2 5 0 1 5 5 5 6 7 9 14 13 16 14 13 19 24 27 31 35 36 34 34 34 32 31 23 23 18 19 19 18 19 19 19
5 3 4 3 3 5 2 3 3 4 5 3 2 4 4 4 8 9 12 11 13 13 12 12 17 22 30 36 35 35 33 34 34 34 34 33 31 22 25 23 21 21 20 20
6 3 4 4 5 5 6 1 1 1 3 1 1 3 7 2 6 12 14 15 14 14 15 15 20 30 26 28 34 35 34 34 33 36 37 36 28 27 18 20 21 20 20 19
4 2 4 6 3 6 2 3 5 4 3 1 3 5 5 4 7 5 9 11 14 13 15 15 21 22 25 27 31 33 34 33 35 35 36 35 33 25 21 19 21 23 23 21
2 3 2 3 2 3 2 5 3 4 3 4 2 2 9 5 6 7 10 14 17 14 14 13 12 19 24 30 30 32 34 33 38 36 36 38 37 30 26 23 27 28 26 25
6 5 5 4 5 7 3 6 5 2 2 3 1 4 5 3 4 8 9 7 8 9 11 12 16 22 23 27 30 32 33 31 33 38 40 37 38 32 29 26 28 30 30 26
5 5 3 2 0 4 3 2 4 6 3 2 3 6 10 4 3 6 6 4 8 9 10 14 11 19 22 27 32 35 31 30 32 38 39 39 36 31 31 27 29 31 28 28
8 1 2 2 2 1 3 6 3 3 2 3 4 4 5 7 4 3 4 3 3 6 6 6 7 16 21 26 28 33 35 36 38 34 38 39 37 32 31 29 28 30 31 33
5 5 3 1 4 6 2 1 4 5 4 4 1 5 7 6 4 5 5 4 5 7 8 8 8 17 23 24 28 34 33 32 32 34 33 34 33 31 30 28 29 31 34 31
6 5 5 9 1 2 4 7 6 4 4 1 3 6 4 7 6 6 6 4 4 5 6 5 5 13 21 27 30 32 27 29 33 32 30 27 26 25 24 25 25 26 28 25
7 1 1 7 5 2 3 5 4 5 4 6 5 6 2 5 6 5 7 5 5 6 6 4 5 9 14 15 15 20 26 28 29 27 25 23 22 21 22 22 22 23 21 17
8 4 8 9 8 5 4 5 5 6 4 5 6 6 7 6 6 8 7 4 6 7 7 6 5 5 5 8 14 19 22 23 23 21 20 19 20 22 20 20 20 18 16 10
6 8 6 3 3 5 5 5 8 6 6 6 7 7 9 5 5 6 6 1 4 2 3 4 4 3 7 9 8 10 12 13 15 16 18 19 17 15 16 15 17 12 11 10
2 4 3 3 3 1 4 4 7 4 3 5 4 6 6 1 2 5 5 6 8 7 8 9 8 6 2 4 9 11 12 12 13 18 19 18 18 19 20 18 19 20 17 6
8 7 3 4 3 3 5 8 7 6 5 7 7 10 6 2 5 4 5 7 7 7 7 8 8 9 13 9 10 12 15 18 20 24 22 22 23 25 26 22 14 5 1 11
7 7 3 3 3 2 6 2 3 8 6 5 4 4 6 7 5 6 6 5 7 7 7 8 10 15 19 19 21 23 23 25 26 26 27 29 29 21 11 7 5 5 7 9
1 6 3 5 4 5 3 5 7 7 9 6 5 6 7 8 5 6 6 8 6 5 7 11 17 20 22 23 24 28 28 28 30 28 28 19 12 9 8 10 9 7 9 12
6 6 5 3 5 8 8 5 5 5 5 7 8 9 11 6 4 3 4 5 6 11 14 17 20 22 24 23 25 31 27 27 25 19 13 8 9 11 9 5 5 8 11 14
3 3 5 3 3 7 7 4 5 5 8 9 13 11 8 5 2 8 9 8 11 14 17 21 23 23 23 25 29 27 25 20 13 9 8 8 6 5 5 7 10 12 14 16
7 7 3 3 3 7 8 4 9 7 1 7 7 8 6 10 10 10 10 9 11 15 18 20 23 24 22 22 24 22 19 13 13 11 10 7 7 8 9 11 13 15 18 20
3 6 6 9 7 4 6 4 3 5 5 7 8 6 11 14 7 9 10 10 11 17 19 21 23 25 24 21 20 20 14 11 11 11 11 10 10 11 12 14 17 19 21 24
3 3 4 4 5 5 4 3 3 2 4 6 5 12 11 12 12 13 11 9 12 16 19 22 22 21 20 20 20 17 13 11 11 13 13 13 14 16 18 19 21 22 24 25
4 7 6 3 4 1 6 5 4 5 8 13 9 7 13 16 13 13 11 9 14 17 20 21 20 19 18 20 20 18 16 13 14 13 14 17 18 20 22 21 20 20 20 19
5 7 6 8 10 7 5 9 6 8 8 11 17 11 8 12 15 14 10 15 17 18 20 20 20 22 18 19 18 16 15 14 14 15 16 17 19 20 20 19 20 18 17 19

GFSCGP_925_spd_051.txt.gz
Wind_Speed
1 2 5 7 4 1 1 0 4 1 4 2 3 6 9 13 11 10 10 11 13 15 20 22 25 26 27 26 24 23 22 26 22 23 20 19 22 23 23 24 21 18 17 17
1 4 6 3 2 3 3 2 3 2 2 2 4 4 5 15 17 15 14 13 15 14 14 21 24 26 29 31 30 27 26 25 25 24 25 18 21 23 26 23 20 17 19 20
5 2 3 4 2 3 3 3 2 2 2 2 3 3 2 5 8 11 13 13 13 16 17 18 26 29 29 31 33 32 29 28 27 23 23 22 20 20 21 20 18 19 20 20
4 2 5 3 4 6 3 4 4 4 2 2 2 3 3 4 10 14 17 16 17 16 15 15 23 27 30 31 28 29 28 29 28 28 24 26 21 19 19 19 21 21 21 20
4 5 5 4 5 5 4 3 0 2 3 0 0 2 3 2 6 15 17 20 19 19 18 18 22 28 27 26 31 34 30 30 28 29 27 28 21 18 19 23 21 21 21 21
3 1 3 5 4 4 3 2 5 4 2 1 1 3 4 4 3 3 10 16 19 18 18 19 25 20 23 24 28 31 29 26 26 27 27 30 27 26 22 21 20 20 22 24
1 3 2 3 3 2 2 2 1 0 1 3 4 3 7 4 7 6 10 10 17 18 18 18 18 22 23 24 26 26 26 26 29 27 29 31 30 27 30 24 23 26 24 24
6 4 7 5 5 5 5 5 3 3 2 0 1 4 3 3 7 7 8 9 8 14 15 18 19 23 24 24 24 24 26 25 25 28 32 33 31 27 29 27 24 27 30 30
5 4 1 3 3 5 4 4 2 6 2 0 2 3 8 2 2 4 7 4 3 7 12 16 15 21 22 23 26 28 25 25 25 27 28 30 28 27 24 27 26 27 30 31
7 2 2 1 2 4 2 6 3 1 4 3 2 3 3 4 3 4 4 5 5 2 6 9 11 17 18 19 20 21 22 24 23 22 23 22 24 25 23 26 28 28 27 27
5 3 1 2 5 8 3 2 5 3 1 2 1 3 5 4 2 3 3 4 5 3 3 5 8 12 14 15 17 19 21 20 19 18 17 19 24 25 25 24 24 23 25 30
6 4 4 6 1 1 3 6 5 3 4 0 1 5 3 5 6 6 6 4 3 4 2 2 6 9 11 13 14 16 15 16 17 21 23 21 22 21 20 20 22 24 25 28
8 2 2 1 1 2 3 4 4 4 3 7 4 4 1 3 3 5 7 4 3 4 4 3 3 4 6 8 8 9 11 14 13 16 16 15 15 12 13 17 17 19 24 26
9 4 6 9 7 5 4 6 7 5 3 5 6 6 6 7 7 6 5 5 5 3 2 1 2 2 5 7 7 8 6 8 9 6 6 6 8 8 10 11 14 15 17 22
5 7 6 5 5 6 6 6 11 10 7 8 8 9 9 6 6 4 5 4 5 7 6 5 2 3 2 4 4 4 4 5 6 7 7 8 10 11 12 15 17 18 20 15
2 4 5 4 4 7 6 5 8 10 4 9 7 6 9 2 2 1 3 6 8 9 9 10 9 8 7 8 9 9 9 9 10 12 13 16 17 17 18 19 18 17 18 14
3 6 4 4 2 3 3 8 10 6 5 7 8 11 6 6 6 6 6 8 8 8 8 10 10 12 12 13 13 15 15 16 17 18 17 20 23 26 27 25 19 11 6 4
5 5 1 3 1 5 2 2 3 8 5 9 5 4 6 4 6 6 3 8 9 8 9 9 11 15 16 17 19 20 20 21 22 23 25 27 29 24 17 11 7 2 2 6
3 5 3 4 4 4 1 4 7 7 15 9 13 7 6 12 8 3 4 6 8 8 9 12 13 15 17 19 20 23 24 25 26 26 24 20 16 13 10 8 6 5 4 6
4 3 4 3 5 8 6 4 5 4 12 9 11 11 17 12 8 6 8 7 9 11 12 15 16 18 20 19 22 26 25 25 22 17 14 12 10 9 8 4 2 4 7 9
3 2 7 3 4 6 6 4 5 5 10 5 12 13 18 10 1 11 13 10 13 15 16 17 19 21 21 21 24 25 22 18 14 14 14 13 11 9 5 4 5 7 9 12
7 7 4 3 2 7 8 6 9 7 3 5 10 12 13 11 14 15 14 13 15 18 19 20 24 23 20 20 23 21 19 14 14 14 13 12 10 9 7 7 8 9 10 12
5 5 5 9 7 2 10 4 6 5 4 6 11 11 15 17 12 15 15 15 16 20 21 21 24 23 19 18 18 20 13 14 14 14 13 11 9 9 9 9 10 11 12 13
5 4 4 3 5 7 7 4 4 4 5 5 9 17 18 16 18 17 15 15 16 20 21 23 24 22 20 17 18 17 15 14 13 12 10 9 10 10 10 10 10 11 12 14
5 6 5 4 5 2 9 11 5 5 5 10 11 11 15 21 18 19 17 16 20 21 21 20 21 21 19 18 18 16 14 10 11 10 10 9 9 10 9 9 10 10 10 11
5 7 6 7 8 6 7 11 11 11 11 14 16 14 14 17 20 19 16 21 23 22 21 21 20 21 17 17 16 14 12 11 10 10 8 9 8 8 9 10 10 9 9 10

GFSCGP_925_spd_054.txt.gz
Wind_Speed
9 8 10 5 3 9 5 8 8 5 3 5 5 9 5 13 13 13 12 13 13 15 18 20 24 27 28 28 29 27 25 22 19 18 17 16 16 17 17 15 13 14 14 16
7 11 4 3 4 5 6 8 8 3 7 5 6 10 2 13 15 13 13 14 15 16 16 21 24 28 30 32 31 28 27 24 22 19 18 18 18 18 18 16 18 18 15 15
12 3 3 7 8 9 9 10 4 6 6 6 10 13 5 8 11 12 13 13 14 17 19 19 25 29 31 33 33 30 28 25 24 21 19 18 15 14 17 17 16 18 16 17
11 6 8 9 11 10 11 5 7 7 7 8 2 5 3 6 10 14 14 15 16 17 18 18 24 29 32 33 32 31 28 26 24 24 21 21 20 19 18 17 15 16 19 18
9 9 10 10 10 7 4 2 3 6 9 6 7 7 4 3 8 13 16 18 18 18 20 21 25 31 32 31 31 30 28 27 26 25 25 23 23 20 18 16 16 18 18 18
8 2 5 4 4 8 6 5 4 5 6 9 10 8 4 4 4 2 5 15 18 19 20 21 27 27 29 30 30 30 29 29 28 27 27 27 25 23 20 20 18 17 17 18
14 13 6 6 7 7 10 7 6 6 6 7 3 6 9 6 3 6 8 7 11 19 19 19 19 24 27 30 29 28 29 29 28 28 28 28 27 25 24 21 21 20 19 21
14 13 15 11 13 9 14 12 6 5 4 2 4 6 3 3 3 8 7 8 10 13 18 21 20 26 26 27 28 28 28 29 28 28 28 25 24 23 23 20 18 19 20 23
15 13 5 7 5 10 7 9 4 2 1 4 5 6 8 1 1 2 3 3 4 8 12 17 20 23 23 24 25 26 24 24 25 24 22 22 21 21 19 17 17 17 20 20
7 9 5 7 6 4 7 10 6 5 5 6 3 5 1 4 2 2 4 4 3 2 5 8 11 18 19 19 19 19 20 21 21 20 19 18 18 19 18 17 18 17 23 23
10 9 6 7 11 11 6 7 4 3 3 4 4 4 1 3 1 2 2 3 3 2 2 4 6 9 12 14 15 16 16 17 17 16 16 17 16 16 16 21 21 20 22 24
16 9 9 13 3 5 9 11 11 7 6 3 4 8 4 7 4 4 5 4 3 1 4 5 6 8 10 11 12 12 12 12 12 12 12 11 9 9 12 16 16 17 19 19
13 9 10 9 6 4 9 11 12 7 3 11 7 5 5 4 5 7 6 5 4 2 3 6 7 7 9 10 10 9 9 8 7 7 7 7 7 7 7 8 10 11 14 16
16 14 16 13 13 11 11 13 15 14 8 11 11 12 9 12 10 9 6 5 5 4 5 5 6 5 7 7 7 7 8 8 8 10 10 9 8 7 7 8 9 11 12 14
11 16 17 17 16 15 16 14 15 16 16 13 13 15 13 12 10 4 3 3 5 6 5 6 7 7 9 10 10 11 11 11 11 13 13 13 12 12 12 12 11 11 11 11
6 10 10 12 13 13 16 17 18 18 17 12 16 17 13 11 5 5 4 5 6 7 6 6 8 9 11 12 13 14 14 14 15 17 16 16 16 15 15 16 16 17 14 14
4 9 8 13 8 8 6 15 16 16 14 14 14 14 12 11 12 8 6 7 9 9 9 9 10 11 14 15 15 17 17 17 18 19 18 18 18 20 20 19 17 14 12 6
5 9 5 5 4 7 10 3 17 18 15 14 15 13 13 11 3 6 3 9 11 10 11 10 11 15 16 17 19 19 19 20 21 21 21 21 20 19 16 15 13 9 6 5
14 7 4 4 9 10 3 5 8 13 15 16 18 18 10 6 9 6 6 9 11 11 10 12 14 16 18 18 19 21 21 22 22 21 20 18 16 14 11 8 5 3 2 2
7 8 7 3 7 8 9 12 11 4 14 11 12 13 10 12 8 7 13 12 12 13 15 16 16 18 19 19 20 22 22 21 20 17 15 13 10 10 7 6 5 3 1 2
5 4 11 11 7 6 4 9 11 10 15 4 8 8 14 13 4 16 17 13 14 15 18 18 18 18 19 20 21 22 21 19 17 15 14 12 10 9 7 6 5 3 3 5
8 8 5 7 6 11 11 10 12 13 4 7 9 11 15 10 13 17 17 16 15 17 19 18 19 19 19 19 20 20 19 16 15 14 13 12 10 8 6 5 4 4 6 7
6 6 4 7 6 4 19 14 16 6 8 7 10 11 15 15 15 17 16 16 16 20 20 20 22 21 18 17 17 19 16 15 14 14 12 10 8 7 6 5 5 5 5 6
6 5 4 5 10 13 13 16 6 8 8 6 8 14 18 19 19 18 16 15 14 20 21 22 22 21 19 16 16 17 15 14 14 12 10 8 7 6 6 4 5 5 6 7
10 10 13 14 14 12 13 14 14 10 8 8 10 14 19 20 20 18 17 16 19 21 21 21 20 20 19 18 16 14 13 12 11 10 9 7 6 5 4 4 4 4 5 5
8 8 8 9 12 8 16 3 14 15 15 11 15 17 17 19 22 20 18 21 22 23 22 21 21 21 19 17 16 13 11 10 10 9 7 6 5 4 3 3 1 4 5 4

GFSCGP_925_spd_057.txt.gz
Wind_Speed
17 13 14 17 8 10 13 14 12 16 17 14 7 9 8 14 11 11 13 13 15 15 15 20 20 24 25 29 31 32 32 30 24 21 21 19 17 16 17 19 18 16 16 16
14 15 17 4 5 9 11 13 14 6 5 8 11 12 11 12 13 13 12 15 13 14 17 21 26 26 26 29 31 31 30 27 24 21 20 20 19 19 19 20 19 15 13 14
16 10 5 7 10 10 11 14 12 9 6 12 14 17 2 9 14 13 14 16 18 18 18 17 23 28 28 30 32 31 29 27 25 22 21 19 18 17 20 21 19 16 18 20
16 13 8 11 11 11 13 14 11 10 10 9 9 8 8 12 13 14 15 14 17 19 20 20 23 29 31 32 31 30 28 27 26 24 21 21 21 19 20 20 19 17 24 20
17 15 11 15 15 12 12 1 7 12 14 15 15 8 11 7 10 15 16 17 16 19 21 22 24 31 33 32 32 31 29 28 26 25 24 21 22 20 19 20 20 19 17 22
18 12 13 16 7 7 8 7 10 11 11 11 14 13 4 14 9 9 11 15 17 18 21 22 28 29 30 31 31 31 32 31 28 27 27 27 23 23 20 19 15 16 18 18
19 15 14 6 11 9 10 13 8 6 8 10 5 7 6 13 3 2 3 8 17 18 19 21 22 26 30 32 33 32 32 31 31 30 30 29 27 24 23 21 20 18 21 20
16 18 21 14 16 11 16 16 6 6 6 4 5 7 6 8 3 4 5 5 6 12 19 21 22 27 30 31 32 32 31 30 29 29 29 23 25 26 23 21 20 19 18 20
18 21 17 19 16 15 13 14 16 11 7 6 7 7 12 7 4 3 2 3 3 9 15 20 21 26 28 28 29 29 28 27 27 27 24 27 32 26 22 20 19 18 17 16
9 13 13 12 10 13 14 9 10 8 4 10 10 9 4 7 6 4 3 5 3 2 5 10 16 25 26 27 26 25 25 26 25 25 25 24 24 22 20 18 18 17 17 17
19 13 10 11 14 16 11 11 10 9 12 4 6 5 9 8 4 2 1 1 3 2 4 6 8 14 24 22 22 23 23 23 22 25 23 21 17 16 17 18 19 19 17 18
23 11 11 17 18 20 9 17 18 10 13 9 8 11 2 6 5 4 7 3 3 2 3 6 7 9 12 15 17 18 19 20 20 18 16 16 16 15 14 14 16 19 16 16
21 13 12 15 11 10 12 15 15 16 11 11 4 8 2 2 4 6 7 6 7 5 7 8 9 9 13 15 15 16 15 15 14 14 17 15 13 11 10 12 11 11 11 10
18 17 20 14 18 15 19 17 16 14 9 12 14 16 12 10 13 12 11 8 9 9 8 9 10 10 13 14 15 15 12 13 12 16 14 13 11 11 10 9 9 9 9 13
16 22 20 21 19 16 17 23 21 20 18 17 15 17 12 11 13 11 4 8 8 9 8 9 11 11 14 14 17 16 14 15 15 17 17 17 15 13 14 14 13 12 13 10
17 15 21 22 19 19 18 18 18 20 18 17 19 20 11 12 12 6 4 7 9 9 9 8 9 11 13 14 16 17 17 17 18 19 18 17 17 16 16 16 16 16 16 14
13 13 16 16 17 19 16 17 18 18 17 15 17 15 15 9 11 10 12 7 8 8 8 9 10 11 13 14 15 17 17 18 18 20 19 18 18 18 17 16 15 14 13 12
7 14 11 9 2 13 10 14 20 21 20 18 17 17 15 13 12 6 2 7 7 8 10 11 11 15 16 18 18 20 19 19 20 20 20 19 18 18 16 14 12 10 8 6
10 10 8 8 13 13 18 9 12 15 16 16 16 15 15 7 3 5 5 7 11 11 11 14 17 18 19 20 20 21 21 20 20 20 19 18 16 15 13 10 7 5 5 5
14 12 10 6 14 18 14 15 12 14 14 15 14 12 7 7 7 11 15 13 14 14 15 17 18 18 19 19 20 21 21 20 19 18 17 15 13 11 9 7 7 5 4 3
6 7 13 12 8 8 10 14 12 12 16 12 7 7 8 9 9 11 16 15 17 18 18 18 18 18 19 20 21 21 20 18 18 17 16 14 12 10 9 8 7 4 3 2
12 7 6 10 11 15 3 9 15 15 15 8 9 9 9 8 11 16 18 18 17 16 19 18 18 18 18 19 20 19 19 19 17 16 14 13 11 9 8 7 5 3 2 1
15 8 8 9 6 6 11 13 16 17 12 7 10 11 11 15 15 17 17 19 17 21 21 21 21 20 19 19 19 20 19 18 17 16 14 13 10 8 6 5 3 2 2 3
8 4 13 13 15 15 13 12 14 11 13 12 8 9 13 17 17 18 18 17 18 22 22 23 23 22 21 19 18 19 19 18 17 16 13 11 9 7 6 5 3 3 3 3
10 10 10 15 15 13 15 10 10 14 11 11 8 10 14 17 19 19 19 19 18 22 24 24 23 21 21 20 19 18 18 17 16 14 12 10 8 6 6 6 5 4 4 2
13 15 10 8 10 10 12 11 4 11 15 14 13 12 14 17 20 21 19 20 23 24 26 24 23 23 21 20 19 17 16 16 16 14 11 9 8 6 5 4 5 2 1 4

GFSCGP_925_spd_060.txt.gz
Wind_Speed
16 12 15 19 18 22 13 14 17 14 6 8 12 12 14 8 16 9 16 14 13 15 17 17 34 31 27 28 28 28 29 29 30 30 27 24 23 23 25 21 24 23 20 21
15 18 20 20 17 7 12 15 16 9 8 11 12 11 6 17 20 12 13 12 14 13 18 16 22 28 32 32 30 30 29 31 33 31 29 26 24 22 21 23 22 24 23 22
19 17 22 18 11 9 13 14 16 11 9 19 11 13 10 5 14 11 13 16 14 15 18 18 21 24 34 37 34 32 33 35 35 29 26 24 24 23 26 25 26 23 24 24
20 21 10 10 11 12 14 13 14 10 11 10 3 6 6 11 11 14 13 16 18 14 16 19 23 27 29 35 36 35 36 35 35 31 27 29 24 22 25 27 28 27 28 27
19 21 18 14 15 14 14 6 6 10 11 14 15 3 4 9 12 16 14 14 20 20 18 19 20 31 32 32 35 37 37 37 33 33 30 26 24 26 21 24 22 26 26 24
22 15 18 18 14 15 13 10 10 11 10 11 16 11 9 2 8 8 16 16 17 21 21 21 28 29 32 33 33 36 34 33 32 35 36 28 23 21 22 24 27 27 27 24
21 22 18 14 18 8 11 10 8 1 5 9 15 12 3 10 8 11 14 16 16 19 21 21 23 26 32 35 38 36 36 33 34 32 29 31 27 20 26 20 21 23 25 26
17 16 21 13 15 14 13 14 8 6 4 8 11 5 6 14 16 7 2 3 13 14 17 20 22 28 30 33 37 37 37 35 33 31 26 23 27 33 26 25 29 23 24 25
17 22 15 19 15 17 14 14 15 8 2 5 7 9 8 11 9 5 6 4 6 9 14 20 20 28 31 33 34 36 33 33 33 33 32 31 32 30 30 31 26 24 19 22
18 13 24 23 20 19 16 14 9 7 4 4 10 12 6 5 8 7 7 5 5 1 5 9 16 23 31 34 35 35 35 31 32 30 32 38 36 35 29 25 20 17 17 16
21 16 11 16 17 16 11 13 10 13 11 5 4 2 4 10 9 6 4 7 5 2 4 1 3 17 28 30 31 35 34 32 27 27 25 27 28 29 24 12 11 13 16 17
25 6 12 15 14 16 19 16 17 9 9 9 5 2 7 5 8 8 5 6 5 4 5 5 3 5 17 24 29 30 29 26 26 25 25 26 25 19 9 12 12 15 16 14
22 14 11 14 15 16 15 12 15 13 10 12 4 6 4 3 3 1 4 4 9 5 5 6 5 2 2 5 12 20 21 21 13 17 19 21 18 17 16 15 15 15 14 10
10 13 14 10 17 13 13 16 18 18 6 6 9 12 16 11 10 8 10 10 7 10 8 8 7 7 7 7 9 14 13 20 20 25 24 23 21 19 16 13 11 10 9 11
7 17 20 17 18 19 20 20 20 21 17 13 19 16 14 10 4 8 6 9 5 7 9 8 10 8 11 14 20 19 19 21 20 22 21 21 19 16 16 15 14 14 15 15
11 14 15 19 17 22 15 21 21 20 19 17 17 17 15 10 10 8 9 9 8 7 7 6 13 15 13 19 18 17 16 16 18 21 23 22 20 19 19 17 18 17 18 17
11 9 13 17 16 18 19 17 17 15 19 16 16 12 11 11 8 6 8 8 10 5 3 3 4 12 17 22 21 18 16 18 20 22 21 20 22 22 22 21 21 21 18 17
2 11 11 4 3 21 11 15 16 15 16 15 14 13 12 11 9 3 5 4 8 9 7 6 7 13 20 21 25 24 19 19 20 22 21 22 22 22 21 20 19 17 16 13
4 3 3 5 11 13 16 15 11 11 17 18 18 17 13 11 5 4 4 2 8 9 7 6 14 16 18 22 23 24 22 22 22 22 22 22 22 21 19 18 17 14 12 12
3 12 6 3 5 14 9 14 16 9 13 14 14 10 9 6 4 2 10 6 10 11 13 13 17 19 20 22 24 24 23 23 22 22 23 22 21 19 17 16 15 13 13 12
4 7 9 6 4 7 8 16 14 15 9 8 10 12 11 4 3 9 11 10 11 13 17 20 20 19 21 24 25 23 23 22 23 23 21 20 18 18 17 16 15 14 11 13
11 10 5 3 3 13 7 8 20 8 10 3 9 6 2 10 11 13 12 13 14 15 19 22 20 21 23 24 25 23 22 23 23 22 21 19 18 17 16 16 13 11 12 11
11 8 6 7 6 7 7 6 7 7 9 9 7 8 4 13 11 13 14 14 14 15 19 22 21 23 23 24 24 23 24 24 23 22 20 19 17 16 14 14 11 11 11 9
9 16 8 10 19 8 14 8 5 5 6 10 8 9 3 12 13 13 13 14 14 16 19 22 23 21 21 23 23 24 24 23 22 21 20 19 17 15 13 12 9 10 9 7
8 5 10 13 10 8 15 9 9 2 7 10 6 4 11 12 14 14 14 15 14 17 20 21 20 20 20 21 23 23 22 22 21 20 18 17 18 15 14 13 10 9 8 8
8 8 5 5 6 3 5 8 11 10 11 12 7 5 9 9 12 14 14 14 16 17 21 20 18 18 19 21 21 20 20 19 20 19 18 17 15 13 15 14 11 8 5 4

GFSCGP_925_spd_066.txt.gz
Wind_Speed
4 4 13 10 9 7 6 7 8 11 10 6 8 7 11 10 5 7 6 6 14 12 10 17 19 20 22 20 21 26 31 32 38 35 33 33 32 30 33 24 20 18 22 23
3 18 13 8 8 9 9 13 14 10 4 7 7 8 7 11 10 9 10 8 15 11 12 15 18 20 27 27 28 28 31 35 36 35 31 30 34 33 35 29 23 23 24 24
12 7 16 11 12 12 14 13 13 9 5 4 2 5 3 6 3 6 9 11 15 18 16 15 19 24 26 30 32 34 36 38 38 39 36 33 34 32 31 30 34 33 24 24
7 18 12 10 15 10 11 11 9 5 2 3 3 5 5 7 16 10 12 15 17 18 16 16 20 25 28 33 34 32 35 40 40 38 35 31 30 28 33 32 33 32 27 28
9 8 15 17 17 11 13 16 8 6 3 2 3 1 6 4 10 10 14 17 19 20 22 21 22 31 34 32 33 31 32 36 38 40 37 36 29 29 28 33 34 35 35 31
13 9 7 12 13 13 16 5 3 3 2 3 5 5 4 6 10 14 19 21 20 20 21 21 29 29 30 32 33 33 34 35 37 38 38 36 32 29 27 32 35 38 39 39
14 18 11 6 9 8 7 4 2 3 2 7 5 3 7 10 13 12 22 24 23 22 20 20 21 25 29 31 34 35 35 35 38 37 37 35 33 34 30 36 40 36 37 39
12 8 18 9 16 8 7 9 5 5 4 5 4 5 5 6 7 5 19 24 21 21 21 22 25 31 33 36 39 38 38 37 39 39 39 38 38 36 39 39 40 40 40 42
8 12 5 10 10 10 5 4 8 5 2 2 4 8 7 7 1 1 9 13 18 19 21 24 22 33 36 38 43 45 42 44 44 42 40 41 41 40 35 34 37 40 39 38
6 4 11 18 5 9 11 6 3 1 3 4 5 5 6 4 1 2 7 13 16 17 18 20 21 30 36 41 43 41 44 48 50 46 44 41 37 34 34 32 32 31 30 26
16 4 5 7 12 8 3 3 1 5 5 5 2 5 6 9 8 7 6 9 11 12 15 16 17 29 35 35 35 44 43 42 42 44 43 36 36 34 32 32 21 21 15 23
12 11 13 17 6 11 10 11 9 6 5 4 5 8 3 9 10 5 7 9 9 11 15 14 16 24 28 33 35 37 38 34 28 25 25 29 28 26 23 21 23 28 28 31
2 7 4 7 9 12 6 7 12 5 4 9 6 5 4 5 8 9 7 9 7 8 8 9 10 14 23 29 32 32 30 30 31 31 28 29 28 25 23 26 30 32 31 28
1 7 15 18 6 5 4 8 18 15 4 5 6 7 6 9 9 10 7 8 9 9 9 9 7 7 12 25 29 27 31 35 37 37 30 26 30 37 42 32 33 30 29 29
5 13 16 14 13 10 7 6 14 14 10 8 8 8 8 9 9 11 10 8 6 8 8 8 9 7 7 13 19 27 35 40 38 30 24 29 26 34 32 33 32 31 29 27
9 6 7 10 9 16 16 18 13 7 6 7 9 9 8 12 9 7 10 14 14 13 12 10 10 10 8 13 17 21 24 25 26 23 24 26 28 31 33 34 32 30 28 26
3 6 9 14 11 15 11 17 10 6 5 7 7 10 10 11 10 11 13 11 12 13 11 9 14 14 16 20 27 29 31 28 25 25 27 30 31 31 32 32 31 29 26 25
6 4 2 4 2 11 20 8 7 12 12 11 6 8 12 13 13 10 14 16 14 13 10 11 11 13 18 22 21 25 27 29 30 27 27 28 29 28 30 30 30 30 29 30
6 5 1 4 7 6 13 7 15 16 10 8 7 7 8 8 4 4 6 9 13 9 7 9 17 18 22 22 26 26 23 25 26 26 27 28 31 31 30 30 33 33 32 30
7 6 4 0 7 13 2 7 3 2 6 5 4 6 7 5 3 5 6 6 9 8 9 12 19 23 24 24 27 24 22 22 21 26 28 31 31 30 29 32 32 30 31 30
2 3 7 2 7 7 8 5 2 9 5 2 2 4 7 4 8 6 7 2 5 11 14 21 21 21 24 29 29 22 22 20 22 25 27 29 30 31 32 31 29 29 27 27
6 6 3 3 4 7 3 4 3 4 2 6 6 8 7 8 5 6 9 9 10 12 13 18 17 17 23 27 26 21 19 23 27 28 27 28 29 26 28 29 26 27 29 29
4 5 5 9 7 8 2 7 5 1 2 5 4 6 5 8 5 7 3 6 8 11 11 17 19 19 21 25 26 21 23 29 29 29 27 29 27 25 26 28 27 28 31 33
5 6 5 2 7 8 5 3 6 6 8 5 1 5 4 7 7 5 7 8 7 6 8 16 19 17 16 23 23 27 29 31 31 28 27 25 24 24 23 24 27 31 29 25
8 6 13 5 5 3 3 5 7 7 3 2 4 4 7 7 8 8 7 8 9 9 13 18 17 16 17 24 26 29 30 31 28 27 26 25 25 25 23 20 17 19 16 18
2 5 4 5 7 6 6 3 5 5 7 5 3 1 5 8 11 6 6 6 8 8 14 14 17 20 20 24 26 28 31 33 32 26 25 26 27 25 24 25 22 16 12 10

GFSCGP_925_spd_069.txt.gz
Wind_Speed
5 3 10 14 8 4 3 3 4 11 13 3 8 12 10 5 5 8 8 8 8 9 6 14 18 19 14 17 17 22 27 26 28 31 31 31 29 24 26 24 24 25 26 22
2 16 7 7 7 6 5 6 10 10 12 7 8 11 10 7 7 10 10 11 10 5 7 10 15 21 19 18 21 22 24 30 31 30 26 23 26 25 26 22 21 18 17 15
10 4 16 13 6 9 8 8 7 9 8 6 1 7 5 3 4 6 9 6 7 11 11 11 13 18 20 18 22 23 23 28 30 29 28 23 24 23 27 25 22 16 13 14
7 15 4 5 11 9 13 9 12 12 4 5 5 4 5 5 7 7 8 9 11 11 10 10 13 18 21 27 26 26 30 30 31 30 31 27 25 21 24 29 27 23 21 20
9 7 13 12 18 8 10 7 10 10 7 2 2 1 6 0 6 10 14 14 13 14 14 13 15 22 23 27 31 31 32 33 32 32 32 33 30 28 25 28 30 30 28 29
11 3 8 10 8 11 9 3 3 2 3 5 5 6 5 5 9 6 13 15 14 15 16 13 15 18 21 25 30 30 32 33 35 35 36 35 34 31 30 30 32 35 38 36
4 11 2 3 5 5 5 3 3 3 1 8 5 3 7 9 10 12 11 17 18 16 14 13 13 16 22 27 29 30 30 31 37 38 39 41 39 37 33 33 33 31 35 42
10 6 13 7 12 6 7 9 5 6 3 5 1 5 6 7 10 10 11 16 17 15 14 17 18 21 25 28 31 32 32 32 34 38 39 39 39 36 37 37 38 38 39 41
7 7 4 9 6 11 4 6 10 4 2 2 4 7 8 8 8 7 7 8 11 15 15 18 17 25 27 30 35 37 35 34 36 39 38 35 37 37 32 32 35 37 37 35
3 1 6 6 5 8 9 6 2 1 5 4 4 4 6 10 6 7 5 9 10 14 13 15 15 23 28 31 32 32 34 34 32 31 31 30 30 30 31 33 31 30 30 33
12 2 4 1 6 7 3 9 3 4 5 6 2 6 7 8 7 7 6 9 11 13 15 16 15 24 28 25 28 32 33 34 30 27 27 27 29 32 34 42 38 34 31 30
7 5 12 23 7 4 8 8 9 5 3 3 4 10 4 9 8 6 8 8 8 13 17 15 17 21 23 29 28 34 34 32 33 33 35 35 33 36 38 40 34 31 29 25
5 3 8 8 4 10 9 5 6 3 3 10 7 6 3 6 7 6 7 8 7 5 7 12 12 14 22 27 29 33 34 38 36 36 36 38 47 54 48 38 38 38 35 34
3 2 4 7 7 3 5 12 10 12 7 4 12 8 6 7 8 9 8 8 8 9 8 8 8 14 20 27 31 32 37 39 39 40 40 42 44 36 35 35 32 42 40 34
4 1 5 12 14 15 14 10 14 18 12 11 10 10 10 10 10 11 10 5 8 9 8 9 10 11 14 22 26 30 32 34 39 40 39 41 38 36 39 38 38 33 33 32
2 3 5 5 8 14 17 18 12 8 7 12 10 6 7 11 8 6 9 9 8 8 8 12 9 8 9 18 24 28 30 36 39 37 38 35 36 39 37 39 37 33 31 28
3 3 3 5 13 12 8 17 14 14 6 6 10 8 8 7 9 10 14 12 11 10 13 10 15 14 13 21 26 26 29 32 34 31 28 28 30 30 32 31 31 30 29 30
5 4 3 3 6 4 7 8 11 15 14 8 5 6 8 9 11 13 8 9 11 11 11 11 13 11 16 20 16 17 23 24 26 26 24 24 25 26 27 28 27 27 28 29
7 5 4 2 3 7 16 7 4 7 17 11 8 9 9 7 1 8 8 10 15 13 14 12 22 19 22 21 20 21 22 23 24 23 25 26 26 26 26 24 24 26 26 22
5 4 3 2 3 6 10 11 13 17 16 7 18 11 5 3 1 5 10 5 11 9 7 9 17 20 23 23 24 22 19 20 19 21 23 26 27 28 26 26 25 24 23 24
3 1 6 3 4 7 8 13 5 4 6 5 4 1 9 5 7 7 7 7 3 3 6 18 20 16 20 27 27 19 18 16 19 23 24 25 26 27 26 25 25 25 25 26
7 7 4 3 3 7 1 5 4 8 6 1 4 6 6 5 8 7 9 8 5 7 8 12 13 15 22 27 26 20 18 21 25 26 25 24 24 23 24 26 26 28 30 31
4 5 4 7 6 5 5 6 14 15 11 3 3 4 6 9 6 7 6 4 5 3 5 11 13 15 18 22 24 19 21 26 26 23 22 22 23 22 26 29 29 28 29 27
4 4 5 2 8 13 15 8 10 11 12 3 5 6 1 4 8 8 7 2 3 3 2 9 15 11 13 21 22 24 26 26 26 23 23 26 27 25 24 25 26 28 26 23
6 5 8 13 14 9 10 8 10 8 7 7 7 6 5 1 6 3 6 6 2 3 3 8 10 12 14 20 21 24 28 30 28 26 25 25 26 26 25 22 21 24 23 27
3 0 2 4 6 6 15 8 5 6 7 9 8 3 6 3 2 5 9 4 4 6 11 12 11 15 18 20 20 22 26 30 33 28 24 25 27 26 27 29 26 16 14 15

GFSCGP_925_spd_072.txt.gz
Wind_Speed
5 4 12 10 6 5 5 4 3 5 5 1 9 7 16 5 5 8 9 8 8 9 7 16 16 13 12 13 13 18 21 24 27 27 27 26 25 26 31 39 36 34 29 25
3 12 9 9 8 7 4 5 6 9 9 7 8 11 14 5 6 8 11 9 9 7 7 11 16 14 15 15 14 15 20 23 27 28 20 21 25 25 31 31 33 30 31 29
12 4 13 10 6 10 6 12 4 8 6 5 4 7 8 5 3 3 7 6 8 13 12 13 15 18 17 16 19 19 21 24 25 25 22 19 22 20 23 24 27 26 25 30
9 14 1 6 12 8 9 9 8 6 2 4 4 5 6 7 8 6 8 9 9 12 10 11 15 18 20 20 20 22 23 26 28 29 29 26 26 22 22 32 32 33 29 25
8 6 17 5 5 9 9 8 10 6 5 1 3 2 7 2 8 9 8 11 10 11 14 14 17 22 22 24 23 26 27 29 31 33 37 32 26 27 27 27 28 27 25 22
7 4 8 14 11 11 4 2 3 1 3 5 8 7 5 4 8 7 5 8 11 12 13 12 18 23 22 26 28 27 29 29 32 33 34 36 32 32 29 28 30 30 28 27
3 6 3 4 5 5 4 6 2 2 2 6 5 3 9 8 11 8 10 9 10 9 13 15 16 17 24 27 30 29 32 33 35 34 35 35 37 38 35 35 33 33 33 32
11 6 12 7 10 6 8 8 5 6 3 3 3 5 5 8 9 9 8 10 5 9 12 16 18 20 26 31 34 34 33 32 37 36 35 36 35 35 35 35 35 35 35 35
7 6 3 7 7 12 5 5 7 0 2 0 4 6 8 8 8 7 9 7 8 8 11 15 15 23 26 30 34 35 33 33 33 34 33 32 36 37 36 36 35 37 39 41
4 2 4 3 4 1 7 7 3 1 4 5 3 3 5 7 9 9 7 9 7 6 8 9 12 19 25 27 30 35 35 34 32 35 36 36 38 39 40 38 38 38 37 34
3 2 5 4 4 7 3 5 2 3 4 5 3 5 7 9 4 6 7 7 8 8 8 10 11 17 20 23 29 31 32 31 32 33 36 36 38 39 41 41 40 38 36 34
2 2 6 14 6 2 2 6 9 6 5 4 3 9 5 8 7 7 9 7 6 8 7 7 6 12 18 23 26 31 33 33 36 40 40 43 44 44 48 51 48 45 42 37
7 3 3 6 4 3 4 5 5 2 3 17 7 5 4 5 8 5 8 8 7 6 7 7 7 9 14 22 25 29 33 36 35 36 36 37 41 45 40 36 35 31 35 39
6 2 2 2 2 4 6 7 11 12 7 1 14 6 3 5 7 9 8 8 8 6 7 6 7 10 14 21 24 27 29 33 34 34 35 35 35 45 34 35 31 31 36 35
2 4 1 2 7 10 11 13 13 11 12 12 3 11 9 11 12 13 10 6 8 9 8 8 9 12 12 17 22 26 28 33 35 35 35 37 40 38 31 30 29 32 35 39
2 4 4 3 4 9 17 12 11 11 6 11 9 14 7 10 7 7 10 9 8 9 9 9 8 7 11 18 24 26 28 32 35 35 38 34 33 33 33 31 30 32 37 38
6 3 2 4 2 3 9 4 3 8 8 7 11 8 7 7 8 10 11 9 11 11 10 9 12 14 13 23 27 27 31 29 35 34 32 32 32 32 28 27 29 31 33 36
7 2 1 1 2 3 7 5 6 5 12 11 11 6 8 9 9 8 7 9 10 10 12 12 12 10 19 22 25 27 25 31 30 28 28 28 28 26 27 28 28 29 29 29
11 4 1 2 2 6 4 6 4 5 18 8 9 14 10 8 1 6 9 10 11 10 10 9 14 16 17 23 24 22 21 24 23 25 27 28 29 26 26 25 23 23 23 24
6 5 4 3 3 6 4 3 6 1 13 7 10 14 13 6 7 4 10 4 7 9 8 8 9 11 18 22 25 22 17 19 20 22 24 25 26 25 24 23 23 22 23 24
4 3 12 3 2 8 7 5 4 4 7 10 12 8 12 8 6 4 7 7 5 4 4 2 9 11 14 21 25 19 17 16 18 20 22 21 21 22 22 22 22 24 26 26
5 5 3 4 3 8 5 0 3 5 5 4 10 5 8 7 10 8 9 8 8 8 5 6 6 6 17 21 22 17 16 19 21 20 20 19 19 20 23 25 24 25 26 28
3 6 5 8 7 4 2 1 5 6 4 4 5 12 9 8 5 5 8 11 7 4 3 8 12 8 5 10 17 19 19 23 22 21 20 20 20 20 21 24 25 24 25 25
3 4 4 2 2 9 9 3 6 9 11 10 12 15 13 10 8 6 5 6 6 4 3 8 9 6 9 9 12 18 24 23 23 22 21 21 21 20 18 19 22 24 23 22
5 2 4 10 7 8 7 6 13 16 15 14 13 17 9 9 7 4 3 4 4 3 3 9 10 8 12 11 15 19 21 22 23 22 21 20 22 22 22 19 18 20 19 22
1 3 4 5 3 5 7 9 19 15 16 9 11 10 4 4 8 9 6 4 2 3 4 11 9 11 16 14 14 18 21 23 26 23 22 24 23 21 22 22 22 13 11 11

GFSCGP_925_spd_075.txt.gz
Wind_Speed
6 7 13 20 16 5 7 6 7 4 4 2 10 8 15 8 7 10 11 12 14 13 10 15 14 12 11 12 13 17 21 25 27 28 26 24 22 23 34 31 33 28 28 27
4 14 16 10 10 13 8 7 10 12 4 8 10 13 15 9 7 8 10 13 14 13 11 14 16 15 15 15 16 19 24 26 27 30 23 20 25 24 29 33 29 31 26 27
17 6 12 13 10 14 16 18 14 13 6 4 6 9 6 3 4 5 8 9 13 17 16 15 17 18 17 18 18 19 24 26 26 28 27 22 24 25 25 36 28 28 33 30
12 13 9 11 15 15 14 10 13 13 5 7 2 8 6 8 13 7 9 11 12 15 16 16 18 21 22 20 18 19 20 26 25 31 25 27 22 23 26 40 33 36 36 32
9 9 20 7 12 14 12 8 12 11 9 6 9 6 2 3 9 14 9 9 14 17 19 20 21 26 25 22 19 21 21 23 21 27 25 28 23 23 34 38 39 35 40 37
7 2 8 15 6 18 5 4 2 2 2 6 10 7 7 6 12 7 4 6 9 16 19 18 23 24 24 22 22 22 25 24 24 25 26 28 27 26 29 33 37 37 39 44
10 7 3 3 12 6 6 4 3 2 4 7 2 8 11 9 13 10 11 13 6 14 18 19 20 21 25 26 26 24 27 27 27 28 28 27 29 28 28 31 32 31 32 34
12 8 15 9 6 7 13 13 5 7 5 2 4 5 5 7 10 10 8 12 8 12 16 20 22 25 28 29 30 26 26 27 28 29 30 30 27 28 27 29 29 33 31 34
8 8 5 7 7 11 6 9 11 1 1 2 3 4 10 9 9 6 8 6 7 9 14 19 20 26 28 30 33 33 30 30 30 30 29 30 34 34 30 31 34 34 35 36
2 2 4 9 5 6 8 10 5 3 6 9 5 4 6 4 8 5 7 5 7 3 10 14 18 25 27 27 28 29 31 33 32 32 32 32 34 37 36 34 39 38 37 37
1 1 1 5 5 11 7 7 2 4 4 6 5 4 7 12 9 6 7 7 6 2 9 11 13 20 25 25 27 29 30 31 32 35 35 34 36 38 40 41 44 44 39 36
5 2 3 5 2 3 2 8 10 6 5 2 2 7 4 10 8 7 8 8 6 4 5 11 13 19 23 26 28 32 32 33 35 35 36 36 33 35 40 47 50 43 42 41
6 2 2 2 2 4 3 2 4 3 2 16 9 4 4 5 8 10 9 9 6 6 2 8 12 15 19 24 28 30 32 35 31 31 34 34 36 34 37 35 31 31 31 32
1 2 3 1 2 3 5 10 10 6 5 7 11 9 9 11 7 11 9 11 10 7 4 6 10 13 19 24 26 29 31 33 33 33 33 33 35 39 37 34 30 30 32 31
2 5 5 6 11 7 8 7 10 10 10 10 6 13 9 13 13 13 10 10 10 9 8 9 10 12 13 20 25 27 28 31 34 34 34 38 37 34 32 33 33 34 34 33
7 1 5 5 10 11 8 10 17 15 10 13 12 14 12 15 10 7 13 13 13 11 11 11 11 11 14 19 24 25 28 32 33 33 36 33 32 32 34 34 33 33 35 35
5 2 2 3 5 7 6 9 8 2 5 4 6 9 10 13 12 10 13 12 12 11 11 11 12 12 12 21 24 28 30 28 32 33 31 31 31 31 32 32 31 32 32 29
5 3 2 1 2 7 3 4 5 6 9 9 7 9 12 16 16 16 9 9 9 11 13 11 11 10 15 18 25 24 23 29 29 29 28 28 29 29 27 27 29 28 28 30
13 5 2 3 6 8 9 7 4 6 8 7 4 10 13 14 11 12 7 7 12 10 8 9 14 16 13 16 19 21 21 24 25 27 27 25 23 22 21 22 23 24 25 25
13 10 3 3 3 5 3 2 2 1 6 5 5 7 10 14 8 7 14 10 11 12 10 11 14 13 14 13 16 20 23 24 25 23 20 19 21 24 23 21 21 23 23 23
6 3 9 4 4 6 9 8 3 2 5 7 3 7 3 3 4 8 10 10 10 10 8 11 10 8 8 9 15 17 16 17 12 16 20 20 19 18 19 19 20 19 18 17
7 6 5 5 4 8 0 2 1 6 4 7 12 9 6 7 10 5 7 9 10 11 10 9 4 6 1 8 12 13 12 13 18 16 17 18 18 18 18 18 19 20 21 23
4 6 4 8 6 2 3 4 8 7 12 13 16 20 16 14 12 9 6 6 7 9 6 8 4 4 1 6 13 16 16 19 19 20 22 21 18 16 15 18 19 20 21 23
3 3 3 0 3 7 5 3 11 13 14 16 16 19 18 16 14 13 8 7 8 7 8 7 5 5 6 5 9 14 20 23 23 19 19 22 23 21 17 16 16 20 21 20
2 3 3 5 7 11 5 11 15 17 14 17 20 15 13 11 12 8 8 6 7 6 10 7 9 10 10 8 7 13 20 22 27 20 20 21 23 22 23 19 16 16 14 18
3 3 3 5 2 3 8 13 13 14 14 15 15 15 13 13 11 12 10 10 10 9 15 10 12 17 10 17 15 7 12 20 26 21 17 19 21 20 23 27 28 19 15 16

GFSCGP_925_spd_078.txt.gz
Wind_Speed
20 15 19 26 23 19 15 14 16 8 0 7 14 16 14 13 9 13 11 13 15 15 13 15 15 13 10 11 12 11 15 18 21 23 20 24 28 32 30 26 29 34 31 34
11 20 22 18 18 19 19 17 18 12 7 8 14 17 15 14 12 13 11 13 15 14 14 14 17 16 14 14 13 13 16 22 20 20 21 17 32 30 29 30 33 35 34 40
19 9 20 17 15 18 20 20 17 15 7 11 16 19 20 16 12 10 10 8 12 16 17 16 17 20 17 17 18 16 16 19 18 19 20 19 25 26 26 30 35 35 35 35
15 19 10 19 22 18 21 19 16 17 11 9 3 9 6 8 15 14 13 11 11 15 17 16 17 21 21 20 18 18 18 19 19 24 20 23 20 24 26 30 33 36 34 33
8 13 21 19 18 18 19 14 12 15 14 14 16 8 7 3 12 11 12 13 12 14 18 19 19 23 22 20 20 20 21 20 21 23 22 25 22 25 27 30 29 33 35 36
19 5 10 19 11 17 5 8 7 6 7 10 16 12 11 9 11 7 4 5 7 14 17 18 21 22 23 22 22 23 24 24 23 26 25 26 25 26 26 29 31 26 33 34
18 18 8 8 18 12 15 13 6 7 6 8 2 10 14 8 11 10 9 8 4 11 16 19 21 21 26 27 26 26 26 27 25 27 27 28 27 32 33 34 33 33 31 31
19 11 21 13 14 7 20 15 6 7 8 6 5 7 6 3 3 4 7 9 7 10 15 19 20 22 26 29 29 28 30 30 30 29 30 29 28 28 30 34 37 37 34 36
15 20 13 15 16 15 9 15 17 17 8 6 6 4 7 9 9 5 5 9 9 11 15 18 21 25 26 28 32 32 31 30 31 32 31 32 33 33 32 32 35 36 37 36
4 6 11 22 16 20 15 12 8 9 8 14 9 11 7 4 10 4 4 4 2 5 12 15 18 23 26 27 28 30 31 31 31 32 33 33 34 36 35 34 36 35 36 37
8 4 4 10 14 19 15 13 11 9 14 12 10 6 4 10 7 6 1 4 6 1 8 12 15 22 25 25 28 29 31 33 33 34 34 34 36 37 36 35 36 37 35 37
4 4 6 12 6 12 17 17 17 10 12 9 10 11 3 6 8 4 5 8 3 2 4 10 14 18 24 27 28 31 32 33 34 35 36 36 35 36 38 39 39 37 38 37
7 4 7 8 8 5 10 11 10 12 14 18 11 5 2 9 8 10 10 9 11 5 2 7 12 15 19 26 29 32 33 34 33 33 34 34 34 36 38 39 38 37 37 38
5 3 5 4 4 4 3 2 3 5 7 10 14 15 10 14 15 15 16 17 13 8 8 6 10 14 18 24 28 30 32 33 33 33 34 34 36 38 38 37 36 36 36 36
3 5 6 6 4 4 5 7 7 9 8 8 11 13 12 12 14 16 16 17 18 16 13 10 10 12 15 21 25 27 30 32 34 35 35 36 35 34 33 33 34 35 34 35
6 5 7 9 11 10 12 12 12 13 15 15 15 16 13 14 16 15 16 16 17 18 16 13 13 12 14 20 24 26 28 31 33 34 37 34 33 33 35 34 33 33 34 35
4 3 5 10 5 9 11 16 17 13 8 7 8 9 3 10 12 15 17 16 14 14 17 13 12 12 13 20 24 27 29 27 31 33 31 31 32 33 33 31 31 31 32 30
6 5 1 2 3 8 3 4 9 10 8 8 10 7 8 11 17 17 17 16 16 15 16 15 11 8 15 17 19 23 24 28 29 30 29 29 30 29 28 29 30 30 29 29
15 7 3 4 10 13 14 8 7 7 6 4 5 5 8 12 13 4 15 13 14 14 14 12 13 15 12 14 18 21 24 28 28 29 29 29 29 28 28 28 27 26 25 24
16 13 7 5 6 6 5 9 4 3 5 6 6 10 14 14 7 7 13 13 14 12 12 13 16 15 15 13 13 18 24 26 28 28 27 25 25 26 26 25 22 18 17 21
8 10 13 12 7 4 4 7 4 8 5 12 11 14 15 10 9 16 17 16 16 16 14 14 14 13 14 12 8 14 18 23 24 22 23 23 22 19 17 17 20 25 24 21
10 9 7 9 7 9 3 3 3 9 10 11 13 13 15 15 16 13 14 17 16 15 13 11 9 10 12 11 9 10 11 7 8 15 19 20 20 24 23 22 21 21 21 21
5 6 4 6 6 4 2 6 7 8 8 9 14 17 16 17 17 15 11 13 12 14 11 10 9 9 12 12 10 5 3 9 11 11 13 19 20 20 22 21 19 19 19 20
5 6 5 3 6 6 4 4 8 9 10 10 11 15 16 15 15 12 10 8 10 11 11 14 10 10 13 14 14 8 4 7 14 17 18 18 22 19 20 18 15 15 18 19
3 4 5 10 11 9 6 8 12 13 11 12 12 13 14 14 13 13 9 8 10 12 16 15 12 11 14 14 14 15 8 7 14 15 17 18 20 23 25 20 14 15 10 16
6 7 7 8 6 4 6 11 9 13 14 13 12 13 13 12 11 11 8 10 13 13 13 15 17 17 17 15 15 14 12 8 14 16 14 15 19 21 21 25 30 19 14 16

GFSCGP_925_spd_081.txt.gz
Wind_Speed
21 16 22 26 26 24 22 23 18 12 3 8 14 17 18 17 18 14 15 13 13 14 13 16 16 15 12 11 13 14 15 15 17 18 21 27 20 30 31 32 37 38 32 34
21 25 24 24 22 21 25 23 21 17 9 6 17 17 16 17 17 19 15 16 15 14 13 14 17 17 15 14 14 15 15 16 18 20 20 26 32 29 28 29 30 30 32 34
23 21 26 24 20 22 22 23 21 19 15 7 16 20 21 19 22 16 17 12 12 13 15 17 16 19 17 16 16 17 16 18 18 21 22 26 28 27 25 27 31 28 32 33
18 27 22 24 26 21 21 19 22 18 15 14 17 15 16 9 14 18 15 14 14 13 14 17 17 19 20 18 18 18 19 20 19 20 24 30 29 31 29 33 33 30 33 37
16 15 21 21 23 18 21 18 20 17 13 17 21 11 13 19 17 14 14 16 17 14 14 17 19 21 21 20 21 21 21 20 21 24 27 29 26 29 26 27 28 28 30 33
22 19 12 18 18 17 18 17 13 12 13 15 18 16 14 14 15 16 11 9 10 15 14 16 20 22 22 21 21 22 24 23 22 26 26 29 31 27 29 27 27 27 31 34
23 27 20 22 12 12 19 13 9 10 11 12 14 13 15 5 1 6 6 8 11 11 12 15 19 18 23 24 23 23 25 26 26 26 28 27 32 35 32 35 31 29 28 29
11 14 21 16 15 14 17 18 9 14 11 12 18 7 11 12 9 6 4 6 8 10 12 16 19 17 24 26 26 25 26 26 28 29 30 30 29 32 35 37 35 33 33 35
5 12 16 16 18 13 13 18 19 9 14 5 8 10 4 8 7 8 2 7 11 13 13 16 18 21 25 26 28 27 27 27 29 29 30 30 31 31 33 37 39 37 34 34
10 15 13 23 24 25 17 12 9 8 6 12 11 13 7 10 10 8 4 1 3 4 8 14 16 19 26 27 27 27 26 28 29 30 31 32 33 33 31 33 39 40 41 39
15 14 7 11 19 22 17 19 13 14 15 4 3 5 6 7 3 10 8 4 6 3 3 11 14 20 26 26 28 28 28 29 30 31 31 32 34 34 32 32 35 38 38 39
17 5 12 10 21 18 20 20 20 8 11 11 10 4 5 9 6 11 9 4 1 3 2 5 10 14 23 26 28 30 30 31 30 31 32 32 31 33 36 36 34 34 35 37
8 8 11 4 7 9 16 18 19 16 13 10 3 2 8 4 3 5 8 15 10 8 5 3 9 13 17 25 28 30 31 32 32 32 32 32 32 34 35 36 35 35 35 35
6 9 11 8 4 3 13 11 18 13 10 13 13 17 12 12 6 9 11 12 13 15 11 4 7 11 15 24 27 28 30 31 31 32 32 33 34 35 34 34 35 36 36 36
3 8 9 11 8 5 5 5 8 12 12 10 12 10 10 9 10 12 12 13 13 13 14 13 7 9 13 19 25 28 29 30 31 32 34 35 34 34 34 34 36 36 38 39
5 8 6 11 11 11 12 11 12 13 12 14 14 16 16 17 11 12 15 15 16 15 14 13 15 13 12 15 22 25 28 30 31 32 34 33 32 33 34 34 35 35 37 38
6 6 10 11 9 8 10 14 15 14 14 15 15 7 1 4 7 10 13 15 17 15 14 13 13 15 11 14 20 23 28 27 30 32 33 34 33 34 35 35 35 36 36 35
9 8 7 7 3 10 9 4 6 9 14 6 8 5 5 6 8 12 10 13 15 15 15 15 13 12 14 12 17 20 24 27 29 31 32 33 33 34 33 34 36 36 35 36
14 12 7 7 10 13 18 6 6 9 11 5 4 5 9 11 11 1 10 10 12 13 12 13 18 15 16 18 15 16 19 24 28 30 31 33 33 33 33 33 34 33 32 32
16 14 10 6 11 11 13 5 5 4 8 9 4 6 8 10 7 4 13 13 14 16 15 14 20 17 13 14 16 14 17 21 25 27 28 29 29 31 31 31 30 29 28 27
11 11 14 12 8 6 7 7 3 10 2 6 7 9 10 10 11 15 17 15 14 12 15 17 20 18 18 18 18 14 15 15 21 21 23 25 25 26 28 27 25 25 21 20
11 9 7 8 5 14 8 6 7 7 4 8 9 11 11 13 14 14 15 15 13 14 13 16 14 17 20 21 19 16 11 12 12 9 17 19 21 20 20 18 16 21 25 25
6 10 8 11 8 5 8 8 3 7 7 9 11 12 13 13 14 15 15 14 12 13 14 18 17 18 20 22 20 16 18 16 9 7 9 9 11 10 8 11 12 14 17 20
8 11 6 3 8 7 8 1 10 9 8 10 11 12 12 13 13 14 12 13 13 14 15 17 19 19 21 24 21 19 19 13 12 12 11 10 13 15 14 13 12 10 9 16
2 6 8 9 12 8 11 11 10 10 11 11 12 11 12 12 13 14 11 12 12 14 18 17 15 16 19 22 22 22 19 13 14 16 17 18 18 20 25 24 17 13 8 9
6 4 4 2 11 8 10 14 12 11 13 14 13 13 14 14 13 13 10 12 13 14 18 16 17 19 18 19 20 25 18 11 15 20 20 18 18 21 20 23 32 26 21 16

GFSCGP_925_spd_084.txt.gz
Wind_Speed
15 9 18 22 21 24 18 15 19 22 22 19 16 15 16 16 15 15 16 14 11 12 14 21 20 19 16 16 15 19 19 16 15 15 20 23 23 27 30 33 29 33 37 38
14 22 20 21 22 23 20 21 25 24 24 8 11 15 15 16 15 14 14 12 14 13 14 16 22 21 17 16 17 22 20 18 16 18 20 20 27 24 29 31 24 29 41 44
18 16 19 24 24 21 21 23 21 24 22 20 12 16 18 19 18 17 15 14 12 11 14 18 16 20 20 19 19 21 22 22 20 22 23 22 22 23 21 26 30 32 35 38
11 21 23 23 25 24 23 21 21 20 19 14 15 13 17 18 22 23 17 12 12 8 11 18 18 18 23 20 21 20 21 22 24 25 27 27 27 26 27 29 28 33 32 31
7 16 11 26 21 25 26 19 12 19 21 20 20 12 14 13 14 11 13 15 12 11 8 15 19 21 24 23 23 22 23 23 24 27 32 32 26 27 27 26 25 30 27 29
17 14 8 11 22 19 18 24 14 18 16 18 17 15 14 15 17 12 10 11 12 14 14 13 22 24 22 25 24 24 24 24 25 28 32 32 30 29 27 27 29 29 26 32
15 17 20 16 18 16 16 12 3 5 10 13 16 15 16 12 18 10 8 9 6 6 11 12 19 17 23 26 27 27 27 26 26 28 30 32 33 34 34 34 33 32 27 27
3 6 12 13 18 10 18 16 6 6 4 10 19 12 15 17 15 5 6 3 2 8 8 10 17 17 21 26 28 27 30 28 29 27 30 31 35 35 35 37 34 35 32 33
3 6 2 11 11 12 8 15 19 10 10 6 7 20 2 5 6 7 6 5 6 6 11 12 14 17 23 26 29 29 29 30 31 30 31 29 32 35 36 35 35 35 33 31
7 9 12 11 16 19 16 3 6 4 4 4 8 15 7 11 6 5 4 3 2 1 7 13 12 17 25 27 28 30 27 28 33 32 31 32 29 35 36 35 37 35 34 34
16 11 7 11 13 17 14 10 4 3 6 1 3 4 8 5 7 3 7 8 6 4 5 0 8 18 24 25 27 29 28 29 31 35 34 33 33 33 36 36 39 39 37 38
12 6 9 16 19 18 22 19 16 3 4 6 3 5 9 2 6 7 8 13 8 6 4 0 5 11 19 23 25 27 28 28 29 34 35 36 33 35 33 36 36 39 42 41
9 6 8 6 10 11 12 15 13 17 10 5 2 4 7 2 7 5 6 7 10 12 10 2 5 3 12 20 23 26 27 29 27 30 33 35 36 37 37 37 36 38 41 42
7 6 9 5 4 10 11 15 21 20 8 6 8 11 14 10 11 13 3 3 7 11 11 13 1 9 7 13 20 23 26 29 28 26 30 33 36 37 37 36 36 34 39 41
4 7 11 12 4 11 3 6 16 17 19 11 8 14 8 11 12 10 7 8 8 9 9 9 11 9 6 14 19 23 25 28 30 30 29 32 33 34 33 34 38 38 37 38
6 9 11 13 12 9 12 15 17 15 19 12 9 13 15 18 15 4 5 8 9 12 16 17 16 16 15 15 18 22 24 26 30 30 32 29 30 33 36 35 35 37 39 39
6 6 9 10 11 12 8 9 11 9 8 7 10 10 7 1 5 9 9 14 12 12 12 11 10 10 11 17 26 12 23 25 27 31 30 30 31 33 35 35 35 37 38 37
12 10 7 7 8 4 6 11 3 6 12 13 12 7 7 3 3 11 14 12 11 12 12 11 11 13 17 22 23 26 19 22 26 27 28 30 31 33 31 33 37 37 37 38
15 11 5 4 6 12 18 6 3 6 7 7 9 11 5 5 4 11 13 10 9 7 7 8 14 18 26 27 29 28 28 24 18 24 27 28 29 29 29 31 35 35 33 33
17 13 9 5 7 5 5 16 6 9 5 6 11 1 8 6 5 9 13 12 12 11 8 7 12 21 23 25 26 22 18 21 21 25 19 27 28 29 30 33 29 30 31 32
14 11 11 9 7 5 9 5 6 6 4 8 10 12 12 9 9 12 12 11 11 8 14 22 19 22 20 23 24 22 25 26 30 29 29 22 30 28 30 29 31 29 30 30
11 9 6 8 5 11 3 5 6 8 9 6 10 10 11 10 11 12 14 14 17 17 20 26 22 20 20 21 21 20 21 24 25 23 24 25 19 8 11 22 16 16 18 17
6 7 6 8 7 5 9 13 10 8 10 11 11 11 11 10 11 13 12 15 15 16 20 24 20 18 19 21 20 19 24 21 18 22 24 23 19 17 15 11 10 16 18 21
3 8 2 5 4 12 8 13 11 13 13 14 12 12 11 10 11 12 12 13 13 18 19 20 20 19 19 21 20 19 24 20 15 21 23 24 26 24 20 18 15 9 8 12
0 1 13 9 10 11 13 7 7 14 12 12 11 12 13 12 13 13 12 13 13 17 19 19 18 17 18 19 20 22 21 19 12 17 21 23 23 24 26 37 30 22 15 6
5 7 4 4 8 8 7 11 13 12 11 11 11 11 12 13 12 12 11 13 15 16 18 17 17 18 19 20 22 25 22 17 13 13 18 20 23 21 26 26 34 41 34 27

GFSCGP_925_spd_087.txt.gz
Wind_Speed
4 4 6 8 8 9 13 15 18 12 13 13 16 17 19 10 6 9 9 10 13 14 13 23 31 35 35 31 33 29 26 22 20 20 21 20 17 16 17 19 28 35 38 41
6 11 7 8 11 13 9 14 24 21 20 14 19 18 11 8 7 9 14 12 14 8 13 14 25 29 32 32 32 30 27 24 20 22 21 19 22 20 22 23 27 33 38 41
7 3 4 9 10 10 12 19 20 23 23 18 21 15 21 6 6 7 8 11 15 13 16 17 17 24 31 33 37 33 28 24 21 22 21 20 19 23 21 19 28 31 35 39
3 5 9 13 14 11 17 15 18 19 11 9 13 14 16 8 14 16 17 9 9 11 14 19 17 18 28 29 33 30 27 25 23 24 25 25 21 20 18 23 24 28 34 40
4 3 4 12 16 15 14 15 15 10 12 17 23 11 14 14 13 11 18 24 12 10 21 20 20 26 28 35 35 32 28 23 27 27 26 28 22 22 24 21 25 27 25 28
9 6 4 5 9 17 11 14 10 9 10 9 19 10 10 15 15 15 10 12 16 11 21 22 23 28 26 31 34 35 31 27 27 29 27 29 27 24 24 24 25 25 29 33
6 16 11 12 7 7 12 8 4 6 5 7 7 11 15 9 17 23 18 14 14 13 17 18 19 17 25 29 31 34 31 27 27 31 32 29 29 29 31 31 29 28 27 31
3 6 10 12 13 5 9 10 3 4 3 3 11 7 9 14 21 16 10 7 8 10 17 20 20 18 26 29 32 31 32 28 27 31 33 32 30 30 30 34 30 31 29 33
3 4 3 10 8 10 4 7 13 5 3 2 5 6 10 14 22 8 7 8 8 8 17 19 19 19 27 31 33 34 31 29 30 28 31 31 33 31 31 33 31 32 28 30
4 4 8 2 0 12 9 7 5 3 3 4 5 6 2 7 5 7 7 8 9 5 9 19 19 18 28 32 34 35 34 32 33 30 30 30 32 34 33 33 33 33 34 31
10 6 4 3 2 8 8 4 5 2 3 2 3 3 2 10 10 11 8 9 7 8 6 8 16 20 26 29 32 32 34 32 32 34 29 30 29 34 34 33 35 36 37 36
5 3 7 16 10 8 8 11 7 3 5 3 0 4 9 17 16 6 7 11 12 12 7 7 13 14 22 26 28 31 31 31 34 34 33 32 31 32 34 35 36 36 37 38
5 2 3 5 3 8 9 14 13 10 2 4 2 1 8 10 16 17 10 9 7 9 10 9 7 13 14 23 26 30 31 33 31 36 34 34 34 33 34 36 35 37 39 40
3 4 4 4 4 2 6 7 19 14 3 4 4 6 10 12 15 18 14 3 9 13 16 16 16 6 2 22 26 28 30 33 34 34 36 35 38 38 36 33 37 36 38 39
3 2 9 11 8 7 2 11 3 12 10 6 0 10 9 11 10 16 14 14 15 15 15 13 11 7 8 15 7 20 29 34 37 34 34 37 38 38 38 39 36 36 37 40
0 3 6 8 11 7 11 14 3 1 4 11 12 12 7 15 9 5 10 13 12 12 12 13 13 14 11 14 17 20 16 29 35 34 34 33 36 38 39 39 38 39 39 38
5 3 4 3 9 13 5 10 13 11 16 11 10 11 1 2 17 9 7 11 10 9 9 9 11 12 15 19 21 20 21 10 29 32 32 33 32 37 38 36 37 40 40 38
4 5 3 4 6 3 4 6 4 2 10 5 12 10 9 13 10 9 7 8 8 6 6 7 9 12 21 23 26 23 22 18 23 15 24 31 33 32 30 34 37 35 35 38
10 5 2 2 3 6 14 4 3 2 7 11 12 9 11 8 11 9 8 8 6 10 10 14 20 21 25 29 29 24 24 24 25 23 23 20 18 29 29 32 37 38 35 32
12 7 5 2 4 5 5 2 7 1 5 7 11 11 11 12 7 6 14 18 20 19 24 21 21 25 28 30 28 25 24 22 22 22 20 23 26 15 28 34 33 33 35 38
10 5 11 7 3 6 5 7 5 4 4 7 11 11 12 10 6 7 13 17 17 20 24 22 24 23 23 27 25 22 22 24 25 21 18 19 24 20 17 13 26 30 30 28
7 7 5 4 3 6 10 5 4 5 10 12 13 12 12 12 12 11 14 16 18 18 24 26 21 22 25 26 23 19 21 24 23 19 18 21 23 24 22 22 17 5 21 30
2 6 5 6 5 8 11 12 13 12 14 13 14 13 11 11 11 12 13 16 16 19 21 23 21 20 21 23 22 20 23 22 20 19 18 19 20 25 27 27 28 24 15 5
2 8 2 3 10 12 14 15 12 14 13 14 14 13 12 11 11 12 13 13 13 18 19 20 19 18 19 22 21 21 22 20 17 17 20 20 22 28 30 30 29 29 24 16
3 2 5 4 11 15 13 10 9 14 14 13 13 15 13 11 11 10 11 11 11 14 15 15 16 16 18 21 22 24 23 18 13 16 16 17 19 22 27 37 31 27 26 17
6 5 3 3 7 9 9 11 12 12 13 13 13 13 13 13 11 10 10 12 13 15 16 17 18 17 19 20 22 25 23 15 12 15 16 17 18 20 22 25 37 45 38 40

GFSCGP_925_spd_090.txt.gz
Wind_Speed
1 3 7 8 6 4 4 7 9 6 5 7 13 13 15 16 17 16 18 11 15 16 14 22 30 31 33 33 35 35 34 30 27 22 17 13 12 14 17 19 24 26 27 38
3 7 6 7 6 7 6 3 7 5 5 12 16 25 19 23 20 17 17 11 15 12 9 13 25 28 33 34 35 36 35 32 29 22 20 15 16 13 16 16 19 24 29 39
6 3 5 5 5 8 6 5 3 5 14 11 5 22 21 24 13 13 10 11 12 13 13 16 16 26 28 31 36 37 35 32 28 23 20 15 15 12 13 13 18 25 28 35
6 2 3 1 3 2 12 6 5 7 6 5 2 11 17 16 20 19 11 10 10 10 12 19 19 19 30 30 35 37 36 33 29 26 25 24 17 13 12 17 16 19 24 30
4 4 2 1 3 6 6 4 7 1 8 9 14 7 13 12 18 19 15 10 8 10 17 20 23 29 31 34 35 37 36 33 29 27 27 27 20 17 19 17 21 22 21 24
5 3 6 8 3 1 2 4 5 6 8 10 12 11 11 13 16 17 16 9 10 8 18 23 25 27 25 28 33 36 35 33 30 29 29 29 25 21 23 20 21 22 22 26
2 5 4 5 4 3 5 5 3 5 6 11 5 13 17 12 16 15 17 14 13 11 15 18 20 17 25 29 30 32 33 30 32 31 30 29 28 27 29 29 25 23 23 25
4 3 6 6 7 4 6 5 3 6 4 3 10 7 5 21 21 22 22 15 17 15 16 21 22 20 27 30 31 31 32 30 31 31 31 30 28 30 30 32 30 29 29 27
5 4 1 5 3 7 4 4 5 5 2 1 4 5 5 7 12 13 18 10 6 14 17 18 18 18 27 29 33 34 31 30 32 28 30 31 30 29 30 32 31 33 29 28
2 2 4 4 4 5 8 2 2 3 3 3 4 3 3 10 9 13 17 10 2 6 15 16 17 18 28 29 30 30 32 32 33 28 29 30 29 33 30 30 35 33 34 34
2 3 4 2 5 5 3 3 4 4 3 1 3 2 6 11 11 14 16 18 7 6 7 13 14 17 23 25 27 28 27 28 30 31 29 28 30 31 33 33 35 37 37 37
2 1 4 9 11 6 8 4 4 3 3 3 1 3 6 12 15 16 16 20 10 8 6 10 12 12 19 23 24 28 28 29 32 32 31 29 30 31 31 34 36 35 38 39
2 3 4 6 5 6 3 8 11 8 2 4 4 2 7 14 17 17 14 12 9 14 19 10 8 6 7 15 23 27 29 29 30 32 31 32 31 32 31 32 35 36 37 37
1 3 3 4 7 4 6 3 12 10 3 3 6 6 4 4 13 13 16 13 6 14 18 19 15 8 7 10 9 10 13 19 27 30 32 32 34 31 33 32 36 38 39 39
3 1 2 7 14 6 6 6 7 4 12 4 2 4 5 3 4 7 15 12 12 13 17 16 14 12 12 17 14 13 22 22 21 26 29 32 34 36 34 33 34 35 37 38
4 2 3 4 8 10 14 14 11 5 11 11 16 14 7 3 6 2 12 13 9 11 15 16 15 14 12 15 15 17 6 15 23 23 29 28 31 32 35 35 34 36 36 35
2 3 4 3 6 12 8 7 15 7 12 7 2 7 1 9 9 5 4 7 7 11 12 15 15 12 15 17 18 21 22 21 14 26 17 19 23 25 28 27 31 34 36 36
3 2 2 3 3 5 7 13 9 5 4 15 3 12 16 15 14 17 15 10 15 14 15 15 11 14 17 19 23 23 24 25 24 21 15 8 9 22 29 30 35 37 34 37
9 4 1 2 3 10 14 2 3 10 5 8 10 5 15 12 13 17 15 15 15 14 11 14 16 17 18 22 20 20 24 23 21 21 19 16 15 13 11 25 31 33 32 34
9 5 4 1 3 4 5 6 15 3 3 4 8 5 5 5 7 6 12 13 15 17 18 17 18 19 22 24 20 21 21 22 22 21 18 16 15 13 12 10 11 26 30 34
3 1 12 7 3 6 5 15 11 8 3 7 10 9 9 7 6 10 12 14 17 18 20 19 21 22 21 22 19 21 20 22 20 18 18 18 18 14 15 11 10 11 10 24
6 5 4 3 4 9 14 5 4 4 11 12 11 10 12 11 10 11 13 14 14 13 18 18 16 19 21 23 21 19 20 18 18 18 18 19 20 19 19 18 16 15 15 13
4 5 3 6 4 6 10 12 13 10 12 12 11 9 11 10 11 12 11 13 13 16 15 16 17 16 19 21 20 18 20 19 14 15 17 21 25 25 23 24 23 18 17 16
3 4 1 3 8 11 12 13 14 14 12 13 13 12 11 10 10 11 11 10 10 13 15 16 16 17 17 18 18 16 18 17 13 13 16 18 20 23 28 26 26 24 19 14
5 3 4 5 9 10 11 11 9 12 12 13 14 12 14 12 12 11 10 10 11 14 16 17 17 16 17 18 20 22 19 14 12 14 14 15 16 19 25 35 32 28 31 20
6 5 3 2 6 5 4 8 9 9 10 11 10 12 15 13 12 11 11 13 14 16 17 18 18 18 19 20 21 22 20 14 11 14 14 14 14 16 18 23 33 41 39 37

GFSCGP_925_spd_093.txt.gz
Wind_Speed
3 4 9 10 5 4 4 4 4 3 5 5 4 12 14 9 9 13 10 11 12 14 13 24 27 28 31 32 34 35 34 33 31 27 23 18 19 17 16 18 21 17 34 39
1 6 5 7 6 6 6 7 9 5 5 5 6 16 18 16 8 12 14 13 15 17 7 12 22 25 32 33 32 32 35 34 29 27 22 14 17 16 18 19 20 21 24 34
6 4 1 7 4 5 4 7 4 7 4 6 5 18 14 19 10 9 10 10 14 16 11 13 16 24 27 30 33 35 35 36 28 29 23 14 14 10 14 16 18 20 22 26
5 1 3 2 1 3 4 5 6 4 2 7 3 16 22 13 12 12 14 9 13 8 7 13 15 15 28 30 30 34 32 33 26 30 26 23 17 10 13 16 15 17 21 26
3 5 4 3 3 3 5 4 5 7 3 2 5 3 17 7 14 16 10 8 9 13 12 15 18 26 31 30 32 33 29 31 26 32 28 24 20 16 15 14 12 14 18 24
4 2 4 5 2 1 1 2 3 3 0 8 11 11 13 9 13 13 14 12 13 10 10 15 20 21 23 26 28 30 29 28 26 32 28 26 24 19 17 17 18 16 17 19
2 3 3 4 3 2 3 3 2 4 5 6 5 12 17 23 19 17 17 14 13 9 10 14 16 17 22 29 30 29 29 27 29 32 30 27 25 22 23 22 20 20 21 20
5 1 7 5 7 6 5 5 3 4 3 3 8 6 5 12 14 8 11 10 15 14 7 16 20 19 25 30 31 30 29 27 29 31 31 28 24 25 24 26 24 24 24 23
4 3 2 5 4 7 3 7 2 5 3 3 4 6 5 14 17 18 14 13 12 13 10 18 19 18 25 29 33 34 31 26 28 27 31 28 27 27 26 25 27 27 26 27
2 1 3 2 4 2 4 3 4 3 3 3 4 4 2 12 16 17 18 15 11 8 5 14 16 17 25 25 27 27 30 29 27 25 28 30 30 28 27 27 27 28 27 27
2 2 2 5 6 7 3 3 3 2 4 2 3 3 4 6 11 15 15 18 16 12 3 5 10 12 20 21 24 26 27 28 27 26 24 28 31 31 29 29 31 30 30 30
1 3 2 8 5 5 3 3 4 2 2 3 2 5 3 8 11 16 20 20 17 14 2 8 7 9 13 16 18 20 23 25 26 27 23 24 30 30 29 29 30 32 32 32
3 2 3 2 3 5 4 1 2 6 3 6 4 2 5 7 14 19 20 21 18 17 13 12 11 9 9 12 12 14 15 15 17 22 20 20 25 28 28 28 29 29 31 33
5 2 2 3 4 3 4 6 7 3 3 3 7 4 1 6 2 13 18 19 18 15 16 15 13 10 8 12 14 14 15 17 19 22 22 21 24 29 30 30 29 29 30 32
3 1 2 5 8 5 5 10 12 9 8 6 5 5 2 0 7 4 7 17 14 13 15 14 12 11 11 17 14 4 14 20 23 26 26 21 21 21 25 26 30 30 30 31
3 2 1 4 5 2 5 14 15 12 9 11 14 16 6 6 7 8 5 11 10 12 15 15 14 16 15 18 21 18 19 9 18 23 21 18 20 23 23 25 28 30 32 34
1 1 2 4 4 7 6 7 10 3 4 2 5 5 6 7 8 6 2 5 12 15 15 14 14 14 18 20 18 17 17 21 17 4 2 10 18 23 26 27 27 26 27 30
5 4 3 3 3 3 6 11 11 6 5 16 15 6 15 15 14 14 12 13 13 11 11 10 10 16 21 20 21 20 22 22 22 22 17 14 11 8 8 22 28 28 27 30
5 4 1 2 3 8 9 4 3 10 8 6 7 11 16 14 14 12 13 14 12 11 9 12 17 18 20 21 16 18 21 21 21 19 17 15 14 12 11 10 9 22 29 31
5 3 3 1 2 3 4 3 11 11 3 2 7 10 6 1 5 4 8 10 12 14 14 14 15 17 21 21 17 17 20 21 20 18 17 16 15 14 14 14 13 14 13 17
3 1 7 6 6 6 4 10 8 4 3 6 6 10 3 3 6 9 10 11 14 15 15 15 17 18 18 21 18 17 16 18 15 15 15 16 16 14 16 15 15 17 15 10
4 4 3 3 4 7 11 3 1 3 9 9 11 11 15 12 13 12 11 11 12 10 17 17 14 16 18 19 16 15 17 15 12 14 16 19 19 18 18 18 18 19 20 16
1 2 2 5 3 6 12 11 12 11 13 14 12 11 11 11 12 10 9 9 9 14 14 14 15 15 18 19 18 15 16 14 11 12 18 18 20 23 23 24 24 22 22 19
1 3 3 3 7 9 11 12 14 14 12 13 13 14 12 12 10 11 9 9 9 14 15 15 15 17 18 19 19 17 16 13 10 11 14 17 21 25 26 23 24 22 21 18
3 7 7 2 6 4 11 10 10 12 10 12 13 15 13 9 11 11 9 9 11 13 15 16 16 16 16 17 20 21 17 12 10 12 13 16 16 20 27 34 29 27 31 23
4 4 3 3 8 4 6 9 10 12 10 12 13 13 14 12 10 9 7 10 11 13 15 14 13 12 14 15 17 19 16 12 11 12 13 14 14 15 18 20 28 38 39 36

GFSCGP_925_spd_096.txt.gz
Wind_Speed
5 4 8 11 5 2 3 4 4 2 6 5 8 14 7 8 9 8 9 10 9 11 9 21 30 28 29 31 34 36 36 32 31 29 25 21 22 21 20 19 19 25 27 32
3 11 7 6 6 6 5 5 5 5 7 7 8 23 10 7 11 15 14 14 10 7 8 9 16 25 32 34 33 35 33 33 32 31 24 18 21 21 21 19 19 21 19 27
6 2 7 7 5 6 4 4 4 6 4 5 7 25 22 15 16 13 13 14 8 11 11 8 10 21 24 30 37 38 33 33 30 28 25 17 16 14 18 19 19 20 21 21
4 3 5 6 4 6 3 5 5 3 2 3 2 13 17 12 19 14 15 12 13 11 9 8 11 12 25 29 31 32 31 33 28 30 26 23 17 11 17 19 19 19 20 18
5 7 5 3 4 6 4 3 2 1 3 1 5 4 2 8 7 11 13 14 12 11 11 10 14 21 23 22 30 31 30 32 31 33 31 28 21 17 13 15 14 17 18 21
5 1 4 4 3 3 3 2 1 2 2 5 10 10 7 6 10 6 10 14 13 12 10 11 14 16 19 23 24 29 32 31 31 31 33 30 24 18 15 14 13 13 15 19
2 2 2 3 4 2 3 4 3 3 2 5 6 9 16 18 20 16 19 14 9 9 8 9 12 14 20 29 30 30 32 31 31 31 33 30 26 22 17 17 17 17 15 17
5 3 7 4 4 4 3 3 4 4 3 3 3 6 5 3 5 10 14 12 8 10 8 9 14 16 21 29 32 32 32 29 30 30 32 29 25 23 20 21 20 20 17 15
4 1 2 3 3 6 3 3 1 3 6 4 4 6 5 9 14 18 18 18 19 18 9 11 11 14 21 28 33 34 31 28 29 27 29 29 25 24 23 22 20 20 20 18
3 5 2 3 4 4 4 4 1 3 3 4 4 5 3 10 13 15 21 22 22 20 15 8 9 12 18 23 27 27 28 28 27 27 25 29 26 23 20 21 24 22 21 20
3 3 3 4 3 6 3 1 2 2 3 3 3 3 2 4 5 11 15 18 22 23 13 6 8 9 15 20 22 23 25 24 24 22 22 22 24 23 20 20 21 22 22 22
2 3 2 3 4 5 4 3 1 3 3 3 4 5 4 5 7 8 14 20 22 17 11 8 10 11 13 15 17 17 19 20 19 19 19 21 22 22 22 20 19 21 20 21
2 2 3 3 3 5 3 2 2 3 3 6 2 5 3 5 4 6 13 17 21 16 14 11 11 10 10 14 16 17 18 18 18 19 20 20 18 22 23 23 21 20 21 22
6 3 4 2 3 2 3 3 6 7 3 4 7 11 11 4 6 5 5 13 18 14 16 16 16 14 9 10 15 19 18 16 18 19 17 19 20 21 25 23 22 21 21 22
4 3 2 1 4 3 6 9 9 11 12 7 6 14 16 10 3 2 2 9 13 15 18 18 16 15 14 19 19 6 8 13 15 18 17 18 19 20 23 24 24 23 23 24
4 2 2 2 5 2 5 9 12 15 15 13 13 15 9 7 3 4 6 8 11 13 16 17 17 17 15 23 19 19 18 11 10 14 15 17 18 19 20 23 25 26 25 25
1 3 2 2 2 6 7 4 5 6 4 2 6 7 14 5 7 5 7 11 11 13 16 17 17 15 20 24 23 17 24 22 26 24 19 12 3 15 21 22 23 26 28 28
2 2 2 2 3 2 6 10 5 4 4 7 10 13 5 11 12 16 14 9 13 14 15 15 12 19 23 22 20 23 24 22 22 22 19 17 14 11 9 2 11 20 25 29
4 3 1 1 1 6 8 3 4 4 8 4 4 10 10 12 12 13 12 13 13 13 12 15 17 19 20 21 18 20 18 18 20 20 18 17 16 15 14 13 12 10 10 8
5 4 2 1 0 3 5 4 10 6 3 14 4 8 8 13 2 4 11 11 13 15 16 16 18 18 22 21 19 19 20 20 21 20 17 16 16 16 16 15 15 15 11 10
3 3 3 2 4 5 4 10 7 2 4 9 11 4 9 5 5 8 9 11 13 16 20 16 18 17 17 16 15 16 17 18 16 17 19 21 19 17 17 15 17 18 17 15
2 3 3 2 3 6 10 2 4 4 12 12 14 13 15 13 12 10 8 9 12 15 18 18 17 18 19 20 17 16 18 16 15 17 21 21 22 23 23 22 21 21 20 22
2 2 2 5 2 7 8 9 8 10 10 13 13 14 11 13 11 10 9 10 14 17 17 16 14 14 17 20 20 17 18 16 14 16 21 22 24 23 24 25 23 22 23 20
3 6 2 4 5 9 9 10 12 11 11 11 11 11 11 13 11 9 10 11 10 16 16 15 15 16 17 19 19 19 17 13 13 14 17 19 22 25 27 26 26 22 18 17
3 7 5 2 5 4 12 9 8 11 11 13 13 13 11 10 10 9 10 9 13 14 15 16 15 14 16 17 21 22 18 13 12 14 13 15 16 18 28 35 29 28 32 22
3 4 3 3 8 3 6 9 10 12 11 11 12 11 14 12 9 9 9 13 13 13 15 15 15 15 17 17 19 20 19 14 11 12 13 14 14 15 17 20 27 35 34 33

GFSCGP_925_spd_099.txt.gz
Wind_Speed
8 10 17 18 17 5 6 4 6 2 5 8 16 21 16 12 15 14 14 15 16 17 18 19 20 18 18 22 26 29 30 32 32 31 29 27 25 24 20 18 20 21 25 26
6 17 11 10 9 9 8 10 10 6 8 7 14 26 18 12 15 20 20 19 18 18 17 16 18 15 19 24 28 30 32 33 31 30 27 19 24 24 23 20 19 20 22 27
6 2 13 11 8 9 8 12 8 10 5 7 12 25 22 14 22 22 20 20 21 21 20 18 13 18 18 25 32 35 36 34 31 30 27 22 19 16 21 21 20 21 20 25
6 2 6 7 10 11 12 8 7 5 3 5 2 9 9 3 7 12 16 16 17 18 19 18 16 13 22 28 25 29 32 33 34 35 31 27 21 15 21 18 19 17 21 20
5 7 8 6 4 9 4 5 6 5 6 3 6 7 2 12 12 14 14 16 17 19 19 20 20 23 22 22 27 29 31 30 32 36 31 27 19 16 13 15 15 15 17 19
3 2 4 5 4 3 8 6 2 2 3 5 11 8 3 3 5 23 18 17 19 16 15 18 21 17 17 21 26 30 32 31 31 33 33 31 22 18 14 13 14 13 15 17
2 3 3 5 7 2 3 5 2 2 3 4 1 7 11 16 10 10 14 17 19 16 15 13 14 13 18 24 29 31 34 32 32 31 32 28 20 18 15 14 14 11 14 17
9 5 8 5 3 6 7 4 3 4 3 1 2 6 3 5 4 7 14 16 17 20 17 15 11 13 19 25 29 30 32 31 31 31 30 24 20 17 14 14 13 12 14 14
6 2 3 3 3 3 3 3 1 2 3 1 4 5 5 4 8 14 17 20 22 23 20 18 13 13 18 25 29 29 29 28 29 29 26 22 21 18 15 14 12 12 13 12
6 6 2 3 5 9 2 6 3 1 2 3 4 5 5 8 10 12 16 19 22 23 22 13 11 9 17 19 21 23 25 25 25 25 26 21 20 18 16 14 15 14 15 12
4 3 2 5 3 8 3 3 3 1 2 1 3 1 7 11 9 10 11 12 16 20 19 11 9 7 12 15 19 19 22 22 24 24 23 20 19 19 18 16 16 16 16 16
1 4 4 2 3 4 3 4 3 2 4 2 3 5 3 9 10 13 11 13 16 18 18 10 7 7 10 13 16 18 21 21 22 21 19 18 18 17 18 17 17 18 18 19
3 2 6 7 5 2 3 3 4 3 1 4 2 3 4 15 14 14 11 11 15 18 18 15 13 7 7 12 13 16 17 20 22 21 18 15 15 16 16 17 19 19 18 19
4 3 3 4 5 3 2 2 2 2 2 4 8 15 14 15 19 16 11 10 15 15 15 15 16 15 15 10 14 16 17 19 20 20 17 15 14 14 16 15 17 19 19 19
4 5 5 5 3 3 3 3 5 7 10 7 10 14 19 11 15 6 5 10 15 11 13 16 16 15 15 21 23 21 11 12 13 15 13 12 11 11 12 14 16 18 18 18
3 3 1 1 3 4 4 7 10 9 10 13 17 19 15 8 11 1 7 9 15 13 17 17 16 17 16 20 21 25 27 18 8 8 7 7 11 12 12 13 13 14 17 17
3 3 1 2 3 4 5 4 7 7 6 5 10 13 12 11 12 12 13 12 12 10 12 15 15 15 20 21 23 26 28 28 28 23 17 16 12 7 1 12 14 17 17 16
2 3 1 1 2 2 2 8 2 8 8 11 12 9 10 12 13 16 16 13 12 12 13 12 12 19 23 22 23 26 30 23 26 26 24 18 13 12 10 9 9 4 3 15
1 2 3 1 1 5 2 6 5 5 8 13 10 8 10 6 6 11 14 13 13 13 11 15 18 19 21 27 30 30 29 18 29 25 17 16 17 16 14 13 11 8 6 5
5 4 2 1 1 2 4 10 11 5 3 17 17 6 9 9 3 3 10 10 13 17 16 18 18 22 25 25 22 22 20 24 25 18 16 17 17 16 15 14 14 12 11 12
3 3 1 2 2 4 7 14 9 2 4 11 14 10 8 5 6 5 6 10 14 15 19 17 21 23 23 22 21 22 21 22 17 14 13 16 17 17 16 14 15 15 16 19
3 2 1 1 2 2 12 5 5 1 7 9 11 12 14 11 11 11 12 12 13 16 19 19 18 20 21 22 19 18 19 14 14 14 17 19 20 20 18 17 17 17 16 19
3 4 2 3 4 6 11 11 10 10 8 9 8 9 10 10 9 8 10 12 13 16 16 17 16 17 20 20 19 16 15 11 12 15 18 19 20 21 22 22 20 19 18 17
2 8 2 2 7 11 11 11 11 11 12 11 12 11 10 10 9 9 9 9 11 15 17 16 16 18 19 19 18 17 14 10 11 13 14 17 22 21 21 25 25 22 19 19
2 6 5 1 5 2 12 11 10 11 10 11 12 12 11 9 10 9 9 9 13 13 14 16 17 16 17 17 18 17 16 11 11 12 13 14 15 19 25 32 26 27 30 21
3 3 2 3 6 5 6 9 10 10 10 11 10 11 12 11 9 9 9 13 12 13 14 15 16 17 18 18 19 19 17 13 11 12 13 12 11 12 15 18 25 31 29 27

GFSCGP_925_spd_102.txt.gz
Wind_Speed
20 15 23 24 21 16 16 16 17 10 4 12 16 19 18 16 15 17 16 18 20 21 20 24 22 18 16 16 21 25 27 28 27 26 24 21 18 21 16 19 15 17 17 18
12 24 22 19 18 20 18 16 15 12 11 14 19 21 19 19 21 21 23 24 24 22 21 21 26 24 20 19 21 24 29 31 31 29 26 19 19 17 17 17 15 16 18 21
17 10 22 16 16 19 20 19 14 13 11 16 18 22 19 12 19 22 23 22 21 21 22 22 22 28 25 22 23 27 30 31 31 29 25 19 18 12 14 16 19 19 17 22
13 8 10 18 22 19 18 16 14 12 8 7 2 5 10 6 4 7 6 9 11 13 15 19 20 21 26 25 23 25 27 31 31 31 29 28 25 19 20 19 16 19 17 18
10 14 14 16 19 17 14 6 11 10 10 10 13 7 2 6 8 2 9 10 9 11 13 17 19 22 27 26 21 23 26 31 32 34 30 28 22 18 15 17 16 18 19 20
8 4 10 8 8 16 9 9 6 4 5 7 14 11 5 2 6 7 7 10 11 12 12 12 14 20 24 26 20 23 28 33 34 34 32 29 25 19 16 18 18 17 17 19
10 10 6 13 13 9 11 12 5 5 4 5 3 7 9 3 3 5 9 12 12 14 14 13 13 11 19 22 24 25 29 33 34 34 34 29 25 20 17 17 16 16 15 17
11 7 12 10 11 9 14 13 4 7 5 4 6 6 4 3 2 5 9 11 14 17 17 18 15 10 14 18 22 26 30 31 32 32 32 27 24 19 16 16 14 14 13 14
11 6 8 12 6 9 10 8 1 2 1 3 5 5 8 3 5 5 11 15 18 20 17 22 16 11 11 15 19 22 25 27 27 29 28 27 23 19 17 15 14 12 12 10
7 6 11 9 12 4 5 9 4 4 5 5 5 4 4 8 13 12 14 16 19 19 19 20 17 13 8 12 16 19 20 22 23 25 25 25 23 20 17 16 15 15 13 11
10 6 8 11 9 13 6 5 2 0 2 2 1 5 5 10 14 15 15 14 16 16 18 18 19 13 2 8 14 17 19 21 24 23 23 24 22 20 18 16 16 15 15 13
1 7 11 9 4 4 3 5 4 3 5 2 0 3 4 11 15 14 15 14 14 13 17 18 17 16 5 5 12 15 18 18 20 22 22 21 22 20 18 16 16 16 16 15
5 7 8 8 6 7 6 6 6 4 2 3 2 3 2 10 13 15 12 10 12 14 18 19 18 14 11 8 10 14 16 18 19 23 21 19 19 19 17 16 16 16 16 16
2 3 4 6 8 9 8 8 6 3 3 1 7 13 12 15 14 15 12 10 13 14 17 18 17 15 16 20 6 14 16 19 21 20 18 17 17 16 15 15 15 15 15 15
6 8 11 11 10 8 8 7 5 2 5 4 10 14 15 14 15 16 9 12 13 18 18 17 17 15 15 20 19 24 9 17 16 16 15 15 13 13 13 12 13 13 14 14
5 2 7 9 7 5 3 1 4 3 4 6 8 9 17 18 20 19 15 14 13 16 16 16 17 17 16 21 21 20 23 26 22 19 15 10 13 12 12 11 11 11 12 13
2 3 2 4 1 1 3 7 6 2 5 7 9 12 14 13 16 16 14 13 13 13 13 12 13 16 21 21 21 20 24 23 27 23 21 20 15 12 10 8 8 9 11 12
2 4 2 3 2 3 6 6 6 4 11 16 15 8 11 11 11 13 12 12 13 12 14 13 12 20 24 23 23 23 26 22 25 25 23 19 14 15 17 14 10 7 3 5
4 2 3 1 4 6 8 8 9 8 7 16 17 4 6 9 8 12 11 10 11 11 10 14 15 16 22 23 24 21 20 22 24 25 23 19 17 20 19 16 13 11 9 11
4 4 2 0 2 3 7 11 10 8 2 15 14 11 8 8 1 5 10 11 11 15 19 20 21 21 23 24 22 22 24 25 28 23 25 20 20 21 19 16 15 15 15 16
3 3 4 2 3 5 11 15 14 4 6 10 10 11 13 6 5 4 7 10 15 15 18 18 20 23 24 22 20 25 27 25 17 20 25 22 18 15 19 17 16 16 17 19
4 3 2 1 1 2 16 7 6 5 9 9 10 9 11 10 8 8 8 10 12 15 17 18 19 20 21 22 20 21 21 15 15 20 20 19 17 19 18 19 16 14 15 17
2 5 4 5 3 5 7 10 9 11 8 9 8 8 9 9 9 9 9 10 12 16 17 18 17 17 19 20 20 20 19 15 15 17 18 16 16 18 20 18 17 15 15 14
3 8 2 4 6 9 8 10 10 10 10 10 10 9 8 9 8 9 9 9 11 15 16 16 15 15 17 18 18 16 15 13 13 14 16 17 20 20 19 21 18 16 15 14
4 5 4 4 7 7 11 10 9 10 10 10 9 9 8 7 9 8 8 9 12 13 14 14 14 15 17 17 17 18 17 13 12 12 12 13 15 18 23 29 23 23 25 16
4 3 2 2 4 6 6 8 8 9 9 8 8 8 10 9 8 8 8 11 12 13 14 14 14 15 17 17 18 18 17 13 10 10 11 11 10 10 12 15 21 28 27 25

GFSCGP_925_spd_105.txt.gz
Wind_Speed
23 19 23 35 28 24 22 20 21 16 20 19 22 20 20 19 20 19 19 17 17 17 16 21 23 24 23 19 20 23 27 28 27 27 27 25 21 19 18 15 16 17 17 18
19 26 31 24 24 23 22 19 17 15 17 8 15 21 21 21 21 21 20 20 21 21 21 20 23 24 25 23 21 25 27 28 30 27 27 24 19 19 18 17 18 17 17 18
27 23 24 25 21 21 19 19 19 17 12 14 14 22 23 29 25 22 21 19 19 18 18 18 19 25 27 25 24 24 27 30 30 27 25 21 19 14 19 18 18 20 19 19
25 23 18 22 23 20 19 20 21 18 14 14 13 13 14 8 9 8 4 3 7 9 10 13 16 20 26 28 26 27 27 29 31 29 28 29 26 21 20 20 18 20 19 19
19 21 19 23 23 18 17 18 19 16 16 15 20 9 17 5 11 12 4 3 5 7 9 11 14 21 26 29 28 27 28 30 31 32 31 30 25 22 18 20 18 20 20 18
17 12 15 15 19 14 21 11 11 13 12 14 18 16 11 13 5 5 4 2 4 5 9 12 13 16 23 27 31 28 28 30 33 33 35 31 28 24 22 21 18 19 19 20
15 18 16 13 12 16 17 16 8 9 10 11 10 13 10 13 8 3 1 3 7 9 12 14 18 17 17 23 28 26 30 32 33 34 35 32 29 25 22 21 20 19 19 19
15 7 15 16 17 13 19 17 7 11 13 13 11 8 3 15 6 3 2 5 5 11 13 15 18 20 17 20 26 30 29 30 33 33 34 32 29 25 22 21 19 18 19 19
14 5 13 15 11 16 17 15 18 6 9 4 9 9 9 8 8 3 10 11 12 14 16 17 18 19 27 19 23 23 24 28 30 29 30 29 27 25 22 21 17 17 15 18
5 6 12 15 11 7 14 14 6 6 4 6 9 9 11 3 8 6 8 12 14 16 16 16 17 20 29 28 14 16 22 24 22 23 26 24 26 25 21 20 19 16 15 16
10 9 12 14 13 14 6 10 5 5 3 4 2 6 11 9 9 10 11 13 14 15 15 14 16 25 31 36 7 13 16 18 23 24 23 23 24 23 21 19 19 17 18 16
11 4 12 19 14 9 14 11 10 5 5 1 4 4 6 8 9 12 14 12 13 13 14 14 16 23 29 34 9 8 10 14 21 23 24 25 21 23 22 20 19 18 20 17
6 5 10 6 9 6 10 7 4 3 2 5 3 3 3 11 13 18 12 13 14 15 17 16 18 19 23 29 26 6 8 14 19 21 21 21 20 20 19 19 19 19 18 18
2 5 8 6 12 14 8 10 7 3 3 1 5 9 20 20 19 18 17 16 15 17 20 18 17 18 27 29 26 18 9 12 18 20 20 15 17 18 18 18 18 20 18 17
5 6 8 5 11 12 11 10 6 4 2 3 9 10 14 15 13 13 14 15 16 18 20 20 18 17 27 27 27 26 23 6 16 15 13 15 15 16 15 15 17 17 17 16
12 5 8 12 10 10 10 6 2 2 3 6 8 10 13 14 14 16 16 15 16 16 17 18 18 19 21 25 26 25 25 23 22 25 20 11 14 12 11 12 13 14 14 14
7 4 4 4 5 7 7 9 6 5 19 12 8 12 14 15 15 14 13 12 13 15 14 14 15 13 19 25 26 26 25 24 27 25 22 22 18 15 11 10 12 12 12 12
4 2 2 4 4 4 7 10 7 16 18 15 14 10 10 11 11 11 12 12 11 11 13 12 13 20 20 26 26 25 28 27 28 30 27 23 21 20 16 15 14 11 11 16
7 4 2 1 4 13 8 9 9 8 10 16 14 13 4 9 7 14 13 10 10 10 10 13 17 20 23 25 25 23 24 25 25 33 27 21 22 23 23 22 18 14 17 17
3 3 1 2 4 3 7 16 14 8 4 15 14 13 10 7 1 5 10 10 10 12 13 15 19 20 26 30 23 23 26 22 30 32 23 19 20 27 26 22 23 21 24 21
5 5 6 2 2 7 12 21 20 4 4 8 11 11 14 7 5 4 8 9 13 14 17 17 19 21 22 22 24 24 23 27 25 19 18 19 21 25 22 22 29 25 24 25
7 6 5 3 2 4 18 8 6 5 7 8 10 10 10 9 7 8 8 9 13 15 19 17 16 19 21 23 22 23 24 21 21 22 19 21 27 27 23 25 21 18 16 17
3 5 4 6 3 4 7 9 8 7 7 9 9 8 7 7 6 6 7 9 11 15 14 15 16 16 19 21 21 22 21 17 17 19 19 19 24 22 25 23 21 20 17 17
3 8 3 5 5 7 8 9 10 9 9 9 9 9 9 8 7 7 8 9 11 14 15 15 15 17 19 19 20 20 18 14 13 12 15 17 26 28 26 24 24 24 18 15
4 5 4 5 7 8 8 8 8 10 10 9 8 9 9 7 8 8 9 10 12 13 14 15 16 17 19 19 20 20 19 16 12 12 14 15 17 19 24 30 26 23 27 23
5 3 2 3 3 7 6 7 8 8 8 8 9 8 10 11 10 10 9 12 13 14 15 16 17 17 18 19 20 21 20 17 15 13 13 13 12 12 13 16 21 28 28 27

GFSCGP_925_spd_108.txt.gz
Wind_Speed
19 16 21 30 27 28 24 25 25 23 26 25 28 27 25 18 19 17 14 10 10 12 8 14 13 21 26 26 31 26 34 35 33 30 27 25 25 24 23 18 21 21 19 20
18 23 30 27 25 29 29 27 26 21 25 16 16 22 18 22 19 17 17 17 16 11 11 12 14 21 25 24 21 16 31 32 31 28 27 24 23 23 23 22 20 20 20 20
23 26 24 27 27 27 27 27 21 20 20 17 16 15 16 17 18 18 18 16 14 14 17 16 15 20 18 23 17 19 20 31 30 27 24 22 22 21 20 22 23 26 20 21
25 27 24 26 29 27 23 24 21 20 14 11 16 13 17 23 24 26 18 14 12 5 6 6 7 7 11 14 18 26 26 27 31 30 27 29 25 21 21 22 23 22 24 20
27 24 23 26 25 26 22 14 12 12 13 16 19 12 13 10 12 14 11 11 7 6 6 7 8 12 17 21 19 20 32 31 32 37 31 31 24 22 22 21 25 23 23 24
28 20 22 24 19 22 14 4 8 10 12 14 21 16 11 12 10 16 13 8 5 6 12 13 18 22 17 17 26 24 24 32 33 39 38 31 29 25 23 25 24 25 22 22
22 15 25 16 17 18 11 12 3 7 7 12 18 15 13 10 13 15 11 11 11 11 12 14 16 17 26 25 31 27 25 28 34 38 38 34 31 27 26 27 26 25 23 24
16 9 19 11 17 14 19 17 6 8 9 11 18 9 14 16 12 9 12 11 14 12 12 13 14 15 22 28 32 32 25 24 31 30 34 35 28 29 24 28 25 24 25 24
7 11 11 13 9 17 20 19 19 4 7 2 7 8 10 13 13 9 10 10 12 13 13 14 15 20 25 27 33 36 34 23 29 29 32 31 29 27 24 27 24 24 27 26
2 4 6 7 5 7 7 11 8 5 5 3 10 10 9 9 8 12 15 14 15 16 16 15 15 21 26 28 33 46 26 24 26 23 32 29 28 27 24 27 24 22 26 25
5 3 9 6 9 11 2 7 5 8 7 2 4 4 9 4 4 16 17 16 16 17 15 15 15 23 25 28 34 36 20 4 9 18 24 24 26 28 22 24 21 20 24 23
11 6 7 15 9 11 12 7 15 2 5 4 3 3 14 17 19 19 19 17 18 19 17 15 15 21 25 30 33 33 29 17 13 10 12 20 20 23 20 21 19 20 19 18
4 3 2 4 7 5 7 17 14 8 3 3 1 4 13 18 19 18 17 17 16 18 18 17 16 15 21 29 32 34 34 9 10 11 16 18 20 19 22 22 19 22 21 20
8 3 4 2 5 8 7 10 7 3 2 5 12 8 17 17 16 16 16 16 16 16 17 16 17 17 21 27 31 32 34 34 4 10 15 16 13 18 22 22 23 20 20 20
5 9 3 9 17 12 7 7 6 6 3 4 12 18 17 15 14 14 14 14 15 16 18 18 16 15 22 25 32 32 32 31 28 14 3 7 11 17 19 15 22 20 18 20
10 1 8 9 12 21 10 4 10 15 18 18 13 11 14 13 13 16 15 15 14 13 14 16 18 18 20 23 30 30 29 30 29 28 27 23 9 12 13 21 23 20 20 18
10 5 6 10 12 11 11 16 17 19 19 12 11 9 10 12 15 15 14 13 12 11 11 13 14 15 21 22 28 26 28 29 32 30 31 32 26 20 14 16 20 19 16 17
3 7 3 2 1 4 6 18 21 22 20 17 14 12 9 11 10 12 11 11 11 11 11 11 14 20 20 23 23 24 26 31 32 32 33 33 31 28 24 15 18 17 16 16
4 4 2 2 2 10 12 16 14 10 14 18 15 15 7 9 6 13 11 10 10 9 7 10 14 17 22 23 21 24 26 30 34 31 28 32 32 28 29 27 18 17 21 20
6 7 3 2 4 1 6 20 19 14 7 15 14 15 14 4 3 4 10 9 11 18 15 16 18 19 23 25 25 27 28 33 28 30 29 29 30 30 31 30 22 22 29 28
7 5 7 4 3 5 15 22 15 3 4 7 12 12 14 8 5 4 7 8 12 14 19 16 18 20 21 23 25 26 24 25 26 24 26 30 23 26 28 29 24 19 32 28
7 5 5 6 5 4 22 6 6 2 3 7 9 11 10 9 8 8 6 6 11 13 16 19 19 21 23 25 25 24 22 21 21 25 27 28 25 27 28 22 20 20 20 26
5 4 3 5 3 4 7 10 8 9 9 9 10 10 8 8 8 6 8 10 13 17 18 19 19 20 22 25 27 24 24 17 19 22 24 24 27 27 29 28 26 21 24 20
5 10 3 6 6 8 8 9 9 9 8 7 8 9 8 8 9 9 10 10 14 17 18 18 19 21 22 24 25 25 25 20 17 16 17 20 26 29 31 27 30 30 25 20
5 5 3 5 8 9 8 7 7 8 8 9 8 10 11 10 11 10 10 12 15 17 18 19 20 20 22 23 24 25 25 23 18 17 17 15 17 22 25 33 29 28 31 24
6 4 3 2 4 7 5 5 6 7 8 9 10 10 13 14 11 13 11 14 15 16 17 18 19 20 20 21 22 25 24 22 20 17 16 17 14 13 16 19 25 28 28 27

GFSCGP_925_spd_111.txt.gz
Wind_Speed
9 10 18 17 15 19 17 16 18 16 19 20 16 26 19 15 20 17 15 11 17 12 12 25 30 36 35 33 20 38 38 37 36 35 33 34 33 34 32 30 26 29 28 27
14 22 16 17 16 18 19 20 22 24 21 16 15 18 15 22 20 21 15 11 9 7 6 3 2 9 15 22 22 33 38 40 39 34 33 30 34 32 30 28 27 27 28 26
18 22 18 20 19 20 20 21 21 20 21 19 12 18 18 13 18 8 10 7 8 10 9 7 6 4 8 16 23 28 36 38 35 32 29 24 26 25 27 28 28 30 28 26
14 19 22 24 20 19 19 18 22 22 18 7 4 6 14 15 17 8 8 6 4 8 9 9 11 12 17 14 16 9 41 41 41 40 36 35 30 21 25 28 32 29 26 27
14 17 22 21 14 17 19 20 19 9 11 4 5 7 7 8 10 16 18 11 10 13 14 13 13 17 23 28 29 28 9 33 38 44 42 39 30 31 27 26 30 30 32 24
19 18 15 15 15 13 20 11 5 5 2 6 13 6 6 4 7 9 18 17 16 15 15 15 18 25 27 30 31 29 28 11 33 41 42 39 35 30 26 30 30 32 31 33
10 17 16 8 6 19 12 8 3 1 2 5 6 5 10 10 16 19 19 17 16 16 16 17 19 17 27 30 31 30 27 29 18 42 41 40 38 36 35 35 29 28 31 32
4 5 11 8 12 10 6 9 5 5 4 2 4 8 10 8 24 19 18 19 19 19 17 18 19 20 26 30 31 32 33 31 29 33 41 37 35 33 34 34 32 33 31 28
2 6 6 10 13 7 6 9 7 3 1 2 5 3 3 8 20 20 18 21 19 18 17 18 17 20 23 26 29 31 34 33 30 24 40 35 35 34 31 35 35 35 33 32
3 4 13 17 6 8 7 6 5 3 2 4 6 6 2 11 15 19 22 19 20 18 16 13 12 20 24 26 28 30 30 32 30 23 37 37 38 39 35 32 35 34 33 32
5 5 3 3 3 2 5 4 5 2 2 2 2 3 7 7 12 17 19 21 17 15 14 15 16 25 25 27 28 31 34 35 32 8 31 36 34 36 33 29 36 33 32 32
3 2 1 3 8 3 4 2 6 2 3 2 2 4 14 16 19 19 20 17 16 16 17 17 18 25 27 26 28 30 31 34 33 23 6 27 31 30 32 28 29 29 31 31
3 1 2 2 2 5 4 5 7 3 3 3 1 4 10 16 18 17 17 17 17 18 17 16 17 17 25 26 26 30 33 33 33 22 14 6 14 26 26 29 26 28 30 27
6 4 6 3 3 4 1 12 10 5 1 4 6 10 14 17 18 18 18 16 16 16 17 16 15 16 24 27 27 28 31 33 34 26 17 14 9 5 25 28 29 28 25 24
5 6 8 13 10 14 10 15 9 9 7 7 8 17 12 14 14 14 13 13 15 16 15 14 15 15 24 28 28 28 30 32 31 27 29 25 17 4 19 25 28 26 23 19
5 4 8 13 16 20 15 22 19 19 15 10 13 10 9 12 12 15 15 16 15 14 14 15 15 18 22 26 28 26 30 34 32 31 29 29 27 22 9 25 28 27 24 22
4 2 1 4 11 10 13 19 21 22 20 12 10 6 7 13 15 15 14 14 13 12 12 13 14 18 23 26 25 27 25 34 32 30 29 31 34 32 30 21 18 17 20 23
0 5 2 2 6 5 7 15 21 24 19 18 15 10 11 14 13 13 12 12 12 11 9 10 15 22 24 26 27 24 30 27 31 30 30 32 34 33 33 31 28 18 18 17
5 2 2 3 3 5 11 14 9 5 12 18 15 13 8 8 5 13 14 11 10 10 11 12 18 19 23 27 27 26 28 29 30 31 29 29 36 34 32 33 33 28 27 26
8 9 3 1 4 4 6 19 14 5 7 14 14 14 15 6 5 4 9 9 11 14 19 15 19 21 25 27 24 25 27 28 28 29 25 31 36 33 30 29 33 36 28 37
5 5 7 5 4 3 14 19 13 3 3 7 10 11 12 7 4 2 4 4 7 12 15 16 20 22 24 26 25 23 23 25 25 26 28 30 31 29 25 27 33 31 26 37
5 5 4 4 4 4 20 7 6 4 6 8 8 9 9 9 6 3 3 5 13 16 19 20 20 22 25 27 26 25 23 19 22 27 28 30 29 29 26 26 24 25 24 24
4 3 3 5 4 4 8 10 10 8 6 6 7 7 7 6 6 8 7 9 14 17 19 20 20 21 24 27 27 24 26 19 17 23 28 29 29 28 27 27 26 25 23 18
3 4 4 3 5 8 8 8 9 7 5 6 8 10 8 9 10 10 9 10 14 18 19 20 19 20 21 23 26 26 27 24 20 19 19 25 27 28 27 27 28 25 23 20
4 4 3 5 8 9 7 7 6 8 8 10 10 11 10 10 11 10 10 12 15 16 18 20 20 19 20 21 24 27 26 23 21 20 20 14 19 20 23 29 26 25 28 21
4 3 1 2 5 5 5 5 6 6 7 9 9 10 15 14 11 15 13 16 16 16 18 18 19 19 19 21 24 28 26 23 22 19 19 20 14 15 17 19 23 26 25 24

GFSCGP_925_spd_114.txt.gz
Wind_Speed
4 7 10 13 14 17 13 15 21 18 14 11 17 19 23 13 17 18 12 9 10 11 12 20 32 31 33 33 26 33 41 41 36 33 31 30 39 41 37 37 34 33 32 30
8 14 17 16 15 16 16 18 23 22 24 15 15 15 9 13 12 9 15 12 11 6 7 10 19 24 16 13 18 31 40 41 43 39 39 30 29 32 35 35 32 32 34 32
6 22 14 16 19 19 19 19 17 22 19 20 14 16 15 19 13 16 17 14 13 14 6 9 14 19 22 28 23 15 31 43 42 40 31 30 29 20 26 33 35 35 35 35
9 16 19 20 21 17 15 21 19 20 12 9 6 7 9 10 11 12 9 7 6 13 14 11 11 16 22 24 24 22 5 19 31 39 35 35 33 24 32 32 38 38 34 34
15 12 8 19 18 14 17 21 20 13 11 4 7 3 7 8 8 7 8 15 16 15 14 14 13 16 18 23 24 23 19 5 17 24 32 41 32 32 30 32 37 38 36 34
19 17 13 14 12 12 4 7 11 1 3 7 7 8 5 4 11 4 18 16 16 14 13 13 15 17 21 22 23 25 24 18 9 13 28 28 26 24 26 29 31 35 37 36
7 12 7 11 9 10 5 3 3 1 2 5 5 9 10 13 17 20 18 15 15 14 15 17 20 18 26 29 28 23 25 26 20 14 20 29 35 37 38 35 33 31 31 34
3 7 4 3 9 7 4 9 5 6 4 4 5 6 1 15 15 17 19 16 16 19 16 17 18 18 24 27 29 29 27 21 23 21 19 31 32 37 37 36 30 33 34 35
2 4 4 2 5 4 5 6 7 4 3 3 3 5 13 17 20 20 18 19 19 17 16 17 17 22 25 27 27 27 27 28 25 21 25 30 31 34 34 37 36 34 34 35
3 5 1 6 4 8 11 5 2 2 3 2 2 6 5 12 14 18 17 19 18 18 17 20 20 26 30 30 29 28 26 25 27 28 21 28 36 39 38 37 36 35 34 32
3 3 5 10 5 3 0 4 4 4 3 1 1 4 7 9 9 12 12 18 18 18 17 19 18 27 27 28 28 29 29 29 31 32 28 13 29 30 38 39 38 38 35 34
3 2 7 6 10 2 1 2 4 4 1 3 3 3 5 9 6 13 12 18 18 15 16 17 17 23 25 28 30 31 31 32 32 33 30 20 10 23 32 33 37 36 36 35
2 1 4 1 4 5 3 2 2 8 2 1 3 4 5 7 12 10 13 14 15 15 15 18 15 18 24 28 31 31 31 31 32 33 30 25 17 2 16 31 33 32 33 33
4 3 5 3 4 2 4 8 5 6 4 6 8 6 5 11 12 13 13 13 12 14 17 16 16 17 25 28 30 31 31 31 33 32 31 29 27 17 4 20 28 31 32 33
3 6 8 2 3 13 10 8 10 12 9 4 8 8 8 10 13 11 11 14 18 19 18 17 17 16 25 29 30 33 34 32 32 32 32 30 30 22 10 9 24 29 31 33
6 3 7 12 17 22 20 24 20 16 13 13 13 9 8 11 11 14 15 15 16 14 18 16 16 19 22 27 29 30 32 34 31 32 32 32 30 31 21 15 2 23 31 30
5 3 3 2 7 1 15 16 21 20 18 7 5 6 8 14 14 13 13 14 12 12 14 14 14 19 24 28 30 31 32 32 32 31 34 32 34 30 32 25 23 17 12 16
6 6 2 2 7 6 4 9 19 22 16 14 10 10 10 14 11 13 12 10 12 10 12 12 18 22 24 26 28 28 31 33 34 34 31 34 31 30 27 27 33 29 25 21
3 4 3 1 6 7 8 9 6 5 11 11 10 4 8 9 6 12 12 10 10 11 13 16 19 20 24 28 27 27 31 31 32 33 33 32 33 31 30 30 33 35 36 34
7 11 4 1 4 3 4 17 11 6 8 11 11 12 11 3 4 5 8 8 13 14 16 18 21 23 28 29 26 24 28 31 30 28 30 31 29 30 26 25 27 33 39 31
4 4 6 5 4 4 13 17 6 3 3 7 9 10 12 7 4 1 5 8 16 17 20 20 21 22 24 26 25 26 25 22 25 27 29 29 29 29 25 25 29 29 30 30
6 4 4 3 4 3 18 4 5 5 6 8 8 8 10 7 6 9 7 9 17 19 21 21 20 22 24 25 25 24 25 23 22 29 28 28 28 27 25 27 26 26 24 27
4 3 2 5 3 4 6 10 8 5 5 5 7 5 7 9 9 9 9 11 17 20 20 20 19 19 23 25 26 24 27 25 22 23 27 26 28 28 28 29 26 26 25 20
3 1 3 3 4 8 7 8 7 6 6 8 9 11 11 11 10 10 10 11 14 17 17 17 18 19 22 26 26 26 27 24 22 21 21 25 24 26 28 25 26 26 24 22
2 4 3 4 7 8 7 7 5 8 10 11 13 13 11 11 10 10 9 12 14 14 16 17 17 18 20 24 26 26 26 24 21 20 20 17 21 22 22 25 27 24 28 23
3 2 0 2 7 5 5 6 6 9 10 10 11 12 15 15 10 13 11 13 14 15 15 16 17 17 19 22 25 25 24 24 19 17 18 18 14 17 18 17 20 23 23 25

GFSCGP_925_spd_117.txt.gz
Wind_Speed
3 1 4 13 9 12 13 15 19 18 18 21 19 22 20 19 11 15 18 17 11 15 13 22 29 28 21 24 35 37 38 40 34 31 33 30 32 36 37 36 36 35 34 34
1 7 15 8 12 12 16 15 18 20 23 14 17 23 24 14 18 18 14 12 11 13 13 7 17 15 12 10 3 27 34 40 42 36 39 30 32 32 37 35 34 33 35 35
6 11 9 13 13 12 15 17 20 18 22 14 15 18 20 22 18 19 16 15 10 11 8 11 15 19 22 22 17 1 28 31 34 35 29 23 24 20 24 30 35 37 36 36
8 5 5 8 12 12 18 12 15 16 15 13 2 11 11 13 18 16 14 10 15 13 13 14 14 15 20 21 20 20 9 12 20 25 23 24 28 22 31 36 41 43 39 37
9 7 8 14 17 10 16 11 11 20 15 9 17 4 6 9 5 8 14 14 17 15 14 14 12 14 18 21 24 24 18 12 7 16 26 29 23 20 11 19 31 39 41 40
22 16 10 20 18 12 11 3 7 13 6 5 15 8 5 5 9 14 17 17 17 15 14 14 16 16 20 23 26 25 24 20 10 1 8 24 27 23 18 21 24 29 33 38
8 7 8 16 13 12 5 3 3 3 1 5 7 7 7 14 17 16 16 17 16 15 14 14 13 13 19 22 25 24 24 23 19 12 8 11 25 31 32 26 29 25 29 33
3 7 3 3 8 7 7 7 4 3 3 4 8 3 5 15 16 14 17 16 17 18 16 16 16 18 21 22 24 25 25 25 24 20 16 13 18 25 33 35 35 35 33 39
3 5 3 3 1 6 4 6 10 4 6 2 5 7 14 16 12 13 20 18 18 18 16 17 18 22 24 26 26 25 26 24 27 27 22 20 18 24 33 35 34 34 34 35
4 6 2 5 5 7 7 1 1 1 3 5 4 6 7 13 15 11 15 14 13 15 16 16 17 23 26 27 26 28 28 25 25 29 27 25 25 23 34 34 37 38 37 36
7 4 7 8 4 5 2 2 5 3 1 2 2 4 6 11 12 12 11 14 16 14 15 15 15 24 27 30 32 31 33 31 31 31 30 27 25 17 28 30 36 38 34 37
3 3 4 4 11 7 3 5 4 3 3 2 3 3 4 7 9 10 13 12 12 13 14 15 17 24 26 28 30 32 32 31 30 28 28 28 27 18 19 29 34 31 33 36
3 2 6 3 2 3 3 3 4 6 2 4 0 3 7 7 8 10 12 10 11 16 12 18 16 19 26 30 32 34 33 31 30 29 29 29 31 28 18 10 24 30 32 34
1 2 6 4 4 7 5 5 9 6 4 3 5 6 9 10 12 13 12 11 12 12 19 18 17 18 26 27 31 31 32 33 31 30 29 32 32 31 25 15 11 25 30 30
3 5 11 20 16 20 16 4 10 14 9 5 5 6 9 11 12 14 13 13 17 18 18 18 15 13 24 31 30 30 31 32 33 31 34 34 31 32 29 22 15 7 22 29
3 1 3 6 12 25 23 23 18 21 15 11 10 9 8 9 9 12 13 13 15 16 17 16 16 20 23 25 28 29 30 30 33 36 33 33 35 35 33 33 24 18 14 4
3 3 2 4 5 7 14 16 16 16 16 5 6 5 6 9 12 13 11 12 13 14 13 14 14 19 22 24 24 26 27 29 31 32 35 38 35 34 34 32 35 34 28 20
6 5 2 1 2 6 2 11 10 20 15 12 12 8 7 11 11 11 12 11 11 12 11 12 17 20 23 24 26 23 30 29 30 31 33 37 36 32 33 35 31 33 34 32
6 1 2 2 5 5 4 8 6 7 9 12 8 8 8 8 7 11 12 12 10 11 15 16 18 21 21 24 23 23 27 31 31 31 31 32 33 34 34 34 33 29 30 37
6 11 3 2 3 2 4 12 9 6 5 9 9 9 6 5 3 4 10 10 12 13 14 17 19 19 21 25 24 24 27 28 30 29 28 31 32 30 31 31 31 30 28 30
5 4 6 4 3 3 11 12 4 1 1 5 7 9 9 6 3 6 6 10 16 16 18 16 16 18 23 27 25 26 28 28 30 29 32 34 32 30 29 27 28 27 30 29
4 4 4 3 4 3 14 2 3 6 5 5 7 7 8 10 8 8 6 8 14 15 17 19 18 21 25 27 26 26 27 26 24 34 34 33 31 30 30 29 29 29 27 26
4 3 2 5 3 4 6 10 7 4 4 3 5 10 10 8 7 7 7 9 12 13 15 18 18 19 24 27 27 25 26 27 25 24 31 31 30 28 30 30 31 28 27 23
2 1 3 2 4 7 7 6 6 9 7 7 9 10 9 9 8 7 7 8 11 15 17 17 17 19 22 26 28 27 27 23 23 21 21 25 26 26 26 27 27 28 25 22
1 3 3 4 6 7 8 5 6 8 9 11 11 10 8 9 8 8 7 11 13 14 16 17 18 18 21 24 27 28 28 25 21 20 19 20 23 23 21 24 26 25 29 25
2 1 1 2 7 5 5 5 7 7 7 7 10 9 11 11 8 11 10 12 12 14 16 17 18 19 22 25 27 27 26 25 21 19 19 19 18 18 19 17 17 19 23 25

GFSCGP_925_spd_120.txt.gz
Wind_Speed
3 1 8 11 10 13 8 13 16 17 20 23 15 15 18 25 25 13 17 10 10 13 16 2 7 6 4 13 17 24 28 36 35 31 30 27 31 34 36 37 36 36 34 33
3 10 13 7 7 9 12 12 17 18 20 18 18 17 17 22 27 18 19 18 15 12 3 9 13 14 16 12 10 8 20 27 32 31 33 25 27 24 28 33 34 35 33 32
8 8 4 7 9 8 14 11 14 14 19 15 15 17 13 20 14 19 19 10 10 7 8 10 12 14 19 19 16 14 10 24 34 33 25 18 18 18 24 28 34 37 37 36
7 5 6 6 6 7 11 6 13 15 10 8 6 11 19 15 13 13 12 13 13 13 11 12 13 11 18 21 16 13 10 4 20 28 26 27 23 18 23 27 31 40 44 43
8 4 5 11 17 7 10 8 13 14 10 12 16 5 6 11 5 10 13 14 16 14 12 14 13 18 23 23 18 17 14 9 5 16 23 28 23 25 22 29 31 32 26 32
10 3 3 7 11 7 7 7 12 9 5 7 16 8 3 9 7 11 13 16 16 16 15 15 19 22 23 22 21 22 18 15 10 7 7 14 23 25 26 22 27 28 33 33
7 4 4 4 3 3 4 4 4 3 1 6 3 4 7 13 14 13 13 14 15 16 15 15 16 15 22 23 24 24 22 22 19 12 6 1 5 12 29 30 25 24 23 28
3 6 2 4 5 3 5 6 3 4 3 8 9 2 5 8 12 13 12 14 15 16 14 15 16 17 20 23 24 24 21 19 22 20 15 10 10 14 16 25 26 29 33 32
4 6 2 3 3 5 2 5 11 7 7 6 2 3 3 16 16 15 15 14 13 15 15 15 16 20 20 23 23 22 23 24 25 23 18 15 15 15 20 25 23 27 34 35
3 7 3 1 3 8 12 3 1 1 4 3 4 3 5 14 15 14 16 14 14 12 14 14 14 20 21 23 23 26 26 25 26 27 24 20 20 18 21 26 26 31 34 34
7 5 4 2 6 4 2 3 4 4 5 1 2 3 6 9 11 12 13 13 13 13 12 12 13 20 23 24 27 28 29 29 31 29 27 27 27 24 19 16 24 26 30 32
4 4 4 11 5 5 4 5 5 3 4 2 3 3 5 8 11 11 12 14 15 13 17 13 16 26 26 26 30 33 33 30 29 29 29 29 30 30 26 18 14 23 26 30
5 3 5 6 2 1 3 2 1 2 2 3 2 3 7 9 10 11 12 13 13 12 12 13 14 18 24 27 30 31 33 34 33 32 30 31 33 32 31 28 20 11 22 26
0 2 7 5 7 8 6 6 3 3 3 4 4 5 8 11 12 12 13 14 14 14 16 16 17 19 29 32 34 33 33 33 32 33 33 34 34 34 32 31 26 19 9 16
1 2 2 5 17 14 17 11 10 12 7 4 4 5 8 10 10 11 10 12 17 18 19 17 16 16 24 28 31 30 30 32 31 32 34 34 31 32 33 32 34 28 21 14
1 3 3 3 3 13 20 21 17 16 13 11 11 7 6 6 7 11 12 14 16 16 17 17 17 22 26 28 27 32 32 31 31 30 30 32 34 34 34 34 34 33 33 28
2 4 3 3 11 5 8 15 15 15 16 5 5 4 4 8 13 14 13 13 15 16 15 16 16 21 26 27 26 27 30 29 29 30 32 33 32 32 34 34 34 37 35 34
4 3 2 3 2 5 1 7 9 18 13 10 9 6 6 11 12 12 13 12 12 14 16 14 19 23 24 23 26 23 33 31 31 32 31 33 32 31 31 35 36 35 33 34
2 3 0 2 4 3 2 6 5 5 8 10 5 5 4 5 5 12 12 11 11 10 15 17 19 21 23 27 26 28 27 35 33 33 32 32 31 31 32 32 30 33 33 34
4 10 1 1 2 2 2 9 6 7 3 8 7 6 4 5 3 2 9 10 13 17 18 19 21 22 25 28 26 26 27 26 33 32 30 31 33 33 31 29 31 29 29 29
4 3 6 4 3 3 7 11 3 2 1 7 7 7 9 6 4 4 6 11 17 17 18 18 18 20 24 28 25 25 27 28 25 28 30 30 27 27 29 28 30 31 30 30
3 4 3 2 2 1 12 2 2 5 5 7 5 7 10 8 8 8 6 7 13 15 17 18 17 20 24 26 23 22 24 25 23 25 29 30 29 26 28 30 30 32 30 29
2 2 2 4 2 3 6 9 7 5 4 2 6 7 8 7 7 6 6 8 12 15 16 18 19 20 24 26 26 22 23 22 20 22 25 32 31 32 29 30 31 30 29 26
2 1 3 3 3 5 5 7 6 6 6 6 7 7 7 8 7 7 7 9 12 16 18 18 18 19 21 25 23 21 22 23 21 22 25 24 29 29 31 29 28 29 30 25
1 2 3 4 6 8 5 5 7 8 8 10 10 8 7 8 7 7 6 10 11 13 14 15 15 15 18 22 25 26 25 23 21 21 21 22 21 27 27 25 24 26 30 29
1 3 2 3 8 3 5 6 7 8 7 7 9 8 10 9 6 7 7 8 9 11 12 13 14 14 17 21 24 25 24 21 20 19 19 18 18 24 25 25 22 19 19 23

GFSCGP_925_spd_123.txt.gz
Wind_Speed
2 4 8 9 11 16 16 18 22 25 27 18 21 22 28 27 22 25 24 21 23 24 24 17 9 9 7 11 18 25 25 26 27 27 28 26 30 28 29 27 27 30 29 32
1 8 9 7 9 10 11 13 22 21 20 14 19 23 26 28 28 23 20 23 22 23 20 9 10 10 9 5 1 12 18 25 28 29 30 24 25 24 28 27 27 31 33 36
5 4 3 6 11 13 14 15 17 16 23 25 16 15 8 20 21 9 11 13 12 12 10 9 12 14 12 12 10 2 12 19 24 27 24 21 14 18 23 27 28 30 28 32
6 4 4 4 9 11 16 9 12 14 14 8 8 13 17 15 13 13 12 12 13 13 12 12 12 14 17 16 12 9 6 7 14 23 23 26 24 21 24 25 26 25 29 29
3 3 6 7 8 10 7 5 12 14 14 14 15 7 5 14 16 13 13 13 11 12 12 13 13 16 18 18 15 12 11 13 7 12 17 22 25 22 20 23 23 30 29 33
15 4 4 5 3 11 3 8 12 9 6 5 4 3 3 8 11 13 12 12 12 12 12 12 17 17 20 21 20 18 17 17 14 10 6 7 16 19 17 19 21 22 25 30
5 3 2 4 3 1 5 4 3 2 3 5 8 6 4 11 13 11 14 14 13 12 12 13 15 16 21 24 24 21 23 22 18 14 10 7 3 4 7 18 20 20 22 27
4 6 5 5 5 1 6 4 2 4 4 11 11 5 4 7 11 13 12 12 14 12 12 13 15 18 21 25 27 26 25 22 19 19 17 14 11 9 9 11 12 19 26 29
3 6 4 6 4 3 2 5 3 4 8 6 1 2 5 15 14 14 16 14 17 15 13 16 18 20 22 24 26 27 24 22 20 21 18 21 13 13 14 17 20 16 25 25
2 8 5 1 0 9 14 1 1 2 4 4 2 3 6 14 15 16 17 18 17 17 18 15 15 22 24 25 25 27 26 24 26 33 30 20 22 19 17 16 17 21 22 26
4 5 7 6 6 5 3 4 5 3 3 3 4 3 6 10 12 14 14 15 16 16 16 16 14 24 26 26 27 27 27 30 30 29 21 18 21 19 18 16 16 15 18 24
1 4 6 11 16 3 2 4 9 4 3 1 1 3 7 9 11 14 14 14 14 14 15 13 20 25 29 30 29 30 32 34 30 28 28 29 29 29 27 26 23 19 11 18
3 2 6 8 3 5 4 2 4 7 1 2 2 3 8 10 12 12 14 14 14 15 16 15 21 24 24 22 26 26 28 27 25 27 29 31 31 29 29 30 30 26 20 10
4 1 1 3 4 8 8 10 6 2 2 5 4 5 9 12 13 13 13 13 13 15 18 18 16 22 28 30 33 31 27 28 29 31 32 32 32 32 32 31 32 32 30 25
1 2 4 7 11 16 15 17 11 7 4 4 6 6 8 11 11 12 11 13 18 20 20 20 19 21 27 27 29 30 32 33 29 31 33 33 32 31 33 35 35 33 35 32
1 1 2 2 4 8 16 17 9 13 15 12 11 8 6 7 8 11 14 15 16 18 18 18 18 25 25 27 27 32 32 30 28 31 31 31 31 33 33 34 35 34 36 35
1 3 2 0 5 3 5 10 11 14 14 4 4 4 6 8 11 13 12 13 15 15 15 15 15 20 22 24 25 28 29 28 32 32 32 32 32 33 35 34 33 34 33 34
4 2 2 2 3 3 3 4 11 15 11 9 9 7 8 11 10 11 12 12 13 13 14 15 19 21 22 23 26 26 31 33 32 31 30 32 32 31 32 32 32 33 33 33
7 2 1 2 3 3 4 3 3 4 7 8 3 8 9 9 6 12 12 11 11 12 15 17 18 19 20 23 24 26 28 28 30 31 30 30 30 31 32 32 31 30 29 29
2 4 2 2 3 4 3 6 5 5 3 6 4 1 1 7 1 3 9 12 12 14 16 17 19 20 23 23 23 25 26 28 31 31 29 28 28 31 30 29 29 27 27 27
2 3 4 3 2 2 6 9 3 2 3 6 6 7 4 5 5 5 7 11 12 13 17 16 18 20 23 24 23 27 27 26 25 27 28 31 31 29 30 28 29 28 27 27
1 0 2 0 1 2 8 1 1 6 8 7 7 9 12 11 9 8 8 10 13 15 16 17 17 20 22 23 22 23 25 22 22 23 28 28 28 27 25 26 26 25 27 27
1 1 2 2 2 3 4 8 6 5 8 6 8 8 10 9 8 7 7 11 13 15 14 14 17 18 22 23 23 23 23 22 22 24 24 24 24 24 23 24 25 25 25 25
2 1 3 4 3 4 6 7 6 7 10 10 10 9 9 10 8 8 7 9 10 11 13 14 15 18 18 19 20 20 21 20 21 22 22 21 23 21 21 20 21 24 25 23
0 1 5 3 7 6 3 5 9 10 12 12 12 11 11 11 9 9 8 9 9 9 11 12 13 15 17 18 20 20 20 21 20 19 20 20 19 20 19 17 18 18 22 24
2 4 3 3 9 3 5 8 8 9 9 9 11 11 12 12 11 10 10 9 9 10 10 12 14 15 16 17 18 20 20 20 19 18 19 18 17 18 17 16 14 17 17 19

GFSCGP_925_spd_126.txt.gz
Wind_Speed
1 6 7 9 8 11 14 16 21 17 13 16 17 24 27 24 19 19 18 18 20 23 25 28 28 22 18 23 19 24 29 30 32 34 33 30 30 29 26 25 23 23 24 26
5 6 3 3 5 8 12 16 20 17 5 15 20 25 26 16 16 18 16 17 18 20 20 21 22 19 17 18 16 19 25 31 32 34 35 34 31 29 28 25 25 26 26 25
6 2 3 7 7 9 13 15 18 22 19 17 11 19 13 14 12 16 18 20 19 18 19 18 18 17 15 16 16 17 17 22 30 32 32 30 26 23 23 25 26 28 28 27
6 1 5 7 8 7 13 7 11 13 14 12 13 13 20 10 13 19 17 18 19 19 17 16 16 17 16 17 15 13 13 15 13 30 28 31 30 25 24 23 23 24 27 28
5 4 6 8 5 3 5 6 10 11 14 16 10 9 6 16 17 22 20 19 18 18 17 16 15 16 16 18 16 14 13 6 6 7 18 24 24 23 18 18 17 22 22 27
11 3 6 10 5 7 8 9 12 11 8 6 2 6 8 11 16 18 20 19 20 20 16 16 20 17 17 19 19 15 12 12 10 8 10 15 14 15 14 11 12 14 21 24
3 7 4 9 10 3 4 6 3 3 5 6 5 11 6 14 15 14 19 19 19 19 18 15 17 18 20 20 20 18 16 17 16 16 15 14 8 6 7 5 2 11 17 19
2 6 11 10 6 6 3 6 5 5 5 11 5 2 4 8 12 16 15 17 19 21 18 18 16 20 21 22 22 20 20 19 21 19 17 16 14 10 7 5 2 7 5 15
1 5 5 9 10 5 2 6 2 8 10 6 3 5 3 14 15 14 17 19 18 18 18 17 19 22 22 22 23 22 22 22 26 24 19 20 18 16 12 10 7 7 9 13
3 5 5 2 3 12 12 7 4 5 4 5 3 3 6 14 15 14 17 17 18 17 18 17 20 24 27 24 22 25 27 27 30 24 23 20 21 19 16 13 11 14 13 13
2 4 2 6 4 6 5 9 8 5 6 4 5 5 6 9 11 13 14 15 16 17 17 16 22 28 26 27 28 29 29 28 26 27 29 23 24 22 18 21 23 21 17 15
2 2 4 8 6 4 8 11 12 5 4 4 2 3 7 8 10 11 13 14 15 14 15 15 24 26 29 33 33 33 32 31 30 27 27 31 34 33 30 32 29 25 22 16
4 3 4 1 5 4 5 5 11 10 8 7 4 5 6 8 10 11 14 14 14 16 17 16 21 25 29 31 34 33 32 29 28 34 39 37 36 31 34 33 31 28 26 24
5 2 1 2 2 7 10 15 14 10 3 5 4 7 7 9 11 13 13 14 14 15 17 17 15 22 29 30 34 32 35 36 37 37 32 29 30 28 27 27 30 32 33 32
3 4 7 12 9 12 10 12 10 4 4 2 7 6 6 8 9 10 11 12 15 17 19 19 19 23 28 33 31 31 30 31 32 27 27 27 25 27 29 30 28 30 33 34
3 3 5 8 7 5 11 13 8 13 14 13 12 7 5 6 7 9 11 12 13 14 16 17 19 25 28 29 29 32 30 29 25 26 27 26 27 28 27 28 29 29 30 32
2 1 3 4 4 5 2 7 8 11 10 4 4 6 6 6 8 10 11 11 12 14 15 16 18 22 22 24 23 24 26 25 26 26 28 28 27 27 28 28 28 29 30 30
1 1 3 2 6 4 6 7 10 12 9 9 10 9 7 8 9 10 10 10 11 12 13 16 20 21 22 22 23 23 25 27 28 29 28 27 27 27 28 28 28 28 28 29
3 1 3 3 1 6 7 5 3 2 4 4 5 8 8 9 6 11 10 9 9 11 13 14 15 16 18 20 21 22 24 26 29 28 30 31 31 29 29 30 28 27 27 28
4 2 4 4 4 6 6 4 2 3 4 3 1 4 9 9 3 4 7 8 9 11 13 14 15 16 18 19 20 23 25 27 26 28 27 27 26 28 28 28 28 25 26 27
3 2 4 3 2 4 3 2 4 5 4 5 6 5 4 5 6 6 4 7 8 9 13 12 14 16 18 18 19 22 23 23 22 22 24 26 27 26 26 25 27 27 25 25
2 2 3 2 3 4 2 4 4 8 9 9 9 10 13 12 9 8 5 5 8 10 12 13 14 16 18 20 19 20 23 21 21 21 22 24 24 25 24 24 26 26 26 25
3 3 2 4 4 5 6 9 10 9 11 10 11 10 10 10 8 7 6 8 9 11 11 12 13 15 18 20 20 22 23 22 22 22 24 24 25 24 24 26 26 27 26 25
3 2 2 5 4 6 7 7 7 8 10 10 10 10 8 9 8 8 7 8 9 10 12 11 13 15 17 18 19 19 20 20 19 21 21 20 21 21 22 21 23 23 26 26
3 6 6 4 6 7 4 7 10 11 11 11 10 9 9 9 8 8 8 8 8 9 10 11 12 13 14 15 16 18 19 20 19 19 19 20 19 20 19 18 17 19 19 22
5 5 3 2 12 2 12 11 11 11 11 10 10 10 9 9 9 10 9 8 8 8 9 10 11 11 13 14 15 16 18 18 18 17 17 18 17 17 18 17 15 16 17 18

GFSCGP_925_spd_129.txt.gz
Wind_Speed
7 9 12 10 9 10 12 13 14 14 12 14 17 21 20 19 9 16 16 18 20 22 27 33 35 34 34 26 25 28 27 35 33 31 32 34 32 30 30 30 29 28 27 32
7 13 5 4 5 8 10 14 15 13 7 11 19 21 17 11 13 12 17 18 20 21 22 27 30 33 33 31 25 26 28 32 36 28 32 36 32 33 32 32 32 34 32 31
13 4 2 6 7 9 10 12 13 15 15 19 19 18 13 4 16 18 19 20 20 21 22 23 27 29 31 28 27 30 31 29 35 37 28 36 32 31 31 31 30 33 32 31
10 5 6 8 7 5 9 8 12 13 11 10 10 14 8 11 14 19 20 20 21 21 20 20 24 27 28 27 25 25 28 25 26 25 31 37 35 28 31 28 29 28 29 29
5 9 9 10 4 2 5 9 12 14 14 14 14 7 10 9 16 21 20 20 20 19 19 18 23 28 27 25 25 24 24 21 21 20 23 26 37 29 29 30 28 26 26 26
14 4 5 9 3 5 9 12 15 11 8 8 3 5 6 7 11 16 18 20 19 19 19 19 26 28 28 27 27 24 22 19 18 15 22 12 28 28 13 8 23 19 16 22
14 13 6 7 9 9 7 11 5 6 7 10 8 9 6 9 11 13 16 17 19 20 19 19 21 26 29 29 28 24 21 19 17 13 24 24 14 6 8 7 29 11 12 16
8 7 15 12 8 5 6 5 6 6 7 12 18 3 5 6 11 13 12 15 18 21 20 20 23 27 28 30 27 26 21 20 19 17 24 28 27 24 17 10 13 6 9 5
5 5 8 7 7 5 3 6 7 8 16 10 2 4 3 10 13 11 15 17 17 18 19 21 28 29 26 29 28 26 22 21 20 23 26 30 29 25 25 19 10 9 7 7
3 3 6 6 4 12 11 1 4 6 5 7 3 4 4 13 14 14 13 14 18 17 18 20 24 29 29 30 26 26 24 23 21 25 30 30 29 25 24 21 20 15 12 9
5 3 8 7 9 6 5 9 8 11 9 5 8 4 5 7 9 12 12 13 13 15 16 16 22 27 28 29 26 28 27 26 26 30 28 30 26 26 18 22 19 17 19 20
5 2 4 7 5 2 4 9 11 8 8 7 6 2 5 4 8 11 12 14 14 12 13 14 21 24 28 27 33 32 32 33 29 31 33 31 26 24 24 28 31 30 25 23
9 5 5 8 8 7 3 5 8 9 7 14 6 4 4 6 8 11 13 14 13 15 15 14 20 23 27 29 29 33 36 33 32 28 28 28 28 29 33 34 34 33 29 30
3 4 5 5 4 4 5 10 13 15 6 4 4 7 4 6 9 11 12 13 13 13 16 16 16 22 26 29 29 28 29 31 31 32 32 33 33 39 40 36 35 36 31 33
3 4 1 7 8 5 3 7 10 4 3 3 7 6 4 6 7 9 11 11 13 15 17 18 18 23 29 31 33 33 34 34 34 36 36 37 37 36 39 36 33 36 38 35
6 3 5 7 7 5 6 6 2 8 10 9 12 7 5 5 5 8 10 11 12 13 15 16 18 24 26 29 31 35 35 39 36 39 35 34 36 35 34 27 29 30 30 30
7 5 6 3 11 8 5 3 6 6 7 3 4 7 7 6 7 8 9 10 12 13 14 15 17 22 24 27 29 31 32 33 33 30 34 34 31 29 27 26 28 28 27 27
6 6 3 5 9 5 6 7 7 9 7 10 13 9 7 8 7 7 8 8 10 11 12 14 17 20 21 23 25 25 28 31 33 32 31 31 28 28 27 27 29 27 27 27
5 4 4 4 7 6 8 8 7 5 4 3 8 10 9 9 9 9 8 7 7 9 11 13 13 13 18 21 21 24 27 27 28 30 28 27 28 27 27 27 26 25 25 25
6 5 4 4 5 5 10 11 4 3 6 8 9 11 10 10 5 4 6 6 7 9 9 12 13 15 16 18 19 20 21 22 22 21 24 24 25 26 26 26 28 24 23 23
8 8 8 7 6 5 7 11 7 4 5 8 8 9 12 8 5 9 7 5 3 4 9 10 13 16 17 17 18 19 20 19 19 19 19 21 21 21 23 23 24 25 22 23
5 4 4 3 4 4 6 9 4 7 12 11 10 10 13 14 12 10 6 6 5 6 8 10 12 14 16 17 17 19 21 20 19 19 19 20 18 20 20 21 22 23 24 23
3 3 3 5 3 4 3 4 9 10 11 10 12 13 14 14 12 10 9 7 6 7 8 9 11 12 15 16 17 18 20 19 18 18 20 20 22 21 20 23 24 25 27 26
3 2 2 7 4 6 7 6 8 10 11 11 11 12 12 13 12 10 9 8 8 8 9 9 10 12 13 14 16 17 17 18 17 18 20 20 20 21 21 20 22 23 25 25
3 7 6 4 7 8 8 9 9 11 11 11 10 10 11 12 11 10 8 8 8 8 8 9 10 11 11 13 15 16 18 18 17 18 18 19 18 19 20 18 17 20 17 20
6 6 5 2 13 5 13 12 13 13 11 11 11 11 11 12 11 11 10 8 7 7 7 9 9 9 11 11 13 15 17 17 17 16 17 17 17 18 19 19 18 14 16 14